Wetterdaten: Montag, 16.03.2020
Datum Zeit Temp. I. Temp. A. Feuchte I. Feuchte A. Luftdruck Regen Wind Richtung Richtung Sonnenschein Solar Taupunkt Windchill Windböen
16.03.2020 00:00 23,9 °C 1,6 °C 41 % 77 % 1016,2 hPa 0,0 l/m² 1,5 km/h (1 Bft) SO 138 ° 0 min 0 W/m² -2,0 °C 1,6 °C 3,2 km/h (1 Bft)
16.03.2020 00:01 23,9 °C 1,6 °C 41 % 78 % 1016,1 hPa 0,0 l/m² 1,1 km/h (1 Bft) SO 138 ° 0 min 0 W/m² -1,8 °C 1,6 °C 1,6 km/h (1 Bft)
16.03.2020 00:03 23,9 °C 1,6 °C 41 % 78 % 1016,1 hPa 0,0 l/m² 1,2 km/h (1 Bft) SO 138 ° 0 min 0 W/m² -1,8 °C 1,6 °C 3,2 km/h (1 Bft)
16.03.2020 00:05 23,9 °C 1,6 °C 41 % 78 % 1016,2 hPa 0,0 l/m² 1,3 km/h (1 Bft) SO 138 ° 0 min 0 W/m² -1,8 °C 1,6 °C 3,2 km/h (1 Bft)
16.03.2020 00:07 23,9 °C 1,6 °C 41 % 79 % 1016,1 hPa 0,0 l/m² 1,6 km/h (1 Bft) SO 138 ° 0 min 0 W/m² -1,6 °C 1,6 °C 3,2 km/h (1 Bft)
16.03.2020 00:08 23,9 °C 1,6 °C 41 % 79 % 1016,1 hPa 0,0 l/m² 2,5 km/h (1 Bft) SO 138 ° 0 min 0 W/m² -1,6 °C 1,6 °C 3,2 km/h (1 Bft)
16.03.2020 00:10 23,9 °C 1,6 °C 41 % 79 % 1016,1 hPa 0,0 l/m² 2,1 km/h (1 Bft) SO 138 ° 0 min 0 W/m² -1,6 °C 1,6 °C 3,2 km/h (1 Bft)
16.03.2020 00:11 23,9 °C 1,6 °C 41 % 80 % 1016,1 hPa 0,0 l/m² 2,6 km/h (1 Bft) SO 138 ° 0 min 0 W/m² -1,5 °C 1,6 °C 3,2 km/h (1 Bft)
16.03.2020 00:12 23,9 °C 1,6 °C 41 % 79 % 1016,2 hPa 0,0 l/m² 2,6 km/h (1 Bft) SO 138 ° 0 min 0 W/m² -1,6 °C 1,6 °C 3,2 km/h (1 Bft)
16.03.2020 00:13 23,9 °C 1,6 °C 41 % 80 % 1016,2 hPa 0,0 l/m² 2,9 km/h (1 Bft) SO 135 ° 0 min 0 W/m² -1,5 °C 1,6 °C 4,8 km/h (1 Bft)
16.03.2020 00:15 23,8 °C 1,5 °C 41 % 80 % 1016,1 hPa 0,0 l/m² 2,1 km/h (1 Bft) SO 135 ° 0 min 0 W/m² -1,6 °C 1,5 °C 3,2 km/h (1 Bft)
16.03.2020 00:17 23,8 °C 1,4 °C 41 % 80 % 1016,1 hPa 0,0 l/m² 1,4 km/h (1 Bft) SO 135 ° 0 min 0 W/m² -1,7 °C 1,4 °C 3,2 km/h (1 Bft)
16.03.2020 00:19 23,8 °C 1,5 °C 41 % 81 % 1016,1 hPa 0,0 l/m² 1,8 km/h (1 Bft) SO 130 ° 0 min 0 W/m² -1,4 °C 1,5 °C 4,8 km/h (1 Bft)
16.03.2020 00:21 23,8 °C 1,5 °C 41 % 80 % 1016,1 hPa 0,0 l/m² 2,1 km/h (1 Bft) SO 130 ° 0 min 0 W/m² -1,6 °C 1,5 °C 3,2 km/h (1 Bft)
16.03.2020 00:24 23,8 °C 1,7 °C 41 % 77 % 1016,1 hPa 0,0 l/m² 2,4 km/h (1 Bft) O-SO 105 ° 0 min 0 W/m² -1,9 °C 1,7 °C 4,8 km/h (1 Bft)
16.03.2020 00:26 23,8 °C 1,9 °C 41 % 76 % 1016,2 hPa 0,0 l/m² 3,5 km/h (1 Bft) NO 49 ° 0 min 0 W/m² -1,9 °C 1,9 °C 6,4 km/h (2 Bft)
16.03.2020 00:28 23,7 °C 2,2 °C 41 % 74 % 1016,2 hPa 0,0 l/m² 3,0 km/h (1 Bft) N 11 ° 0 min 0 W/m² -1,9 °C 2,2 °C 6,4 km/h (2 Bft)
16.03.2020 00:30 23,7 °C 2,4 °C 41 % 72 % 1016,2 hPa 0,0 l/m² 3,2 km/h (1 Bft) N 5 ° 0 min 0 W/m² -2,1 °C 2,4 °C 4,8 km/h (1 Bft)
16.03.2020 00:32 23,8 °C 2,7 °C 41 % 70 % 1016,2 hPa 0,0 l/m² 4,3 km/h (1 Bft) NO 44 ° 0 min 0 W/m² -2,2 °C 2,7 °C 8,0 km/h (2 Bft)
16.03.2020 00:34 23,8 °C 2,9 °C 41 % 69 % 1016,2 hPa 0,0 l/m² 2,9 km/h (1 Bft) N-NO 33 ° 0 min 0 W/m² -2,2 °C 2,9 °C 4,8 km/h (1 Bft)
16.03.2020 00:36 23,7 °C 3,0 °C 41 % 70 % 1016,2 hPa 0,0 l/m² 3,9 km/h (1 Bft) NO 42 ° 0 min 0 W/m² -1,9 °C 3,0 °C 6,4 km/h (2 Bft)
16.03.2020 00:38 23,7 °C 3,1 °C 41 % 69 % 1016,3 hPa 0,0 l/m² 3,5 km/h (1 Bft) NO 44 ° 0 min 0 W/m² -2,0 °C 3,1 °C 6,4 km/h (2 Bft)
16.03.2020 00:40 23,7 °C 3,1 °C 41 % 68 % 1016,3 hPa 0,0 l/m² 4,6 km/h (1 Bft) NO 50 ° 0 min 0 W/m² -2,2 °C 3,1 °C 6,4 km/h (2 Bft)
16.03.2020 00:42 23,7 °C 3,2 °C 41 % 67 % 1016,3 hPa 0,0 l/m² 2,9 km/h (1 Bft) NO 48 ° 0 min 0 W/m² -2,3 °C 3,2 °C 4,8 km/h (1 Bft)
16.03.2020 00:44 23,7 °C 3,2 °C 41 % 68 % 1016,4 hPa 0,0 l/m² 2,1 km/h (1 Bft) O 85 ° 0 min 0 W/m² -2,1 °C 3,2 °C 4,8 km/h (1 Bft)
16.03.2020 00:46 23,7 °C 3,1 °C 41 % 69 % 1016,4 hPa 0,0 l/m² 2,2 km/h (1 Bft) O 85 ° 0 min 0 W/m² -2,0 °C 3,1 °C 3,2 km/h (1 Bft)
16.03.2020 00:47 23,7 °C 3,1 °C 41 % 69 % 1016,4 hPa 0,0 l/m² 3,3 km/h (1 Bft) O 80 ° 0 min 0 W/m² -2,0 °C 3,1 °C 4,8 km/h (1 Bft)
16.03.2020 00:49 23,7 °C 2,9 °C 41 % 69 % 1016,3 hPa 0,0 l/m² 4,2 km/h (1 Bft) O 80 ° 0 min 0 W/m² -2,2 °C 2,9 °C 6,4 km/h (2 Bft)
16.03.2020 00:51 23,7 °C 2,8 °C 41 % 70 % 1016,3 hPa 0,0 l/m² 3,9 km/h (1 Bft) O 80 ° 0 min 0 W/m² -2,1 °C 2,8 °C 4,8 km/h (1 Bft)
16.03.2020 00:52 23,7 °C 2,7 °C 41 % 70 % 1016,3 hPa 0,0 l/m² 3,4 km/h (1 Bft) O 80 ° 0 min 0 W/m² -2,2 °C 2,7 °C 4,8 km/h (1 Bft)
16.03.2020 00:53 23,7 °C 2,7 °C 41 % 71 % 1016,4 hPa 0,0 l/m² 3,5 km/h (1 Bft) O 80 ° 0 min 0 W/m² -2,0 °C 2,7 °C 4,8 km/h (1 Bft)
16.03.2020 00:54 23,7 °C 2,6 °C 41 % 71 % 1016,4 hPa 0,0 l/m² 2,5 km/h (1 Bft) O 80 ° 0 min 0 W/m² -2,1 °C 2,6 °C 3,2 km/h (1 Bft)
16.03.2020 00:56 23,7 °C 2,3 °C 41 % 72 % 1016,4 hPa 0,0 l/m² 2,1 km/h (1 Bft) O 80 ° 0 min 0 W/m² -2,2 °C 2,3 °C 3,2 km/h (1 Bft)
16.03.2020 00:58 23,7 °C 2,1 °C 41 % 73 % 1016,4 hPa 0,0 l/m² 1,8 km/h (1 Bft) O 80 ° 0 min 0 W/m² -2,2 °C 2,1 °C 3,2 km/h (1 Bft)
16.03.2020 01:00 23,7 °C 1,9 °C 41 % 75 % 1016,4 hPa 0,0 l/m² 2,3 km/h (1 Bft) O 80 ° 0 min 0 W/m² -2,1 °C 1,9 °C 3,2 km/h (1 Bft)
16.03.2020 01:02 23,7 °C 1,8 °C 41 % 76 % 1016,3 hPa 0,0 l/m² 2,7 km/h (1 Bft) O 80 ° 0 min 0 W/m² -2,0 °C 1,8 °C 3,2 km/h (1 Bft)
16.03.2020 01:04 23,7 °C 1,8 °C 41 % 77 % 1016,4 hPa 0,0 l/m² 2,8 km/h (1 Bft) O 80 ° 0 min 0 W/m² -1,8 °C 1,8 °C 3,2 km/h (1 Bft)
16.03.2020 01:06 23,7 °C 1,7 °C 41 % 78 % 1016,4 hPa 0,0 l/m² 3,2 km/h (1 Bft) O 80 ° 0 min 0 W/m² -1,7 °C 1,7 °C 4,8 km/h (1 Bft)
16.03.2020 01:08 23,7 °C 1,7 °C 41 % 78 % 1016,4 hPa 0,0 l/m² 3,2 km/h (1 Bft) O 80 ° 0 min 0 W/m² -1,7 °C 1,7 °C 4,8 km/h (1 Bft)
16.03.2020 01:10 23,7 °C 1,7 °C 41 % 77 % 1016,3 hPa 0,0 l/m² 3,2 km/h (1 Bft) O 80 ° 0 min 0 W/m² -1,9 °C 1,7 °C 4,8 km/h (1 Bft)
16.03.2020 01:12 23,7 °C 1,7 °C 41 % 76 % 1016,4 hPa 0,0 l/m² 3,7 km/h (1 Bft) O-NO 64 ° 0 min 0 W/m² -2,1 °C 1,7 °C 4,8 km/h (1 Bft)
16.03.2020 01:14 23,7 °C 1,9 °C 41 % 74 % 1016,4 hPa 0,0 l/m² 3,3 km/h (1 Bft) O-NO 64 ° 0 min 0 W/m² -2,2 °C 1,9 °C 4,8 km/h (1 Bft)
16.03.2020 01:16 23,7 °C 2,0 °C 41 % 73 % 1016,4 hPa 0,0 l/m² 2,4 km/h (1 Bft) O-NO 64 ° 0 min 0 W/m² -2,3 °C 2,0 °C 3,2 km/h (1 Bft)
16.03.2020 01:18 23,7 °C 2,0 °C 41 % 73 % 1016,5 hPa 0,0 l/m² 4,1 km/h (1 Bft) O-NO 65 ° 0 min 0 W/m² -2,3 °C 2,0 °C 4,8 km/h (1 Bft)
16.03.2020 01:20 23,7 °C 1,9 °C 41 % 74 % 1016,5 hPa 0,0 l/m² 3,5 km/h (1 Bft) O-NO 65 ° 0 min 0 W/m² -2,2 °C 1,9 °C 4,8 km/h (1 Bft)
16.03.2020 01:22 23,7 °C 1,7 °C 41 % 74 % 1016,5 hPa 0,0 l/m² 3,2 km/h (1 Bft) O-NO 65 ° 0 min 0 W/m² -2,4 °C 1,7 °C 4,8 km/h (1 Bft)
16.03.2020 01:24 23,7 °C 1,7 °C 41 % 75 % 1016,6 hPa 0,0 l/m² 3,7 km/h (1 Bft) O-NO 65 ° 0 min 0 W/m² -2,2 °C 1,7 °C 4,8 km/h (1 Bft)
16.03.2020 01:26 23,7 °C 1,6 °C 42 % 76 % 1016,6 hPa 0,0 l/m² 4,1 km/h (1 Bft) O-NO 69 ° 0 min 0 W/m² -2,2 °C 1,6 °C 4,8 km/h (1 Bft)
16.03.2020 01:28 23,7 °C 1,5 °C 41 % 76 % 1016,5 hPa 0,0 l/m² 3,7 km/h (1 Bft) O-NO 69 ° 0 min 0 W/m² -2,3 °C 1,5 °C 4,8 km/h (1 Bft)
16.03.2020 01:30 23,7 °C 1,5 °C 42 % 77 % 1016,5 hPa 0,0 l/m² 3,2 km/h (1 Bft) O-NO 69 ° 0 min 0 W/m² -2,1 °C 1,5 °C 4,8 km/h (1 Bft)
16.03.2020 01:32 23,7 °C 1,4 °C 42 % 77 % 1016,5 hPa 0,0 l/m² 2,6 km/h (1 Bft) O-NO 69 ° 0 min 0 W/m² -2,2 °C 1,4 °C 3,2 km/h (1 Bft)
16.03.2020 01:34 23,7 °C 1,3 °C 42 % 78 % 1016,5 hPa 0,0 l/m² 2,8 km/h (1 Bft) O-NO 69 ° 0 min 0 W/m² -2,1 °C 1,3 °C 3,2 km/h (1 Bft)
16.03.2020 01:36 23,7 °C 1,2 °C 42 % 78 % 1016,5 hPa 0,0 l/m² 2,8 km/h (1 Bft) O-NO 69 ° 0 min 0 W/m² -2,2 °C 1,2 °C 3,2 km/h (1 Bft)
16.03.2020 01:38 23,7 °C 1,2 °C 42 % 79 % 1016,5 hPa 0,0 l/m² 2,5 km/h (1 Bft) O-NO 69 ° 0 min 0 W/m² -2,0 °C 1,2 °C 3,2 km/h (1 Bft)
16.03.2020 01:40 23,7 °C 1,2 °C 42 % 80 % 1016,5 hPa 0,0 l/m² 2,5 km/h (1 Bft) O-NO 69 ° 0 min 0 W/m² -1,9 °C 1,2 °C 3,2 km/h (1 Bft)
16.03.2020 01:42 23,7 °C 1,2 °C 42 % 80 % 1016,5 hPa 0,0 l/m² 1,3 km/h (1 Bft) O-NO 69 ° 0 min 0 W/m² -1,9 °C 1,2 °C 3,2 km/h (1 Bft)
16.03.2020 01:43 23,7 °C 1,1 °C 42 % 80 % 1016,5 hPa 0,0 l/m² 0,0 km/h (0 Bft) O-NO 69 ° 0 min 0 W/m² -2,0 °C 1,1 °C 0,0 km/h (0 Bft)
16.03.2020 01:45 23,7 °C 1,1 °C 42 % 80 % 1016,5 hPa 0,0 l/m² 1,0 km/h (0 Bft) O-NO 69 ° 0 min 0 W/m² -2,0 °C 1,1 °C 1,6 km/h (1 Bft)
16.03.2020 01:47 23,7 °C 1,1 °C 42 % 81 % 1016,5 hPa 0,0 l/m² 1,2 km/h (1 Bft) O-NO 69 ° 0 min 0 W/m² -1,8 °C 1,1 °C 3,2 km/h (1 Bft)
16.03.2020 01:49 23,7 °C 1,1 °C 42 % 80 % 1016,5 hPa 0,0 l/m² 1,4 km/h (1 Bft) O-NO 69 ° 0 min 0 W/m² -2,0 °C 1,1 °C 3,2 km/h (1 Bft)
16.03.2020 01:51 23,7 °C 1,1 °C 42 % 81 % 1016,5 hPa 0,0 l/m² 1,8 km/h (1 Bft) O-NO 69 ° 0 min 0 W/m² -1,8 °C 1,1 °C 3,2 km/h (1 Bft)
16.03.2020 01:52 23,7 °C 1,0 °C 42 % 81 % 1016,5 hPa 0,0 l/m² 1,5 km/h (1 Bft) O-NO 69 ° 0 min 0 W/m² -1,9 °C 1,0 °C 1,6 km/h (1 Bft)
16.03.2020 01:53 23,7 °C 1,1 °C 42 % 81 % 1016,5 hPa 0,0 l/m² 1,2 km/h (1 Bft) O-NO 69 ° 0 min 0 W/m² -1,8 °C 1,1 °C 1,6 km/h (1 Bft)
16.03.2020 01:54 23,7 °C 1,0 °C 42 % 81 % 1016,5 hPa 0,0 l/m² 1,7 km/h (1 Bft) O-NO 69 ° 0 min 0 W/m² -1,9 °C 1,0 °C 3,2 km/h (1 Bft)
16.03.2020 01:56 23,7 °C 0,9 °C 42 % 81 % 1016,5 hPa 0,0 l/m² 1,4 km/h (1 Bft) O-NO 69 ° 0 min 0 W/m² -2,0 °C 0,9 °C 3,2 km/h (1 Bft)
16.03.2020 01:58 23,7 °C 0,8 °C 42 % 82 % 1016,6 hPa 0,0 l/m² 1,0 km/h (0 Bft) O-NO 69 ° 0 min 0 W/m² -1,9 °C 0,8 °C 1,6 km/h (1 Bft)
16.03.2020 02:00 23,7 °C 0,8 °C 42 % 82 % 1016,5 hPa 0,0 l/m² 0,6 km/h (0 Bft) O-NO 69 ° 0 min 0 W/m² -1,9 °C 0,8 °C 1,6 km/h (1 Bft)
16.03.2020 02:02 23,7 °C 0,8 °C 42 % 82 % 1016,5 hPa 0,0 l/m² 0,5 km/h (0 Bft) O-NO 69 ° 0 min 0 W/m² -1,9 °C 0,8 °C 1,6 km/h (1 Bft)
16.03.2020 02:04 23,7 °C 0,8 °C 42 % 82 % 1016,5 hPa 0,0 l/m² 2,3 km/h (1 Bft) O-NO 69 ° 0 min 0 W/m² -1,9 °C 0,8 °C 3,2 km/h (1 Bft)
16.03.2020 02:06 23,7 °C 0,8 °C 42 % 82 % 1016,5 hPa 0,0 l/m² 0,9 km/h (0 Bft) O-NO 69 ° 0 min 0 W/m² -1,9 °C 0,8 °C 1,6 km/h (1 Bft)
16.03.2020 02:08 23,7 °C 0,7 °C 42 % 82 % 1016,3 hPa 0,0 l/m² 2,3 km/h (1 Bft) O-NO 69 ° 0 min 0 W/m² -2,0 °C 0,7 °C 4,8 km/h (1 Bft)
16.03.2020 02:10 23,7 °C 0,7 °C 42 % 82 % 1016,3 hPa 0,0 l/m² 1,0 km/h (0 Bft) O-NO 69 ° 0 min 0 W/m² -2,0 °C 0,7 °C 3,2 km/h (1 Bft)
16.03.2020 02:12 23,7 °C 0,7 °C 42 % 82 % 1016,3 hPa 0,0 l/m² 0,5 km/h (0 Bft) O-NO 69 ° 0 min 0 W/m² -2,0 °C 0,7 °C 1,6 km/h (1 Bft)
16.03.2020 02:14 23,7 °C 0,8 °C 42 % 81 % 1016,4 hPa 0,0 l/m² 1,8 km/h (1 Bft) O-NO 69 ° 0 min 0 W/m² -2,1 °C 0,8 °C 3,2 km/h (1 Bft)
16.03.2020 02:16 23,7 °C 0,8 °C 42 % 80 % 1016,4 hPa 0,0 l/m² 1,9 km/h (1 Bft) O-NO 69 ° 0 min 0 W/m² -2,2 °C 0,8 °C 3,2 km/h (1 Bft)
16.03.2020 02:18 23,7 °C 1,0 °C 42 % 80 % 1016,4 hPa 0,0 l/m² 2,2 km/h (1 Bft) O-NO 69 ° 0 min 0 W/m² -2,1 °C 1,0 °C 3,2 km/h (1 Bft)
16.03.2020 02:20 23,7 °C 1,2 °C 42 % 78 % 1016,5 hPa 0,0 l/m² 2,3 km/h (1 Bft) O-NO 69 ° 0 min 0 W/m² -2,2 °C 1,2 °C 3,2 km/h (1 Bft)
16.03.2020 02:22 23,7 °C 1,4 °C 42 % 77 % 1016,5 hPa 0,0 l/m² 1,0 km/h (0 Bft) O-NO 69 ° 0 min 0 W/m² -2,2 °C 1,4 °C 1,6 km/h (1 Bft)
16.03.2020 02:24 23,7 °C 1,6 °C 42 % 76 % 1016,4 hPa 0,0 l/m² 0,4 km/h (0 Bft) O-NO 69 ° 0 min 0 W/m² -2,2 °C 1,6 °C 1,6 km/h (1 Bft)
16.03.2020 02:26 23,7 °C 1,7 °C 42 % 76 % 1016,5 hPa 0,0 l/m² 1,2 km/h (1 Bft) O-NO 69 ° 0 min 0 W/m² -2,1 °C 1,7 °C 3,2 km/h (1 Bft)
16.03.2020 02:28 23,7 °C 1,7 °C 42 % 76 % 1016,5 hPa 0,0 l/m² 1,0 km/h (0 Bft) O-NO 69 ° 0 min 0 W/m² -2,1 °C 1,7 °C 3,2 km/h (1 Bft)
16.03.2020 02:30 23,7 °C 1,6 °C 42 % 76 % 1016,5 hPa 0,0 l/m² 3,4 km/h (1 Bft) O-NO 67 ° 0 min 0 W/m² -2,2 °C 1,6 °C 4,8 km/h (1 Bft)
16.03.2020 02:32 23,7 °C 1,4 °C 42 % 76 % 1016,5 hPa 0,0 l/m² 2,4 km/h (1 Bft) O-NO 67 ° 0 min 0 W/m² -2,4 °C 1,4 °C 4,8 km/h (1 Bft)
16.03.2020 02:33 23,7 °C 1,4 °C 42 % 76 % 1016,5 hPa 0,0 l/m² 1,3 km/h (1 Bft) O-NO 67 ° 0 min 0 W/m² -2,4 °C 1,4 °C 3,2 km/h (1 Bft)
16.03.2020 02:35 23,7 °C 1,2 °C 42 % 77 % 1016,5 hPa 0,0 l/m² 3,3 km/h (1 Bft) O-NO 67 ° 0 min 0 W/m² -2,4 °C 1,2 °C 4,8 km/h (1 Bft)
16.03.2020 02:37 23,7 °C 1,2 °C 42 % 77 % 1016,5 hPa 0,0 l/m² 3,6 km/h (1 Bft) O-NO 67 ° 0 min 0 W/m² -2,4 °C 1,2 °C 4,8 km/h (1 Bft)
16.03.2020 02:39 23,7 °C 1,3 °C 42 % 77 % 1016,5 hPa 0,0 l/m² 4,0 km/h (1 Bft) O-NO 67 ° 0 min 0 W/m² -2,3 °C 1,3 °C 4,8 km/h (1 Bft)
16.03.2020 02:41 23,6 °C 1,3 °C 42 % 76 % 1016,5 hPa 0,0 l/m² 4,5 km/h (1 Bft) O-NO 67 ° 0 min 0 W/m² -2,5 °C 1,3 °C 6,4 km/h (2 Bft)
16.03.2020 02:42 23,7 °C 1,4 °C 42 % 76 % 1016,5 hPa 0,0 l/m² 4,0 km/h (1 Bft) O-NO 67 ° 0 min 0 W/m² -2,4 °C 1,4 °C 4,8 km/h (1 Bft)
16.03.2020 02:43 23,7 °C 1,6 °C 42 % 75 % 1016,6 hPa 0,0 l/m² 2,9 km/h (1 Bft) O-NO 67 ° 0 min 0 W/m² -2,3 °C 1,6 °C 4,8 km/h (1 Bft)
16.03.2020 02:44 23,6 °C 1,5 °C 42 % 75 % 1016,5 hPa 0,0 l/m² 2,0 km/h (1 Bft) O-NO 67 ° 0 min 0 W/m² -2,4 °C 1,5 °C 3,2 km/h (1 Bft)
16.03.2020 02:46 23,7 °C 1,5 °C 42 % 75 % 1016,5 hPa 0,0 l/m² 2,5 km/h (1 Bft) O-NO 67 ° 0 min 0 W/m² -2,4 °C 1,5 °C 3,2 km/h (1 Bft)
16.03.2020 02:48 23,7 °C 1,4 °C 42 % 75 % 1016,5 hPa 0,0 l/m² 0,8 km/h (0 Bft) O-NO 67 ° 0 min 0 W/m² -2,5 °C 1,4 °C 3,2 km/h (1 Bft)
16.03.2020 02:50 23,6 °C 1,3 °C 42 % 76 % 1016,6 hPa 0,0 l/m² 1,3 km/h (1 Bft) O-NO 67 ° 0 min 0 W/m² -2,5 °C 1,3 °C 3,2 km/h (1 Bft)
16.03.2020 02:52 23,6 °C 1,1 °C 42 % 76 % 1016,6 hPa 0,0 l/m² 1,6 km/h (1 Bft) O-NO 67 ° 0 min 0 W/m² -2,6 °C 1,1 °C 3,2 km/h (1 Bft)
16.03.2020 02:54 23,6 °C 1,0 °C 42 % 77 % 1016,5 hPa 0,0 l/m² 0,9 km/h (0 Bft) O-NO 67 ° 0 min 0 W/m² -2,6 °C 1,0 °C 3,2 km/h (1 Bft)
16.03.2020 02:56 23,6 °C 0,9 °C 42 % 78 % 1016,5 hPa 0,0 l/m² 1,5 km/h (1 Bft) O-NO 67 ° 0 min 0 W/m² -2,5 °C 0,9 °C 4,8 km/h (1 Bft)
16.03.2020 02:58 23,6 °C 0,8 °C 42 % 78 % 1016,5 hPa 0,0 l/m² 1,4 km/h (1 Bft) O-NO 67 ° 0 min 0 W/m² -2,6 °C 0,8 °C 3,2 km/h (1 Bft)
16.03.2020 03:00 23,6 °C 0,8 °C 42 % 78 % 1016,5 hPa 0,0 l/m² 1,0 km/h (0 Bft) O-NO 67 ° 0 min 0 W/m² -2,6 °C 0,8 °C 3,2 km/h (1 Bft)
16.03.2020 03:01 23,6 °C 0,7 °C 42 % 78 % 1016,5 hPa 0,0 l/m² 0,0 km/h (0 Bft) O-NO 67 ° 0 min 0 W/m² -2,7 °C 0,7 °C 3,2 km/h (1 Bft)
16.03.2020 03:06 23,6 °C 0,7 °C 42 % 79 % 1016,5 hPa 0,0 l/m² 0,0 km/h (0 Bft) O-NO 67 ° 0 min 0 W/m² -2,5 °C 0,7 °C 0,0 km/h (0 Bft)
16.03.2020 03:08 23,6 °C 0,7 °C 42 % 79 % 1016,5 hPa 0,0 l/m² 1,6 km/h (1 Bft) O-NO 67 ° 0 min 0 W/m² -2,5 °C 0,7 °C 3,2 km/h (1 Bft)
16.03.2020 03:09 23,6 °C 0,7 °C 42 % 79 % 1016,6 hPa 0,0 l/m² 0,0 km/h (0 Bft) O-NO 67 ° 0 min 0 W/m² -2,5 °C 0,7 °C 0,0 km/h (0 Bft)
16.03.2020 03:11 23,6 °C 0,6 °C 42 % 79 % 1016,6 hPa 0,0 l/m² 1,3 km/h (1 Bft) O-NO 67 ° 0 min 0 W/m² -2,6 °C 0,6 °C 3,2 km/h (1 Bft)
16.03.2020 03:13 23,6 °C 0,6 °C 42 % 79 % 1016,6 hPa 0,0 l/m² 1,3 km/h (1 Bft) O-NO 67 ° 0 min 0 W/m² -2,6 °C 0,6 °C 3,2 km/h (1 Bft)
16.03.2020 03:15 23,6 °C 0,6 °C 42 % 79 % 1016,6 hPa 0,0 l/m² 1,0 km/h (0 Bft) O-NO 67 ° 0 min 0 W/m² -2,6 °C 0,6 °C 3,2 km/h (1 Bft)
16.03.2020 03:16 23,6 °C 0,6 °C 42 % 79 % 1016,5 hPa 0,0 l/m² 2,5 km/h (1 Bft) O-NO 67 ° 0 min 0 W/m² -2,6 °C 0,6 °C 4,8 km/h (1 Bft)
16.03.2020 03:18 23,6 °C 0,4 °C 42 % 78 % 1016,6 hPa 0,0 l/m² 1,5 km/h (1 Bft) O-NO 67 ° 0 min 0 W/m² -3,0 °C 0,4 °C 3,2 km/h (1 Bft)
16.03.2020 03:19 23,6 °C 0,4 °C 42 % 78 % 1016,5 hPa 0,0 l/m² 0,2 km/h (0 Bft) O-NO 67 ° 0 min 0 W/m² -3,0 °C 0,4 °C 1,6 km/h (1 Bft)
16.03.2020 03:21 23,6 °C 0,3 °C 42 % 80 % 1016,5 hPa 0,0 l/m² 0,5 km/h (0 Bft) O-NO 67 ° 0 min 0 W/m² -2,7 °C 0,3 °C 1,6 km/h (1 Bft)
16.03.2020 03:23 23,6 °C 0,2 °C 42 % 80 % 1016,5 hPa 0,0 l/m² 0,1 km/h (0 Bft) O-NO 67 ° 0 min 0 W/m² -2,8 °C 0,2 °C 1,6 km/h (1 Bft)
16.03.2020 03:25 23,6 °C 0,2 °C 42 % 80 % 1016,5 hPa 0,0 l/m² 1,8 km/h (1 Bft) O-NO 67 ° 0 min 0 W/m² -2,8 °C 0,2 °C 3,2 km/h (1 Bft)
16.03.2020 03:26 23,6 °C 0,2 °C 42 % 80 % 1016,5 hPa 0,0 l/m² 1,6 km/h (1 Bft) O-NO 67 ° 0 min 0 W/m² -2,8 °C 0,2 °C 3,2 km/h (1 Bft)
16.03.2020 03:28 23,6 °C 0,2 °C 42 % 80 % 1016,5 hPa 0,0 l/m² 1,2 km/h (1 Bft) O-NO 67 ° 0 min 0 W/m² -2,8 °C 0,2 °C 3,2 km/h (1 Bft)
16.03.2020 03:29 23,6 °C 0,1 °C 42 % 80 % 1016,5 hPa 0,0 l/m² 0,1 km/h (0 Bft) O-NO 67 ° 0 min 0 W/m² -2,9 °C 0,1 °C 1,6 km/h (1 Bft)
16.03.2020 03:31 23,6 °C 0,2 °C 42 % 81 % 1016,5 hPa 0,0 l/m² 0,1 km/h (0 Bft) O-NO 67 ° 0 min 0 W/m² -2,7 °C 0,2 °C 1,6 km/h (1 Bft)
16.03.2020 03:33 23,6 °C 0,2 °C 42 % 81 % 1016,5 hPa 0,0 l/m² 0,0 km/h (0 Bft) O-NO 67 ° 0 min 0 W/m² -2,7 °C 0,2 °C 0,0 km/h (0 Bft)
16.03.2020 03:35 23,6 °C 0,2 °C 42 % 80 % 1016,5 hPa 0,0 l/m² 0,2 km/h (0 Bft) O-NO 67 ° 0 min 0 W/m² -2,8 °C 0,2 °C 1,6 km/h (1 Bft)
16.03.2020 03:37 23,6 °C 0,1 °C 42 % 80 % 1016,4 hPa 0,0 l/m² 1,6 km/h (1 Bft) O-NO 67 ° 0 min 0 W/m² -2,9 °C 0,1 °C 3,2 km/h (1 Bft)
16.03.2020 03:38 23,6 °C 0,1 °C 42 % 80 % 1016,5 hPa 0,0 l/m² 2,2 km/h (1 Bft) O-NO 67 ° 0 min 0 W/m² -2,9 °C 0,1 °C 3,2 km/h (1 Bft)
16.03.2020 03:40 23,6 °C -0,1 °C 42 % 80 % 1016,5 hPa 0,0 l/m² 0,6 km/h (0 Bft) O-NO 67 ° 0 min 0 W/m² -3,1 °C -0,1 °C 3,2 km/h (1 Bft)
16.03.2020 03:41 23,6 °C -0,2 °C 42 % 80 % 1016,5 hPa 0,0 l/m² 0,5 km/h (0 Bft) O-NO 67 ° 0 min 0 W/m² -3,2 °C -0,2 °C 1,6 km/h (1 Bft)
16.03.2020 03:42 23,6 °C -0,2 °C 42 % 80 % 1016,5 hPa 0,0 l/m² 0,7 km/h (0 Bft) O-NO 67 ° 0 min 0 W/m² -3,2 °C -0,2 °C 1,6 km/h (1 Bft)
16.03.2020 03:43 23,6 °C -0,2 °C 42 % 81 % 1016,5 hPa 0,0 l/m² 0,0 km/h (0 Bft) O-NO 67 ° 0 min 0 W/m² -3,1 °C -0,2 °C 0,0 km/h (0 Bft)
16.03.2020 03:45 23,6 °C -0,3 °C 42 % 82 % 1016,4 hPa 0,0 l/m² 0,0 km/h (0 Bft) O-NO 67 ° 0 min 0 W/m² -3,0 °C -0,3 °C 0,0 km/h (0 Bft)
16.03.2020 03:47 23,6 °C -0,3 °C 42 % 83 % 1016,5 hPa 0,0 l/m² 0,0 km/h (0 Bft) O-NO 67 ° 0 min 0 W/m² -2,8 °C -0,3 °C 0,0 km/h (0 Bft)
16.03.2020 03:49 23,6 °C -0,2 °C 42 % 83 % 1016,5 hPa 0,0 l/m² 0,0 km/h (0 Bft) O-NO 67 ° 0 min 0 W/m² -2,7 °C -0,2 °C 0,0 km/h (0 Bft)
16.03.2020 03:50 23,6 °C -0,2 °C 42 % 84 % 1016,5 hPa 0,0 l/m² 0,0 km/h (0 Bft) O-NO 67 ° 0 min 0 W/m² -2,6 °C -0,2 °C 0,0 km/h (0 Bft)
16.03.2020 03:51 23,6 °C -0,2 °C 42 % 84 % 1016,5 hPa 0,0 l/m² 0,0 km/h (0 Bft) O-NO 67 ° 0 min 0 W/m² -2,6 °C -0,2 °C 0,0 km/h (0 Bft)
16.03.2020 03:52 23,6 °C -0,2 °C 42 % 84 % 1016,5 hPa 0,0 l/m² 0,1 km/h (0 Bft) O-NO 67 ° 0 min 0 W/m² -2,6 °C -0,2 °C 1,6 km/h (1 Bft)
16.03.2020 03:54 23,6 °C -0,2 °C 42 % 84 % 1016,5 hPa 0,0 l/m² 0,0 km/h (0 Bft) O-NO 67 ° 0 min 0 W/m² -2,6 °C -0,2 °C 0,0 km/h (0 Bft)
16.03.2020 03:56 23,6 °C -0,2 °C 42 % 84 % 1016,5 hPa 0,0 l/m² 0,0 km/h (0 Bft) O-NO 67 ° 0 min 0 W/m² -2,6 °C -0,2 °C 1,6 km/h (1 Bft)
16.03.2020 03:58 23,6 °C -0,2 °C 42 % 83 % 1016,6 hPa 0,0 l/m² 0,0 km/h (0 Bft) O-NO 67 ° 0 min 0 W/m² -2,7 °C -0,2 °C 0,0 km/h (0 Bft)
16.03.2020 03:59 23,6 °C -0,2 °C 42 % 83 % 1016,5 hPa 0,0 l/m² 0,0 km/h (0 Bft) O-NO 67 ° 0 min 0 W/m² -2,7 °C -0,2 °C 0,0 km/h (0 Bft)
16.03.2020 04:01 23,6 °C -0,2 °C 42 % 83 % 1016,6 hPa 0,0 l/m² 0,0 km/h (0 Bft) O-NO 67 ° 0 min 0 W/m² -2,7 °C -0,2 °C 0,0 km/h (0 Bft)
16.03.2020 04:03 23,6 °C -0,2 °C 42 % 83 % 1016,6 hPa 0,0 l/m² 0,1 km/h (0 Bft) O-NO 67 ° 0 min 0 W/m² -2,7 °C -0,2 °C 1,6 km/h (1 Bft)
16.03.2020 04:05 23,6 °C -0,2 °C 42 % 84 % 1016,5 hPa 0,0 l/m² 0,9 km/h (0 Bft) O-NO 67 ° 0 min 0 W/m² -2,6 °C -0,2 °C 1,6 km/h (1 Bft)
16.03.2020 04:07 23,6 °C -0,2 °C 42 % 84 % 1016,6 hPa 0,0 l/m² 0,8 km/h (0 Bft) O-NO 67 ° 0 min 0 W/m² -2,6 °C -0,2 °C 1,6 km/h (1 Bft)
16.03.2020 04:08 23,6 °C -0,2 °C 42 % 84 % 1016,6 hPa 0,0 l/m² 0,4 km/h (0 Bft) O-NO 67 ° 0 min 0 W/m² -2,6 °C -0,2 °C 1,6 km/h (1 Bft)
16.03.2020 04:10 23,6 °C -0,2 °C 42 % 84 % 1016,6 hPa 0,0 l/m² 0,0 km/h (0 Bft) O-NO 67 ° 0 min 0 W/m² -2,6 °C -0,2 °C 0,0 km/h (0 Bft)
16.03.2020 04:11 23,6 °C -0,2 °C 42 % 84 % 1016,5 hPa 0,0 l/m² 0,0 km/h (0 Bft) O-NO 67 ° 0 min 0 W/m² -2,6 °C -0,2 °C 0,0 km/h (0 Bft)
16.03.2020 04:12 23,6 °C -0,1 °C 42 % 84 % 1016,6 hPa 0,0 l/m² 0,0 km/h (0 Bft) O-NO 67 ° 0 min 0 W/m² -2,5 °C -0,1 °C 0,0 km/h (0 Bft)
16.03.2020 04:13 23,6 °C -0,2 °C 42 % 83 % 1016,5 hPa 0,0 l/m² 0,0 km/h (0 Bft) O-NO 67 ° 0 min 0 W/m² -2,7 °C -0,2 °C 0,0 km/h (0 Bft)
16.03.2020 04:15 23,6 °C -0,2 °C 42 % 83 % 1016,6 hPa 0,0 l/m² 0,0 km/h (0 Bft) O-NO 67 ° 0 min 0 W/m² -2,7 °C -0,2 °C 0,0 km/h (0 Bft)
16.03.2020 04:16 23,6 °C -0,2 °C 42 % 83 % 1016,6 hPa 0,0 l/m² 0,0 km/h (0 Bft) O-NO 67 ° 0 min 0 W/m² -2,7 °C -0,2 °C 0,0 km/h (0 Bft)
16.03.2020 04:18 23,6 °C -0,2 °C 42 % 83 % 1016,6 hPa 0,0 l/m² 0,0 km/h (0 Bft) O-NO 67 ° 0 min 0 W/m² -2,7 °C -0,2 °C 0,0 km/h (0 Bft)
16.03.2020 04:20 23,6 °C -0,2 °C 42 % 83 % 1016,6 hPa 0,0 l/m² 0,0 km/h (0 Bft) O-NO 67 ° 0 min 0 W/m² -2,7 °C -0,2 °C 0,0 km/h (0 Bft)
16.03.2020 04:21 23,6 °C -0,2 °C 42 % 83 % 1016,6 hPa 0,0 l/m² 0,0 km/h (0 Bft) O-NO 67 ° 0 min 0 W/m² -2,7 °C -0,2 °C 0,0 km/h (0 Bft)
16.03.2020 04:22 23,6 °C -0,2 °C 42 % 83 % 1016,5 hPa 0,0 l/m² 0,0 km/h (0 Bft) O-NO 67 ° 0 min 0 W/m² -2,7 °C -0,2 °C 0,0 km/h (0 Bft)
16.03.2020 04:23 23,6 °C -0,2 °C 42 % 83 % 1016,5 hPa 0,0 l/m² 0,0 km/h (0 Bft) O-NO 67 ° 0 min 0 W/m² -2,7 °C -0,2 °C 0,0 km/h (0 Bft)
16.03.2020 04:25 23,6 °C -0,2 °C 42 % 83 % 1016,6 hPa 0,0 l/m² 0,0 km/h (0 Bft) O-NO 67 ° 0 min 0 W/m² -2,7 °C -0,2 °C 0,0 km/h (0 Bft)
16.03.2020 04:26 23,6 °C -0,2 °C 42 % 83 % 1016,5 hPa 0,0 l/m² 0,0 km/h (0 Bft) O-NO 67 ° 0 min 0 W/m² -2,7 °C -0,2 °C 0,0 km/h (0 Bft)
16.03.2020 04:28 23,6 °C -0,2 °C 42 % 83 % 1016,6 hPa 0,0 l/m² 0,0 km/h (0 Bft) O-NO 67 ° 0 min 0 W/m² -2,7 °C -0,2 °C 0,0 km/h (0 Bft)
16.03.2020 04:29 23,6 °C -0,3 °C 42 % 82 % 1016,6 hPa 0,0 l/m² 0,0 km/h (0 Bft) O-NO 67 ° 0 min 0 W/m² -3,0 °C -0,3 °C 0,0 km/h (0 Bft)
16.03.2020 04:31 23,6 °C -0,3 °C 42 % 82 % 1016,6 hPa 0,0 l/m² 0,0 km/h (0 Bft) O-NO 67 ° 0 min 0 W/m² -3,0 °C -0,3 °C 0,0 km/h (0 Bft)
16.03.2020 04:33 23,6 °C -0,4 °C 42 % 83 % 1016,6 hPa 0,0 l/m² 0,0 km/h (0 Bft) O-NO 67 ° 0 min 0 W/m² -2,9 °C -0,4 °C 0,0 km/h (0 Bft)
16.03.2020 04:35 23,6 °C -0,3 °C 42 % 83 % 1016,5 hPa 0,0 l/m² 0,0 km/h (0 Bft) O-NO 67 ° 0 min 0 W/m² -2,8 °C -0,3 °C 0,0 km/h (0 Bft)
16.03.2020 04:36 23,6 °C -0,4 °C 42 % 83 % 1016,6 hPa 0,0 l/m² 0,0 km/h (0 Bft) O-NO 67 ° 0 min 0 W/m² -2,9 °C -0,4 °C 0,0 km/h (0 Bft)
16.03.2020 04:38 23,6 °C -0,4 °C 42 % 83 % 1016,5 hPa 0,0 l/m² 0,0 km/h (0 Bft) O-NO 67 ° 0 min 0 W/m² -2,9 °C -0,4 °C 0,0 km/h (0 Bft)
16.03.2020 04:39 23,6 °C -0,4 °C 42 % 83 % 1016,5 hPa 0,0 l/m² 0,1 km/h (0 Bft) O-NO 67 ° 0 min 0 W/m² -2,9 °C -0,4 °C 1,6 km/h (1 Bft)
16.03.2020 04:41 23,6 °C -0,4 °C 42 % 83 % 1016,6 hPa 0,0 l/m² 0,0 km/h (0 Bft) O-NO 67 ° 0 min 0 W/m² -2,9 °C -0,4 °C 0,0 km/h (0 Bft)
16.03.2020 04:43 23,6 °C -0,4 °C 42 % 83 % 1016,6 hPa 0,0 l/m² 0,3 km/h (0 Bft) O-NO 67 ° 0 min 0 W/m² -2,9 °C -0,4 °C 1,6 km/h (1 Bft)
16.03.2020 04:45 23,6 °C -0,4 °C 42 % 83 % 1016,6 hPa 0,0 l/m² 1,2 km/h (1 Bft) O-NO 67 ° 0 min 0 W/m² -2,9 °C -0,4 °C 1,6 km/h (1 Bft)
16.03.2020 04:46 23,6 °C -0,4 °C 42 % 83 % 1016,5 hPa 0,0 l/m² 0,9 km/h (0 Bft) O-NO 67 ° 0 min 0 W/m² -2,9 °C -0,4 °C 1,6 km/h (1 Bft)
16.03.2020 04:48 23,6 °C -0,4 °C 42 % 83 % 1016,5 hPa 0,0 l/m² 0,6 km/h (0 Bft) O-NO 67 ° 0 min 0 W/m² -2,9 °C -0,4 °C 1,6 km/h (1 Bft)
16.03.2020 04:49 23,6 °C -0,4 °C 42 % 83 % 1016,5 hPa 0,0 l/m² 0,6 km/h (0 Bft) O-NO 67 ° 0 min 0 W/m² -2,9 °C -0,4 °C 1,6 km/h (1 Bft)
16.03.2020 04:51 23,6 °C -0,4 °C 42 % 83 % 1016,5 hPa 0,0 l/m² 2,0 km/h (1 Bft) O-NO 67 ° 0 min 0 W/m² -2,9 °C -0,4 °C 3,2 km/h (1 Bft)
16.03.2020 04:53 23,6 °C -0,4 °C 42 % 83 % 1016,4 hPa 0,0 l/m² 3,0 km/h (1 Bft) O-NO 67 ° 0 min 0 W/m² -2,9 °C -0,4 °C 3,2 km/h (1 Bft)
16.03.2020 04:55 23,6 °C -0,4 °C 42 % 83 % 1016,4 hPa 0,0 l/m² 2,1 km/h (1 Bft) O-NO 67 ° 0 min 0 W/m² -2,9 °C -0,4 °C 3,2 km/h (1 Bft)
16.03.2020 04:57 23,6 °C -0,4 °C 42 % 84 % 1016,4 hPa 0,0 l/m² 1,9 km/h (1 Bft) O-NO 67 ° 0 min 0 W/m² -2,8 °C -0,4 °C 3,2 km/h (1 Bft)
16.03.2020 04:58 23,6 °C -0,4 °C 42 % 84 % 1016,4 hPa 0,0 l/m² 0,8 km/h (0 Bft) O-NO 67 ° 0 min 0 W/m² -2,8 °C -0,4 °C 1,6 km/h (1 Bft)
16.03.2020 05:00 23,6 °C -0,3 °C 42 % 84 % 1016,4 hPa 0,0 l/m² 0,9 km/h (0 Bft) O-NO 67 ° 0 min 0 W/m² -2,7 °C -0,3 °C 1,6 km/h (1 Bft)
16.03.2020 05:01 23,6 °C -0,3 °C 42 % 84 % 1016,5 hPa 0,0 l/m² 0,7 km/h (0 Bft) O-NO 67 ° 0 min 0 W/m² -2,7 °C -0,3 °C 1,6 km/h (1 Bft)
16.03.2020 05:02 23,6 °C -0,3 °C 42 % 84 % 1016,5 hPa 0,0 l/m² 0,5 km/h (0 Bft) O-NO 67 ° 0 min 0 W/m² -2,7 °C -0,3 °C 1,6 km/h (1 Bft)
16.03.2020 05:03 23,6 °C -0,3 °C 42 % 84 % 1016,5 hPa 0,0 l/m² 0,2 km/h (0 Bft) O-NO 67 ° 0 min 0 W/m² -2,7 °C -0,3 °C 1,6 km/h (1 Bft)
16.03.2020 05:04 23,6 °C -0,3 °C 42 % 84 % 1016,4 hPa 0,0 l/m² 0,0 km/h (0 Bft) O-NO 67 ° 0 min 0 W/m² -2,7 °C -0,3 °C 0,0 km/h (0 Bft)
16.03.2020 05:06 23,6 °C -0,2 °C 42 % 85 % 1016,4 hPa 0,0 l/m² 0,8 km/h (0 Bft) O-NO 67 ° 0 min 0 W/m² -2,4 °C -0,2 °C 1,6 km/h (1 Bft)
16.03.2020 05:08 23,6 °C -0,2 °C 42 % 85 % 1016,4 hPa 0,0 l/m² 0,9 km/h (0 Bft) O-NO 67 ° 0 min 0 W/m² -2,4 °C -0,2 °C 1,6 km/h (1 Bft)
16.03.2020 05:10 23,6 °C -0,2 °C 42 % 85 % 1016,4 hPa 0,0 l/m² 0,2 km/h (0 Bft) O-NO 67 ° 0 min 0 W/m² -2,4 °C -0,2 °C 1,6 km/h (1 Bft)
16.03.2020 05:11 23,6 °C -0,2 °C 42 % 85 % 1016,4 hPa 0,0 l/m² 0,0 km/h (0 Bft) O-NO 67 ° 0 min 0 W/m² -2,4 °C -0,2 °C 0,0 km/h (0 Bft)
16.03.2020 05:12 23,6 °C -0,2 °C 42 % 85 % 1016,4 hPa 0,0 l/m² 0,0 km/h (0 Bft) O-NO 67 ° 0 min 0 W/m² -2,4 °C -0,2 °C 0,0 km/h (0 Bft)
16.03.2020 05:13 23,6 °C -0,2 °C 42 % 85 % 1016,4 hPa 0,0 l/m² 0,0 km/h (0 Bft) O-NO 67 ° 0 min 0 W/m² -2,4 °C -0,2 °C 0,0 km/h (0 Bft)
16.03.2020 05:15 23,6 °C -0,3 °C 42 % 85 % 1016,5 hPa 0,0 l/m² 0,0 km/h (0 Bft) O-NO 67 ° 0 min 0 W/m² -2,5 °C -0,3 °C 0,0 km/h (0 Bft)
16.03.2020 05:16 23,6 °C -0,3 °C 42 % 85 % 1016,5 hPa 0,0 l/m² 0,0 km/h (0 Bft) O-NO 67 ° 0 min 0 W/m² -2,5 °C -0,3 °C 0,0 km/h (0 Bft)
16.03.2020 05:18 23,6 °C -0,3 °C 42 % 84 % 1016,5 hPa 0,0 l/m² 1,8 km/h (1 Bft) O-NO 67 ° 0 min 0 W/m² -2,7 °C -0,3 °C 3,2 km/h (1 Bft)
16.03.2020 05:20 23,6 °C -0,4 °C 42 % 84 % 1016,4 hPa 0,0 l/m² 1,3 km/h (1 Bft) O-NO 67 ° 0 min 0 W/m² -2,8 °C -0,4 °C 1,6 km/h (1 Bft)
16.03.2020 05:21 23,6 °C -0,4 °C 42 % 84 % 1016,5 hPa 0,0 l/m² 1,3 km/h (1 Bft) O-NO 67 ° 0 min 0 W/m² -2,8 °C -0,4 °C 1,6 km/h (1 Bft)
16.03.2020 05:22 23,6 °C -0,4 °C 42 % 84 % 1016,5 hPa 0,0 l/m² 1,1 km/h (1 Bft) O-NO 67 ° 0 min 0 W/m² -2,8 °C -0,4 °C 1,6 km/h (1 Bft)
16.03.2020 05:23 23,6 °C -0,4 °C 42 % 84 % 1016,5 hPa 0,0 l/m² 1,0 km/h (0 Bft) O-NO 67 ° 0 min 0 W/m² -2,8 °C -0,4 °C 1,6 km/h (1 Bft)
16.03.2020 05:25 23,6 °C -0,4 °C 42 % 84 % 1016,5 hPa 0,0 l/m² 0,0 km/h (0 Bft) O-NO 67 ° 0 min 0 W/m² -2,8 °C -0,4 °C 1,6 km/h (1 Bft)
16.03.2020 05:26 23,6 °C -0,5 °C 42 % 84 % 1016,6 hPa 0,0 l/m² 0,4 km/h (0 Bft) O-NO 67 ° 0 min 0 W/m² -2,9 °C -0,5 °C 1,6 km/h (1 Bft)
16.03.2020 05:28 23,6 °C -0,4 °C 42 % 84 % 1016,7 hPa 0,0 l/m² 0,4 km/h (0 Bft) O-NO 67 ° 0 min 0 W/m² -2,8 °C -0,4 °C 1,6 km/h (1 Bft)
16.03.2020 05:30 23,6 °C -0,4 °C 42 % 85 % 1016,6 hPa 0,0 l/m² 1,0 km/h (0 Bft) O-NO 67 ° 0 min 0 W/m² -2,6 °C -0,4 °C 1,6 km/h (1 Bft)
16.03.2020 05:31 23,6 °C -0,4 °C 42 % 85 % 1016,7 hPa 0,0 l/m² 0,0 km/h (0 Bft) O-NO 67 ° 0 min 0 W/m² -2,6 °C -0,4 °C 0,0 km/h (0 Bft)
16.03.2020 05:32 23,6 °C -0,4 °C 42 % 85 % 1016,7 hPa 0,0 l/m² 0,0 km/h (0 Bft) O-NO 67 ° 0 min 0 W/m² -2,6 °C -0,4 °C 0,0 km/h (0 Bft)
16.03.2020 05:33 23,6 °C -0,4 °C 42 % 84 % 1016,7 hPa 0,0 l/m² 0,0 km/h (0 Bft) O-NO 67 ° 0 min 0 W/m² -2,8 °C -0,4 °C 0,0 km/h (0 Bft)
16.03.2020 05:35 23,6 °C -0,5 °C 42 % 84 % 1016,8 hPa 0,0 l/m² 0,0 km/h (0 Bft) O-NO 67 ° 0 min 0 W/m² -2,9 °C -0,5 °C 0,0 km/h (0 Bft)
16.03.2020 05:36 23,6 °C -0,5 °C 42 % 84 % 1016,6 hPa 0,0 l/m² 0,0 km/h (0 Bft) O-NO 67 ° 0 min 0 W/m² -2,9 °C -0,5 °C 0,0 km/h (0 Bft)
16.03.2020 05:38 23,6 °C -0,5 °C 42 % 84 % 1016,7 hPa 0,0 l/m² 0,0 km/h (0 Bft) O-NO 67 ° 0 min 0 W/m² -2,9 °C -0,5 °C 0,0 km/h (0 Bft)
16.03.2020 05:39 23,6 °C -0,6 °C 42 % 84 % 1016,7 hPa 0,0 l/m² 0,0 km/h (0 Bft) O-NO 67 ° 0 min 0 W/m² -3,0 °C -0,6 °C 0,0 km/h (0 Bft)
16.03.2020 05:41 23,6 °C -0,6 °C 42 % 84 % 1016,8 hPa 0,0 l/m² 0,0 km/h (0 Bft) O-NO 67 ° 0 min 0 W/m² -3,0 °C -0,6 °C 0,0 km/h (0 Bft)
16.03.2020 05:43 23,6 °C -0,6 °C 42 % 84 % 1016,9 hPa 0,0 l/m² 0,1 km/h (0 Bft) O-NO 67 ° 0 min 0 W/m² -3,0 °C -0,6 °C 1,6 km/h (1 Bft)
16.03.2020 05:45 23,6 °C -0,6 °C 42 % 84 % 1017,0 hPa 0,0 l/m² 0,3 km/h (0 Bft) O-NO 67 ° 0 min 0 W/m² -3,0 °C -0,6 °C 1,6 km/h (1 Bft)
16.03.2020 05:46 23,6 °C -0,7 °C 42 % 84 % 1017,0 hPa 0,0 l/m² 0,4 km/h (0 Bft) O-NO 67 ° 0 min 0 W/m² -3,1 °C -0,7 °C 1,6 km/h (1 Bft)
16.03.2020 05:48 23,6 °C -0,7 °C 42 % 84 % 1017,0 hPa 0,0 l/m² 1,7 km/h (1 Bft) O-NO 67 ° 0 min 0 W/m² -3,1 °C -0,7 °C 3,2 km/h (1 Bft)
16.03.2020 05:50 23,6 °C -0,8 °C 42 % 84 % 1017,0 hPa 0,0 l/m² 1,1 km/h (1 Bft) O-NO 67 ° 0 min 0 W/m² -3,2 °C -0,8 °C 3,2 km/h (1 Bft)
16.03.2020 05:51 23,6 °C -0,8 °C 42 % 84 % 1017,1 hPa 0,0 l/m² 0,7 km/h (0 Bft) O-NO 67 ° 0 min 0 W/m² -3,2 °C -0,8 °C 1,6 km/h (1 Bft)
16.03.2020 05:52 23,6 °C -0,8 °C 42 % 84 % 1017,0 hPa 0,0 l/m² 1,1 km/h (1 Bft) O-NO 67 ° 0 min 0 W/m² -3,2 °C -0,8 °C 1,6 km/h (1 Bft)
16.03.2020 05:53 23,6 °C -0,8 °C 42 % 84 % 1017,0 hPa 0,0 l/m² 1,1 km/h (1 Bft) O-NO 67 ° 0 min 0 W/m² -3,2 °C -0,8 °C 1,6 km/h (1 Bft)
16.03.2020 05:55 23,6 °C -1,0 °C 42 % 84 % 1017,1 hPa 0,0 l/m² 1,1 km/h (1 Bft) O-NO 67 ° 0 min 0 W/m² -3,4 °C -1,0 °C 1,6 km/h (1 Bft)
16.03.2020 05:57 23,5 °C -1,1 °C 42 % 84 % 1017,0 hPa 0,0 l/m² 0,5 km/h (0 Bft) O-NO 67 ° 0 min 0 W/m² -3,4 °C -1,1 °C 1,6 km/h (1 Bft)
16.03.2020 05:59 23,6 °C -1,1 °C 42 % 84 % 1017,0 hPa 0,0 l/m² 0,0 km/h (0 Bft) O-NO 67 ° 0 min 0 W/m² -3,4 °C -1,1 °C 0,0 km/h (0 Bft)
16.03.2020 06:00 23,6 °C -1,1 °C 42 % 84 % 1017,0 hPa 0,0 l/m² 0,8 km/h (0 Bft) O-NO 67 ° 0 min 0 W/m² -3,4 °C -1,1 °C 1,6 km/h (1 Bft)
16.03.2020 06:01 23,6 °C -1,2 °C 42 % 84 % 1017,0 hPa 0,0 l/m² 0,3 km/h (0 Bft) O-NO 67 ° 0 min 0 W/m² -3,5 °C -1,2 °C 1,6 km/h (1 Bft)
16.03.2020 06:04 23,6 °C -1,2 °C 42 % 85 % 1016,9 hPa 0,0 l/m² 0,3 km/h (0 Bft) O-NO 67 ° 0 min 0 W/m² -3,4 °C -1,2 °C 1,6 km/h (1 Bft)
16.03.2020 06:06 23,6 °C -1,2 °C 42 % 85 % 1016,9 hPa 0,0 l/m² 0,8 km/h (0 Bft) O-NO 67 ° 0 min 0 W/m² -3,4 °C -1,2 °C 1,6 km/h (1 Bft)
16.03.2020 06:08 23,6 °C -1,2 °C 42 % 86 % 1017,1 hPa 0,0 l/m² 0,0 km/h (0 Bft) O-NO 67 ° 0 min 0 W/m² -3,2 °C -1,2 °C 0,0 km/h (0 Bft)
16.03.2020 06:10 23,6 °C -1,2 °C 42 % 86 % 1017,0 hPa 0,0 l/m² 0,0 km/h (0 Bft) O-NO 67 ° 0 min 0 W/m² -3,2 °C -1,2 °C 0,0 km/h (0 Bft)
16.03.2020 06:11 23,5 °C -1,1 °C 42 % 86 % 1017,0 hPa 0,0 l/m² 0,0 km/h (0 Bft) O-NO 67 ° 0 min 0 W/m² -3,1 °C -1,1 °C 0,0 km/h (0 Bft)
16.03.2020 06:12 23,6 °C -1,1 °C 42 % 86 % 1017,0 hPa 0,0 l/m² 0,0 km/h (0 Bft) O-NO 67 ° 0 min 0 W/m² -3,1 °C -1,1 °C 0,0 km/h (0 Bft)
16.03.2020 06:13 23,6 °C -1,1 °C 42 % 86 % 1017,0 hPa 0,0 l/m² 0,1 km/h (0 Bft) O-NO 67 ° 0 min 0 W/m² -3,1 °C -1,1 °C 1,6 km/h (1 Bft)
16.03.2020 06:15 23,5 °C -1,1 °C 42 % 86 % 1017,0 hPa 0,0 l/m² 1,4 km/h (1 Bft) O-NO 67 ° 0 min 0 W/m² -3,1 °C -1,1 °C 3,2 km/h (1 Bft)
16.03.2020 06:17 23,5 °C -1,1 °C 42 % 86 % 1017,0 hPa 0,0 l/m² 1,7 km/h (1 Bft) O-NO 67 ° 0 min 0 W/m² -3,1 °C -1,1 °C 3,2 km/h (1 Bft)
16.03.2020 06:19 23,5 °C -0,9 °C 42 % 86 % 1017,1 hPa 0,0 l/m² 1,0 km/h (0 Bft) O-NO 67 ° 0 min 0 W/m² -2,9 °C -0,9 °C 1,6 km/h (1 Bft)
16.03.2020 06:20 23,5 °C -0,9 °C 42 % 87 % 1017,1 hPa 0,0 l/m² 1,4 km/h (1 Bft) O-NO 67 ° 0 min 0 W/m² -2,8 °C -0,9 °C 1,6 km/h (1 Bft)
16.03.2020 06:21 23,5 °C -0,9 °C 42 % 86 % 1017,1 hPa 0,0 l/m² 1,9 km/h (1 Bft) O-NO 67 ° 0 min 0 W/m² -2,9 °C -0,9 °C 3,2 km/h (1 Bft)
16.03.2020 06:23 23,6 °C -0,9 °C 42 % 86 % 1017,1 hPa 0,0 l/m² 2,3 km/h (1 Bft) O-NO 67 ° 0 min 0 W/m² -2,9 °C -0,9 °C 3,2 km/h (1 Bft)
16.03.2020 06:24 23,5 °C -0,9 °C 42 % 86 % 1017,1 hPa 0,0 l/m² 2,1 km/h (1 Bft) O-NO 67 ° 0 min 5 W/m² -2,9 °C -0,9 °C 3,2 km/h (1 Bft)
16.03.2020 06:26 23,5 °C -0,8 °C 42 % 87 % 1017,1 hPa 0,0 l/m² 2,2 km/h (1 Bft) O-NO 67 ° 0 min 5 W/m² -2,7 °C -0,8 °C 3,2 km/h (1 Bft)
16.03.2020 06:28 23,6 °C -0,8 °C 42 % 86 % 1017,2 hPa 0,0 l/m² 2,5 km/h (1 Bft) O-NO 67 ° 0 min 7 W/m² -2,8 °C -0,8 °C 3,2 km/h (1 Bft)
16.03.2020 06:30 23,5 °C -0,8 °C 42 % 86 % 1017,2 hPa 0,0 l/m² 1,8 km/h (1 Bft) O-NO 67 ° 0 min 7 W/m² -2,8 °C -0,8 °C 3,2 km/h (1 Bft)
16.03.2020 06:31 23,6 °C -0,8 °C 42 % 86 % 1017,3 hPa 0,0 l/m² 1,4 km/h (1 Bft) O-NO 67 ° 0 min 9 W/m² -2,8 °C -0,8 °C 1,6 km/h (1 Bft)
16.03.2020 06:32 23,5 °C -0,8 °C 42 % 86 % 1017,3 hPa 0,0 l/m² 0,8 km/h (0 Bft) O-NO 67 ° 0 min 9 W/m² -2,8 °C -0,8 °C 1,6 km/h (1 Bft)
16.03.2020 06:34 23,6 °C -0,8 °C 42 % 85 % 1017,2 hPa 0,0 l/m² 0,2 km/h (0 Bft) O-NO 67 ° 0 min 11 W/m² -3,0 °C -0,8 °C 1,6 km/h (1 Bft)
16.03.2020 06:36 23,5 °C -0,8 °C 42 % 85 % 1017,2 hPa 0,0 l/m² 0,4 km/h (0 Bft) O-NO 67 ° 0 min 12 W/m² -3,0 °C -0,8 °C 1,6 km/h (1 Bft)
16.03.2020 06:38 23,6 °C -0,9 °C 42 % 85 % 1017,3 hPa 0,0 l/m² 0,8 km/h (0 Bft) O-NO 67 ° 0 min 14 W/m² -3,1 °C -0,9 °C 1,6 km/h (1 Bft)
16.03.2020 06:40 23,6 °C -0,9 °C 42 % 85 % 1017,4 hPa 0,0 l/m² 0,3 km/h (0 Bft) O-NO 67 ° 0 min 16 W/m² -3,1 °C -0,9 °C 1,6 km/h (1 Bft)
16.03.2020 06:41 23,6 °C -0,9 °C 42 % 85 % 1017,4 hPa 0,0 l/m² 0,0 km/h (0 Bft) O-NO 67 ° 0 min 18 W/m² -3,1 °C -0,9 °C 0,0 km/h (0 Bft)
16.03.2020 06:42 23,6 °C -0,8 °C 42 % 86 % 1017,3 hPa 0,0 l/m² 0,0 km/h (0 Bft) O-NO 67 ° 0 min 18 W/m² -2,8 °C -0,8 °C 0,0 km/h (0 Bft)
16.03.2020 06:43 23,6 °C -0,8 °C 42 % 86 % 1017,3 hPa 0,0 l/m² 1,4 km/h (1 Bft) O-NO 67 ° 0 min 18 W/m² -2,8 °C -0,8 °C 3,2 km/h (1 Bft)
16.03.2020 06:44 23,6 °C -0,8 °C 42 % 85 % 1017,4 hPa 0,0 l/m² 2,1 km/h (1 Bft) O-NO 67 ° 0 min 19 W/m² -3,0 °C -0,8 °C 3,2 km/h (1 Bft)
16.03.2020 06:46 23,6 °C -0,8 °C 42 % 85 % 1017,4 hPa 0,0 l/m² 2,5 km/h (1 Bft) O-NO 67 ° 0 min 21 W/m² -3,0 °C -0,8 °C 3,2 km/h (1 Bft)
16.03.2020 06:48 23,6 °C -0,8 °C 42 % 85 % 1017,5 hPa 0,0 l/m² 2,1 km/h (1 Bft) O-NO 67 ° 0 min 23 W/m² -3,0 °C -0,8 °C 3,2 km/h (1 Bft)
16.03.2020 06:50 23,6 °C -0,7 °C 42 % 85 % 1017,4 hPa 0,0 l/m² 1,3 km/h (1 Bft) O-NO 67 ° 0 min 25 W/m² -2,9 °C -0,7 °C 1,6 km/h (1 Bft)
16.03.2020 06:51 23,6 °C -0,7 °C 42 % 86 % 1017,4 hPa 0,0 l/m² 1,6 km/h (1 Bft) O-NO 67 ° 0 min 25 W/m² -2,7 °C -0,7 °C 1,6 km/h (1 Bft)
16.03.2020 06:52 23,6 °C -0,6 °C 42 % 85 % 1017,4 hPa 0,0 l/m² 1,9 km/h (1 Bft) O-NO 67 ° 0 min 26 W/m² -2,8 °C -0,6 °C 3,2 km/h (1 Bft)
16.03.2020 06:54 23,6 °C -0,4 °C 42 % 85 % 1017,4 hPa 0,0 l/m² 1,2 km/h (1 Bft) O-NO 67 ° 0 min 28 W/m² -2,6 °C -0,4 °C 3,2 km/h (1 Bft)
16.03.2020 06:56 23,6 °C -0,4 °C 42 % 85 % 1017,4 hPa 0,0 l/m² 1,6 km/h (1 Bft) O-NO 67 ° 0 min 32 W/m² -2,6 °C -0,4 °C 3,2 km/h (1 Bft)
16.03.2020 06:58 23,6 °C -0,3 °C 42 % 84 % 1017,4 hPa 0,0 l/m² 1,4 km/h (1 Bft) O-NO 67 ° 0 min 35 W/m² -2,7 °C -0,3 °C 3,2 km/h (1 Bft)
16.03.2020 07:00 23,6 °C -0,3 °C 42 % 84 % 1017,5 hPa 0,0 l/m² 2,5 km/h (1 Bft) O-NO 67 ° 0 min 37 W/m² -2,7 °C -0,3 °C 3,2 km/h (1 Bft)
16.03.2020 07:01 23,6 °C -0,3 °C 42 % 84 % 1017,5 hPa 0,0 l/m² 2,7 km/h (1 Bft) O-NO 67 ° 0 min 37 W/m² -2,7 °C -0,3 °C 3,2 km/h (1 Bft)
16.03.2020 07:02 23,6 °C -0,3 °C 42 % 84 % 1017,5 hPa 0,0 l/m² 1,8 km/h (1 Bft) O-NO 67 ° 0 min 39 W/m² -2,7 °C -0,3 °C 3,2 km/h (1 Bft)
16.03.2020 07:04 23,6 °C -0,2 °C 42 % 84 % 1017,5 hPa 0,0 l/m² 1,4 km/h (1 Bft) O-NO 67 ° 0 min 44 W/m² -2,6 °C -0,2 °C 1,6 km/h (1 Bft)
16.03.2020 07:06 23,6 °C -0,1 °C 42 % 84 % 1017,5 hPa 0,0 l/m² 2,6 km/h (1 Bft) O-NO 67 ° 2 min 58 W/m² -2,5 °C -0,1 °C 3,2 km/h (1 Bft)
16.03.2020 07:08 23,6 °C 0,1 °C 42 % 84 % 1017,5 hPa 0,0 l/m² 0,6 km/h (0 Bft) O-NO 67 ° 2 min 62 W/m² -2,3 °C 0,1 °C 3,2 km/h (1 Bft)
16.03.2020 07:10 23,6 °C 0,2 °C 42 % 84 % 1017,5 hPa 0,0 l/m² 0,2 km/h (0 Bft) O-NO 67 ° 2 min 53 W/m² -2,2 °C 0,2 °C 1,6 km/h (1 Bft)
16.03.2020 07:11 23,6 °C 0,2 °C 42 % 83 % 1017,6 hPa 0,0 l/m² 0,9 km/h (0 Bft) O-NO 67 ° 1 min 58 W/m² -2,3 °C 0,2 °C 1,6 km/h (1 Bft)
16.03.2020 07:12 23,6 °C 0,3 °C 42 % 83 % 1017,6 hPa 0,0 l/m² 1,4 km/h (1 Bft) O-NO 67 ° 1 min 69 W/m² -2,2 °C 0,3 °C 1,6 km/h (1 Bft)
16.03.2020 07:14 23,6 °C 0,4 °C 42 % 83 % 1017,5 hPa 0,0 l/m² 0,9 km/h (0 Bft) O-NO 67 ° 2 min 76 W/m² -2,1 °C 0,4 °C 1,6 km/h (1 Bft)
16.03.2020 07:16 23,6 °C 0,5 °C 42 % 83 % 1017,6 hPa 0,0 l/m² 0,4 km/h (0 Bft) O-NO 67 ° 2 min 81 W/m² -2,0 °C 0,5 °C 1,6 km/h (1 Bft)
16.03.2020 07:18 23,6 °C 0,7 °C 42 % 83 % 1017,7 hPa 0,0 l/m² 1,2 km/h (1 Bft) O-NO 67 ° 2 min 84 W/m² -1,8 °C 0,7 °C 3,2 km/h (1 Bft)
16.03.2020 07:20 23,6 °C 0,8 °C 42 % 82 % 1017,6 hPa 0,0 l/m² 1,2 km/h (1 Bft) O-NO 67 ° 2 min 88 W/m² -1,9 °C 0,8 °C 1,6 km/h (1 Bft)
16.03.2020 07:21 23,6 °C 0,9 °C 42 % 83 % 1017,7 hPa 0,0 l/m² 1,3 km/h (1 Bft) O-NO 67 ° 1 min 90 W/m² -1,7 °C 0,9 °C 1,6 km/h (1 Bft)
16.03.2020 07:22 23,6 °C 0,9 °C 42 % 83 % 1017,6 hPa 0,0 l/m² 0,9 km/h (0 Bft) O-NO 67 ° 1 min 91 W/m² -1,7 °C 0,9 °C 1,6 km/h (1 Bft)
16.03.2020 07:24 23,6 °C 0,8 °C 42 % 83 % 1017,7 hPa 0,0 l/m² 0,9 km/h (0 Bft) O-NO 67 ° 2 min 97 W/m² -1,8 °C 0,8 °C 1,6 km/h (1 Bft)
16.03.2020 07:26 23,6 °C 0,8 °C 42 % 83 % 1017,7 hPa 0,0 l/m² 0,8 km/h (0 Bft) O-NO 67 ° 2 min 100 W/m² -1,8 °C 0,8 °C 1,6 km/h (1 Bft)
16.03.2020 07:28 23,7 °C 0,9 °C 42 % 84 % 1017,8 hPa 0,0 l/m² 0,7 km/h (0 Bft) O-NO 67 ° 2 min 70 W/m² -1,5 °C 0,9 °C 1,6 km/h (1 Bft)
16.03.2020 07:30 23,7 °C 1,1 °C 42 % 83 % 1017,9 hPa 0,0 l/m² 0,3 km/h (0 Bft) O-NO 67 ° 2 min 83 W/m² -1,5 °C 1,1 °C 1,6 km/h (1 Bft)
16.03.2020 07:31 23,6 °C 1,2 °C 42 % 82 % 1017,9 hPa 0,0 l/m² 0,0 km/h (0 Bft) O-NO 67 ° 1 min 81 W/m² -1,5 °C 1,2 °C 0,0 km/h (0 Bft)
16.03.2020 07:32 23,7 °C 1,3 °C 42 % 81 % 1018,0 hPa 0,0 l/m² 0,0 km/h (0 Bft) O-NO 67 ° 1 min 77 W/m² -1,6 °C 1,3 °C 0,0 km/h (0 Bft)
16.03.2020 07:34 23,7 °C 1,5 °C 42 % 80 % 1017,9 hPa 0,0 l/m² 0,0 km/h (0 Bft) O-NO 67 ° 2 min 72 W/m² -1,6 °C 1,5 °C 0,0 km/h (0 Bft)
16.03.2020 07:36 23,7 °C 1,7 °C 42 % 80 % 1017,9 hPa 0,0 l/m² 0,0 km/h (0 Bft) O-NO 67 ° 2 min 70 W/m² -1,4 °C 1,7 °C 0,0 km/h (0 Bft)
16.03.2020 07:38 23,7 °C 1,7 °C 42 % 80 % 1017,9 hPa 0,0 l/m² 0,0 km/h (0 Bft) O-NO 67 ° 2 min 69 W/m² -1,4 °C 1,7 °C 0,0 km/h (0 Bft)
16.03.2020 07:40 23,7 °C 1,7 °C 42 % 81 % 1018,1 hPa 0,0 l/m² 0,0 km/h (0 Bft) O-NO 67 ° 2 min 88 W/m² -1,2 °C 1,7 °C 0,0 km/h (0 Bft)
16.03.2020 07:41 23,7 °C 1,6 °C 42 % 82 % 1018,1 hPa 0,0 l/m² 0,0 km/h (0 Bft) O-NO 67 ° 1 min 88 W/m² -1,1 °C 1,6 °C 0,0 km/h (0 Bft)
16.03.2020 07:42 23,7 °C 1,6 °C 42 % 81 % 1018,1 hPa 0,0 l/m² 0,0 km/h (0 Bft) O-NO 67 ° 1 min 84 W/m² -1,3 °C 1,6 °C 0,0 km/h (0 Bft)
16.03.2020 07:44 23,7 °C 1,6 °C 42 % 82 % 1018,1 hPa 0,0 l/m² 0,0 km/h (0 Bft) O-NO 67 ° 2 min 77 W/m² -1,1 °C 1,6 °C 0,0 km/h (0 Bft)
16.03.2020 07:46 23,7 °C 1,6 °C 42 % 83 % 1018,1 hPa 0,0 l/m² 0,7 km/h (0 Bft) O-NO 67 ° 2 min 90 W/m² -1,0 °C 1,6 °C 1,6 km/h (1 Bft)
16.03.2020 07:48 23,7 °C 1,6 °C 42 % 83 % 1018,1 hPa 0,0 l/m² 2,1 km/h (1 Bft) O-NO 67 ° 2 min 88 W/m² -1,0 °C 1,6 °C 3,2 km/h (1 Bft)
16.03.2020 07:50 23,7 °C 1,7 °C 42 % 84 % 1018,0 hPa 0,0 l/m² 2,8 km/h (1 Bft) O-NO 67 ° 2 min 102 W/m² -0,7 °C 1,7 °C 3,2 km/h (1 Bft)
16.03.2020 07:51 23,7 °C 1,8 °C 42 % 84 % 1018,0 hPa 0,0 l/m² 2,6 km/h (1 Bft) O-NO 67 ° 1 min 107 W/m² -0,6 °C 1,8 °C 3,2 km/h (1 Bft)
16.03.2020 07:52 23,6 °C 1,8 °C 42 % 84 % 1018,0 hPa 0,0 l/m² 2,7 km/h (1 Bft) O-NO 67 ° 1 min 113 W/m² -0,6 °C 1,8 °C 3,2 km/h (1 Bft)
16.03.2020 07:54 23,7 °C 1,8 °C 42 % 84 % 1018,0 hPa 0,0 l/m² 4,0 km/h (1 Bft) O-NO 67 ° 2 min 141 W/m² -0,6 °C 1,8 °C 4,8 km/h (1 Bft)
16.03.2020 07:56 23,7 °C 2,0 °C 42 % 84 % 1018,1 hPa 0,0 l/m² 4,0 km/h (1 Bft) O-NO 67 ° 2 min 148 W/m² -0,4 °C 2,0 °C 6,4 km/h (2 Bft)
16.03.2020 07:58 23,7 °C 2,2 °C 42 % 84 % 1018,0 hPa 0,0 l/m² 4,7 km/h (1 Bft) O-NO 74 ° 2 min 149 W/m² -0,2 °C 2,2 °C 6,4 km/h (2 Bft)
16.03.2020 08:00 23,7 °C 2,3 °C 42 % 84 % 1018,1 hPa 0,0 l/m² 4,9 km/h (1 Bft) O 98 ° 2 min 149 W/m² -0,1 °C 2,3 °C 6,4 km/h (2 Bft)
16.03.2020 08:01 23,7 °C 2,5 °C 42 % 83 % 1018,1 hPa 0,0 l/m² 4,3 km/h (1 Bft) O 98 ° 1 min 169 W/m² -0,1 °C 2,5 °C 6,4 km/h (2 Bft)
16.03.2020 08:02 23,7 °C 2,6 °C 42 % 83 % 1018,1 hPa 0,0 l/m² 5,1 km/h (1 Bft) O 99 ° 1 min 165 W/m² 0,0 °C 2,6 °C 6,4 km/h (2 Bft)
16.03.2020 08:04 23,7 °C 3,0 °C 42 % 81 % 1018,2 hPa 0,0 l/m² 5,2 km/h (1 Bft) O 92 ° 2 min 185 W/m² 0,1 °C 3,0 °C 6,4 km/h (2 Bft)
16.03.2020 08:06 23,6 °C 3,4 °C 42 % 80 % 1018,2 hPa 0,0 l/m² 5,1 km/h (1 Bft) O 87 ° 2 min 185 W/m² 0,3 °C 3,4 °C 6,4 km/h (2 Bft)
16.03.2020 08:08 23,7 °C 3,6 °C 42 % 79 % 1018,2 hPa 0,0 l/m² 5,1 km/h (1 Bft) O 96 ° 2 min 169 W/m² 0,3 °C 3,6 °C 9,7 km/h (2 Bft)
16.03.2020 08:10 23,7 °C 3,6 °C 42 % 79 % 1018,3 hPa 0,0 l/m² 5,6 km/h (2 Bft) O 91 ° 2 min 181 W/m² 0,3 °C 3,6 °C 6,4 km/h (2 Bft)
16.03.2020 08:11 23,7 °C 3,6 °C 42 % 80 % 1018,3 hPa 0,0 l/m² 4,8 km/h (1 Bft) O 90 ° 1 min 192 W/m² 0,5 °C 3,6 °C 6,4 km/h (2 Bft)
16.03.2020 08:12 23,7 °C 3,6 °C 42 % 80 % 1018,3 hPa 0,0 l/m² 4,7 km/h (1 Bft) O 90 ° 1 min 193 W/m² 0,5 °C 3,6 °C 6,4 km/h (2 Bft)
16.03.2020 08:14 23,7 °C 3,6 °C 43 % 82 % 1018,4 hPa 0,0 l/m² 4,2 km/h (1 Bft) O 90 ° 2 min 225 W/m² 0,8 °C 3,6 °C 6,4 km/h (2 Bft)
16.03.2020 08:16 23,7 °C 3,6 °C 43 % 80 % 1018,4 hPa 0,0 l/m² 4,5 km/h (1 Bft) O 90 ° 2 min 227 W/m² 0,5 °C 3,6 °C 6,4 km/h (2 Bft)
16.03.2020 08:18 23,7 °C 3,7 °C 44 % 79 % 1018,5 hPa 0,0 l/m² 3,4 km/h (1 Bft) O 90 ° 2 min 227 W/m² 0,4 °C 3,7 °C 4,8 km/h (1 Bft)
16.03.2020 08:20 23,7 °C 3,9 °C 44 % 78 % 1018,5 hPa 0,0 l/m² 2,7 km/h (1 Bft) O 90 ° 2 min 216 W/m² 0,4 °C 3,9 °C 3,2 km/h (1 Bft)
16.03.2020 08:21 23,8 °C 4,1 °C 44 % 78 % 1018,5 hPa 0,0 l/m² 2,8 km/h (1 Bft) O 90 ° 1 min 221 W/m² 0,6 °C 4,1 °C 4,8 km/h (1 Bft)
16.03.2020 08:22 23,8 °C 4,2 °C 44 % 77 % 1018,5 hPa 0,0 l/m² 3,0 km/h (1 Bft) O 90 ° 1 min 232 W/m² 0,5 °C 4,2 °C 4,8 km/h (1 Bft)
16.03.2020 08:24 23,8 °C 4,4 °C 44 % 78 % 1018,5 hPa 0,0 l/m² 3,0 km/h (1 Bft) O 90 ° 2 min 243 W/m² 0,9 °C 4,4 °C 4,8 km/h (1 Bft)
16.03.2020 08:25 23,8 °C 4,6 °C 44 % 77 % 1018,4 hPa 0,0 l/m² 3,5 km/h (1 Bft) O 90 ° 1 min 243 W/m² 0,9 °C 4,6 °C 4,8 km/h (1 Bft)
16.03.2020 08:27 23,8 °C 4,8 °C 44 % 76 % 1018,5 hPa 0,0 l/m² 3,1 km/h (1 Bft) O 90 ° 2 min 246 W/m² 0,9 °C 4,8 °C 4,8 km/h (1 Bft)
16.03.2020 08:29 23,9 °C 4,9 °C 44 % 76 % 1018,5 hPa 0,0 l/m² 3,7 km/h (1 Bft) O 92 ° 2 min 253 W/m² 1,0 °C 4,9 °C 4,8 km/h (1 Bft)
16.03.2020 08:30 23,9 °C 4,9 °C 44 % 74 % 1018,5 hPa 0,0 l/m² 3,2 km/h (1 Bft) O 92 ° 1 min 264 W/m² 0,7 °C 4,9 °C 4,8 km/h (1 Bft)
16.03.2020 08:31 23,9 °C 5,1 °C 44 % 77 % 1018,5 hPa 0,0 l/m² 2,2 km/h (1 Bft) O 92 ° 1 min 271 W/m² 1,4 °C 5,1 °C 3,2 km/h (1 Bft)
16.03.2020 08:33 23,9 °C 5,2 °C 44 % 76 % 1018,6 hPa 0,0 l/m² 2,3 km/h (1 Bft) O 92 ° 2 min 285 W/m² 1,3 °C 5,2 °C 3,2 km/h (1 Bft)
16.03.2020 08:34 23,9 °C 5,4 °C 44 % 76 % 1018,4 hPa 0,0 l/m² 2,6 km/h (1 Bft) O 92 ° 1 min 288 W/m² 1,5 °C 5,4 °C 3,2 km/h (1 Bft)
16.03.2020 08:36 24,0 °C 5,7 °C 43 % 76 % 1018,6 hPa 0,0 l/m² 2,8 km/h (1 Bft) O 92 ° 2 min 285 W/m² 1,8 °C 5,7 °C 4,8 km/h (1 Bft)
16.03.2020 08:38 24,0 °C 5,9 °C 43 % 77 % 1018,6 hPa 0,0 l/m² 2,0 km/h (1 Bft) O 92 ° 2 min 302 W/m² 2,2 °C 5,9 °C 3,2 km/h (1 Bft)
16.03.2020 08:40 24,1 °C 6,1 °C 43 % 73 % 1018,6 hPa 0,0 l/m² 2,7 km/h (1 Bft) O 92 ° 2 min 311 W/m² 1,6 °C 6,1 °C 4,8 km/h (1 Bft)
16.03.2020 08:41 24,1 °C 6,2 °C 43 % 73 % 1018,6 hPa 0,0 l/m² 3,3 km/h (1 Bft) O 92 ° 1 min 316 W/m² 1,7 °C 6,2 °C 4,8 km/h (1 Bft)
16.03.2020 08:42 24,1 °C 6,3 °C 43 % 73 % 1018,6 hPa 0,0 l/m² 3,5 km/h (1 Bft) O 98 ° 1 min 318 W/m² 1,8 °C 6,3 °C 4,8 km/h (1 Bft)
16.03.2020 08:44 24,1 °C 6,4 °C 42 % 73 % 1018,6 hPa 0,0 l/m² 3,0 km/h (1 Bft) O 98 ° 2 min 325 W/m² 1,9 °C 6,4 °C 4,8 km/h (1 Bft)
16.03.2020 08:46 24,1 °C 6,4 °C 42 % 74 % 1018,6 hPa 0,0 l/m² 3,9 km/h (1 Bft) SO 126 ° 2 min 325 W/m² 2,1 °C 6,4 °C 4,8 km/h (1 Bft)
16.03.2020 08:48 24,1 °C 6,4 °C 42 % 72 % 1018,6 hPa 0,0 l/m² 3,7 km/h (1 Bft) O-SO 121 ° 2 min 341 W/m² 1,7 °C 6,4 °C 4,8 km/h (1 Bft)
16.03.2020 08:50 24,1 °C 6,6 °C 42 % 75 % 1018,6 hPa 0,0 l/m² 4,0 km/h (1 Bft) SO 139 ° 2 min 338 W/m² 2,5 °C 6,6 °C 6,4 km/h (2 Bft)
16.03.2020 08:51 24,1 °C 6,6 °C 42 % 74 % 1018,5 hPa 0,0 l/m² 4,5 km/h (1 Bft) SO 126 ° 1 min 352 W/m² 2,3 °C 6,6 °C 6,4 km/h (2 Bft)
16.03.2020 08:52 24,1 °C 6,7 °C 42 % 73 % 1018,5 hPa 0,0 l/m² 5,9 km/h (2 Bft) SO 135 ° 1 min 350 W/m² 2,2 °C 6,7 °C 8,0 km/h (2 Bft)
16.03.2020 08:54 24,1 °C 6,9 °C 42 % 73 % 1018,5 hPa 0,0 l/m² 6,6 km/h (2 Bft) SO 142 ° 2 min 357 W/m² 2,4 °C 6,8 °C 11,3 km/h (2 Bft)
16.03.2020 08:56 24,2 °C 7,1 °C 42 % 74 % 1018,6 hPa 0,0 l/m² 6,0 km/h (2 Bft) SO 142 ° 2 min 366 W/m² 2,8 °C 7,1 °C 8,0 km/h (2 Bft)
16.03.2020 08:58 24,2 °C 7,3 °C 42 % 73 % 1018,6 hPa 0,0 l/m² 8,4 km/h (2 Bft) S-SO 161 ° 2 min 374 W/m² 2,8 °C 5,7 °C 12,9 km/h (3 Bft)
16.03.2020 09:00 24,2 °C 7,4 °C 42 % 71 % 1018,6 hPa 0,0 l/m² 8,5 km/h (2 Bft) S-SO 152 ° 2 min 360 W/m² 2,5 °C 5,8 °C 11,3 km/h (2 Bft)
16.03.2020 09:01 24,2 °C 7,4 °C 42 % 73 % 1018,7 hPa 0,0 l/m² 5,9 km/h (2 Bft) S 183 ° 1 min 378 W/m² 2,9 °C 7,4 °C 8,0 km/h (2 Bft)
16.03.2020 09:02 24,2 °C 7,6 °C 42 % 71 % 1018,7 hPa 0,0 l/m² 5,3 km/h (1 Bft) S-SW 192 ° 1 min 378 W/m² 2,7 °C 7,6 °C 9,7 km/h (2 Bft)
16.03.2020 09:04 24,2 °C 7,7 °C 42 % 70 % 1018,7 hPa 0,0 l/m² 7,4 km/h (2 Bft) S 177 ° 2 min 381 W/m² 2,6 °C 6,9 °C 11,3 km/h (2 Bft)
16.03.2020 09:06 24,2 °C 7,7 °C 42 % 68 % 1018,7 hPa 0,0 l/m² 4,5 km/h (1 Bft) S 180 ° 2 min 320 W/m² 2,2 °C 7,7 °C 8,0 km/h (2 Bft)
16.03.2020 09:08 24,3 °C 7,9 °C 42 % 69 % 1018,7 hPa 0,0 l/m² 2,7 km/h (1 Bft) S 180 ° 2 min 364 W/m² 2,6 °C 7,9 °C 4,8 km/h (1 Bft)
16.03.2020 09:10 24,3 °C 8,2 °C 42 % 71 % 1018,8 hPa 0,0 l/m² 2,4 km/h (1 Bft) S 180 ° 2 min 387 W/m² 3,3 °C 8,2 °C 4,8 km/h (1 Bft)
16.03.2020 09:11 24,3 °C 8,2 °C 42 % 69 % 1018,8 hPa 0,0 l/m² 3,0 km/h (1 Bft) S 180 ° 1 min 397 W/m² 2,9 °C 8,2 °C 4,8 km/h (1 Bft)
16.03.2020 09:12 24,3 °C 8,3 °C 42 % 69 % 1018,9 hPa 0,0 l/m² 2,3 km/h (1 Bft) S 180 ° 1 min 399 W/m² 3,0 °C 8,3 °C 3,2 km/h (1 Bft)
16.03.2020 09:14 24,3 °C 8,6 °C 42 % 69 % 1018,8 hPa 0,0 l/m² 4,2 km/h (1 Bft) S-SO 148 ° 2 min 394 W/m² 3,2 °C 8,6 °C 6,4 km/h (2 Bft)
16.03.2020 09:16 24,3 °C 8,6 °C 42 % 70 % 1018,8 hPa 0,0 l/m² 6,2 km/h (2 Bft) SO 145 ° 2 min 413 W/m² 3,4 °C 8,6 °C 8,0 km/h (2 Bft)
16.03.2020 09:18 24,3 °C 8,6 °C 42 % 67 % 1018,8 hPa 0,0 l/m² 6,0 km/h (2 Bft) SO 141 ° 2 min 404 W/m² 2,8 °C 8,6 °C 9,7 km/h (2 Bft)
16.03.2020 09:20 24,4 °C 8,8 °C 42 % 68 % 1018,9 hPa 0,0 l/m² 6,9 km/h (2 Bft) S-SO 161 ° 2 min 406 W/m² 3,2 °C 8,4 °C 9,7 km/h (2 Bft)
16.03.2020 09:21 24,4 °C 8,8 °C 42 % 67 % 1018,8 hPa 0,0 l/m² 6,4 km/h (2 Bft) S 180 ° 1 min 408 W/m² 3,0 °C 8,8 °C 8,0 km/h (2 Bft)
16.03.2020 09:22 24,4 °C 8,8 °C 42 % 67 % 1018,8 hPa 0,0 l/m² 5,6 km/h (2 Bft) S-SO 152 ° 1 min 359 W/m² 3,0 °C 8,8 °C 8,0 km/h (2 Bft)
16.03.2020 09:24 24,4 °C 8,9 °C 40 % 69 % 1018,9 hPa 0,0 l/m² 5,3 km/h (1 Bft) S-SO 157 ° 2 min 390 W/m² 3,5 °C 8,9 °C 8,0 km/h (2 Bft)
16.03.2020 09:26 24,4 °C 9,1 °C 39 % 68 % 1018,9 hPa 0,0 l/m² 7,3 km/h (2 Bft) S-SO 167 ° 2 min 399 W/m² 3,5 °C 8,4 °C 9,7 km/h (2 Bft)
16.03.2020 09:28 24,4 °C 9,2 °C 37 % 69 % 1018,9 hPa 0,0 l/m² 6,3 km/h (2 Bft) S 173 ° 2 min 403 W/m² 3,8 °C 9,2 °C 9,7 km/h (2 Bft)
16.03.2020 09:30 24,4 °C 9,3 °C 38 % 66 % 1018,9 hPa 0,0 l/m² 4,1 km/h (1 Bft) S 174 ° 2 min 404 W/m² 3,3 °C 9,3 °C 8,0 km/h (2 Bft)
16.03.2020 09:31 24,4 °C 9,4 °C 38 % 68 % 1018,9 hPa 0,0 l/m² 3,7 km/h (1 Bft) S 171 ° 1 min 406 W/m² 3,8 °C 9,4 °C 6,4 km/h (2 Bft)
16.03.2020 09:32 24,4 °C 9,6 °C 38 % 69 % 1018,9 hPa 0,0 l/m² 5,7 km/h (2 Bft) S-SO 150 ° 1 min 397 W/m² 4,2 °C 9,6 °C 6,4 km/h (2 Bft)
16.03.2020 09:34 24,4 °C 9,6 °C 38 % 68 % 1018,9 hPa 0,0 l/m² 6,1 km/h (2 Bft) S 182 ° 2 min 399 W/m² 4,0 °C 9,6 °C 9,7 km/h (2 Bft)
16.03.2020 09:36 24,4 °C 9,7 °C 38 % 67 % 1018,9 hPa 0,0 l/m² 3,7 km/h (1 Bft) S 182 ° 2 min 410 W/m² 3,9 °C 9,7 °C 8,0 km/h (2 Bft)
16.03.2020 09:38 24,3 °C 9,7 °C 38 % 66 % 1019,0 hPa 0,0 l/m² 4,3 km/h (1 Bft) S 182 ° 2 min 410 W/m² 3,7 °C 9,7 °C 6,4 km/h (2 Bft)
16.03.2020 09:40 24,4 °C 9,7 °C 39 % 65 % 1019,0 hPa 0,0 l/m² 5,5 km/h (2 Bft) SW 218 ° 2 min 429 W/m² 3,4 °C 9,7 °C 6,4 km/h (2 Bft)
16.03.2020 09:41 24,4 °C 9,7 °C 39 % 65 % 1019,0 hPa 0,0 l/m² 4,3 km/h (1 Bft) SW 218 ° 1 min 432 W/m² 3,4 °C 9,7 °C 6,4 km/h (2 Bft)
16.03.2020 09:42 24,4 °C 9,7 °C 39 % 63 % 1019,0 hPa 0,0 l/m² 3,1 km/h (1 Bft) SW 218 ° 1 min 446 W/m² 3,0 °C 9,7 °C 4,8 km/h (1 Bft)
16.03.2020 09:44 24,4 °C 9,8 °C 39 % 65 % 1019,0 hPa 0,0 l/m² 2,6 km/h (1 Bft) SW 218 ° 2 min 459 W/m² 3,5 °C 9,8 °C 4,8 km/h (1 Bft)
16.03.2020 09:45 24,4 °C 9,9 °C 39 % 64 % 1019,0 hPa 0,0 l/m² 3,0 km/h (1 Bft) SW 219 ° 1 min 445 W/m² 3,4 °C 9,9 °C 6,4 km/h (2 Bft)
16.03.2020 09:47 24,4 °C 10,2 °C 39 % 63 % 1019,0 hPa 0,0 l/m² 3,3 km/h (1 Bft) W-SW 240 ° 2 min 438 W/m² 3,5 °C 10,2 °C 6,4 km/h (2 Bft)
16.03.2020 09:49 24,5 °C 10,3 °C 39 % 64 % 1019,0 hPa 0,0 l/m² 3,2 km/h (1 Bft) W-SW 240 ° 2 min 452 W/m² 3,8 °C 10,3 °C 4,8 km/h (1 Bft)
16.03.2020 09:50 24,5 °C 10,4 °C 39 % 64 % 1019,0 hPa 0,0 l/m² 5,1 km/h (1 Bft) SW 234 ° 1 min 461 W/m² 3,9 °C 10,4 °C 6,4 km/h (2 Bft)
16.03.2020 09:51 24,5 °C 10,4 °C 39 % 63 % 1019,0 hPa 0,0 l/m² 3,8 km/h (1 Bft) SW 226 ° 1 min 446 W/m² 3,7 °C 10,4 °C 6,4 km/h (2 Bft)
16.03.2020 09:52 24,5 °C 10,4 °C 39 % 64 % 1019,0 hPa 0,0 l/m² 3,4 km/h (1 Bft) SW 226 ° 1 min 469 W/m² 3,9 °C 10,4 °C 4,8 km/h (1 Bft)
16.03.2020 09:53 24,5 °C 10,4 °C 39 % 63 % 1019,0 hPa 0,0 l/m² 3,0 km/h (1 Bft) SW 226 ° 1 min 457 W/m² 3,7 °C 10,4 °C 4,8 km/h (1 Bft)
16.03.2020 09:55 24,5 °C 10,4 °C 39 % 62 % 1019,0 hPa 0,0 l/m² 3,7 km/h (1 Bft) S-SW 198 ° 2 min 455 W/m² 3,4 °C 10,4 °C 6,4 km/h (2 Bft)
16.03.2020 09:57 24,6 °C 10,4 °C 39 % 65 % 1019,0 hPa 0,0 l/m² 3,7 km/h (1 Bft) W-SW 238 ° 2 min 401 W/m² 4,1 °C 10,4 °C 4,8 km/h (1 Bft)
16.03.2020 09:59 24,6 °C 10,6 °C 39 % 62 % 1019,0 hPa 0,0 l/m² 4,4 km/h (1 Bft) SW 222 ° 2 min 482 W/m² 3,6 °C 10,6 °C 6,4 km/h (2 Bft)
16.03.2020 10:00 24,6 °C 10,9 °C 39 % 65 % 1019,1 hPa 0,0 l/m² 8,1 km/h (2 Bft) SW 227 ° 1 min 489 W/m² 4,6 °C 9,7 °C 12,9 km/h (3 Bft)
16.03.2020 10:01 24,6 °C 11,1 °C 39 % 62 % 1019,1 hPa 0,0 l/m² 8,3 km/h (2 Bft) SW 228 ° 1 min 492 W/m² 4,1 °C 9,8 °C 11,3 km/h (2 Bft)
16.03.2020 10:02 24,6 °C 11,1 °C 39 % 63 % 1019,2 hPa 0,0 l/m² 5,9 km/h (2 Bft) SW 224 ° 1 min 496 W/m² 4,3 °C 11,1 °C 6,4 km/h (2 Bft)
16.03.2020 10:03 24,6 °C 11,2 °C 39 % 64 % 1019,2 hPa 0,0 l/m² 8,8 km/h (2 Bft) SW 229 ° 1 min 485 W/m² 4,6 °C 9,6 °C 12,9 km/h (3 Bft)
16.03.2020 10:05 24,6 °C 11,1 °C 39 % 60 % 1019,2 hPa 0,0 l/m² 6,6 km/h (2 Bft) S-SW 205 ° 2 min 480 W/m² 3,6 °C 11,0 °C 8,0 km/h (2 Bft)
16.03.2020 10:07 24,6 °C 11,1 °C 40 % 62 % 1019,2 hPa 0,0 l/m² 6,6 km/h (2 Bft) SW 228 ° 2 min 501 W/m² 4,1 °C 11,0 °C 11,3 km/h (2 Bft)
16.03.2020 10:09 24,6 °C 11,2 °C 40 % 62 % 1019,2 hPa 0,0 l/m² 5,6 km/h (2 Bft) SW 221 ° 2 min 504 W/m² 4,2 °C 11,2 °C 9,7 km/h (2 Bft)
16.03.2020 10:10 24,6 °C 11,1 °C 40 % 59 % 1019,1 hPa 0,0 l/m² 5,1 km/h (1 Bft) W-SW 257 ° 1 min 510 W/m² 3,4 °C 11,1 °C 8,0 km/h (2 Bft)
16.03.2020 10:11 24,6 °C 11,2 °C 40 % 61 % 1019,1 hPa 0,0 l/m² 2,8 km/h (1 Bft) SW 230 ° 1 min 515 W/m² 4,0 °C 11,2 °C 4,8 km/h (1 Bft)
16.03.2020 10:12 24,5 °C 11,3 °C 40 % 61 % 1019,1 hPa 0,0 l/m² 3,1 km/h (1 Bft) SW 226 ° 1 min 526 W/m² 4,1 °C 11,3 °C 4,8 km/h (1 Bft)
16.03.2020 10:13 24,5 °C 11,4 °C 40 % 64 % 1019,1 hPa 0,0 l/m² 7,8 km/h (2 Bft) S-SW 192 ° 1 min 490 W/m² 4,8 °C 10,5 °C 9,7 km/h (2 Bft)
16.03.2020 10:15 24,6 °C 11,4 °C 40 % 60 % 1019,1 hPa 0,0 l/m² 8,0 km/h (2 Bft) S 176 ° 2 min 490 W/m² 3,9 °C 10,3 °C 11,3 km/h (2 Bft)
16.03.2020 10:17 24,6 °C 11,4 °C 40 % 60 % 1019,2 hPa 0,0 l/m² 5,9 km/h (2 Bft) S-SW 202 ° 2 min 527 W/m² 3,9 °C 11,4 °C 9,7 km/h (2 Bft)
16.03.2020 10:19 24,6 °C 11,5 °C 40 % 59 % 1019,2 hPa 0,0 l/m² 7,0 km/h (2 Bft) S-SW 199 ° 2 min 515 W/m² 3,8 °C 11,1 °C 9,7 km/h (2 Bft)
16.03.2020 10:20 24,4 °C 11,6 °C 40 % 61 % 1019,2 hPa 0,0 l/m² 7,9 km/h (2 Bft) S 191 ° 1 min 494 W/m² 4,3 °C 10,6 °C 9,7 km/h (2 Bft)
16.03.2020 10:21 24,4 °C 11,6 °C 40 % 62 % 1019,2 hPa 0,0 l/m² 5,4 km/h (2 Bft) S-SW 208 ° 1 min 538 W/m² 4,6 °C 11,6 °C 6,4 km/h (2 Bft)
16.03.2020 10:22 24,5 °C 11,6 °C 40 % 63 % 1019,1 hPa 0,0 l/m² 6,2 km/h (2 Bft) S-SW 207 ° 1 min 538 W/m² 4,8 °C 11,6 °C 8,0 km/h (2 Bft)
16.03.2020 10:23 24,5 °C 11,7 °C 40 % 64 % 1019,1 hPa 0,0 l/m² 4,4 km/h (1 Bft) SW 215 ° 1 min 538 W/m² 5,1 °C 11,7 °C 8,0 km/h (2 Bft)
16.03.2020 10:25 24,5 °C 11,8 °C 40 % 61 % 1019,1 hPa 0,0 l/m² 7,3 km/h (2 Bft) S 190 ° 2 min 541 W/m² 4,5 °C 11,2 °C 9,7 km/h (2 Bft)
16.03.2020 10:27 24,4 °C 11,8 °C 40 % 60 % 1019,2 hPa 0,0 l/m² 7,4 km/h (2 Bft) S-SW 199 ° 2 min 548 W/m² 4,3 °C 11,1 °C 11,3 km/h (2 Bft)
16.03.2020 10:29 24,5 °C 11,9 °C 40 % 62 % 1019,2 hPa 0,0 l/m² 5,3 km/h (1 Bft) S-SW 200 ° 2 min 538 W/m² 4,9 °C 11,9 °C 8,0 km/h (2 Bft)
16.03.2020 10:30 24,5 °C 12,1 °C 40 % 60 % 1019,2 hPa 0,0 l/m² 7,7 km/h (2 Bft) S 177 ° 1 min 568 W/m² 4,6 °C 11,2 °C 11,3 km/h (2 Bft)
16.03.2020 10:31 24,5 °C 12,0 °C 40 % 61 % 1019,2 hPa 0,0 l/m² 7,3 km/h (2 Bft) S-SW 199 ° 1 min 563 W/m² 4,7 °C 11,4 °C 8,0 km/h (2 Bft)
16.03.2020 10:32 24,5 °C 12,1 °C 40 % 61 % 1019,2 hPa 0,0 l/m² 8,6 km/h (2 Bft) SW 229 ° 1 min 570 W/m² 4,8 °C 10,7 °C 12,9 km/h (3 Bft)
16.03.2020 10:33 24,5 °C 12,2 °C 40 % 64 % 1019,1 hPa 0,0 l/m² 5,7 km/h (2 Bft) SW 221 ° 1 min 561 W/m² 5,6 °C 12,2 °C 8,0 km/h (2 Bft)
16.03.2020 10:35 24,4 °C 12,4 °C 40 % 61 % 1019,1 hPa 0,0 l/m² 6,7 km/h (2 Bft) S-SW 204 ° 2 min 566 W/m² 5,1 °C 12,2 °C 8,0 km/h (2 Bft)
16.03.2020 10:37 24,5 °C 12,4 °C 40 % 60 % 1019,1 hPa 0,0 l/m² 7,6 km/h (2 Bft) S-SW 192 ° 2 min 573 W/m² 4,9 °C 11,6 °C 11,3 km/h (2 Bft)
16.03.2020 10:39 24,5 °C 12,4 °C 40 % 62 % 1019,1 hPa 0,0 l/m² 10,7 km/h (2 Bft) S 185 ° 2 min 596 W/m² 5,3 °C 9,9 °C 14,5 km/h (3 Bft)
16.03.2020 10:40 24,5 °C 12,4 °C 40 % 62 % 1019,1 hPa 0,0 l/m² 8,6 km/h (2 Bft) S-SW 213 ° 1 min 557 W/m² 5,3 °C 11,0 °C 11,3 km/h (2 Bft)
16.03.2020 10:41 24,5 °C 12,5 °C 40 % 63 % 1019,1 hPa 0,0 l/m² 6,4 km/h (2 Bft) S-SW 196 ° 1 min 573 W/m² 5,7 °C 12,5 °C 8,0 km/h (2 Bft)
16.03.2020 10:42 24,5 °C 12,5 °C 40 % 60 % 1019,2 hPa 0,0 l/m² 8,9 km/h (2 Bft) S-SW 211 ° 1 min 584 W/m² 5,0 °C 11,0 °C 11,3 km/h (2 Bft)
16.03.2020 10:43 24,5 °C 12,6 °C 40 % 60 % 1019,1 hPa 0,0 l/m² 10,1 km/h (2 Bft) SW 218 ° 1 min 573 W/m² 5,0 °C 10,4 °C 14,5 km/h (3 Bft)
16.03.2020 10:45 24,5 °C 12,6 °C 40 % 61 % 1019,2 hPa 0,0 l/m² 10,5 km/h (2 Bft) SW 218 ° 2 min 589 W/m² 5,3 °C 10,2 °C 14,5 km/h (3 Bft)
16.03.2020 10:47 24,5 °C 12,7 °C 40 % 60 % 1019,2 hPa 0,0 l/m² 9,2 km/h (2 Bft) SW 217 ° 2 min 599 W/m² 5,1 °C 11,0 °C 11,3 km/h (2 Bft)
16.03.2020 10:48 24,5 °C 12,7 °C 40 % 62 % 1019,1 hPa 0,0 l/m² 8,4 km/h (2 Bft) W-SW 257 ° 1 min 582 W/m² 5,6 °C 11,5 °C 14,5 km/h (3 Bft)
16.03.2020 10:50 24,5 °C 12,9 °C 40 % 61 % 1019,1 hPa 0,0 l/m² 8,6 km/h (2 Bft) S-SW 194 ° 2 min 584 W/m² 5,6 °C 11,5 °C 11,3 km/h (2 Bft)
16.03.2020 10:51 24,5 °C 12,9 °C 40 % 58 % 1019,1 hPa 0,0 l/m² 8,8 km/h (2 Bft) S 188 ° 1 min 587 W/m² 4,8 °C 11,4 °C 11,3 km/h (2 Bft)
16.03.2020 10:52 24,5 °C 12,9 °C 40 % 63 % 1019,1 hPa 0,0 l/m² 9,0 km/h (2 Bft) SW 215 ° 1 min 587 W/m² 6,0 °C 11,3 °C 12,9 km/h (3 Bft)
16.03.2020 10:53 24,5 °C 12,9 °C 40 % 61 % 1019,1 hPa 0,0 l/m² 9,5 km/h (2 Bft) S-SW 192 ° 1 min 555 W/m² 5,6 °C 11,1 °C 11,3 km/h (2 Bft)
16.03.2020 10:54 24,5 °C 13,0 °C 40 % 63 % 1019,1 hPa 0,0 l/m² 10,1 km/h (2 Bft) S-SW 196 ° 1 min 566 W/m² 6,1 °C 10,9 °C 12,9 km/h (3 Bft)
16.03.2020 10:56 24,5 °C 13,1 °C 40 % 58 % 1019,0 hPa 0,0 l/m² 9,6 km/h (2 Bft) S-SW 213 ° 2 min 561 W/m² 5,0 °C 11,2 °C 12,9 km/h (3 Bft)
16.03.2020 10:58 24,6 °C 13,2 °C 40 % 58 % 1019,1 hPa 0,0 l/m² 9,4 km/h (2 Bft) S-SW 209 ° 2 min 548 W/m² 5,1 °C 11,4 °C 11,3 km/h (2 Bft)
16.03.2020 11:00 24,6 °C 13,3 °C 40 % 61 % 1019,1 hPa 0,0 l/m² 9,8 km/h (2 Bft) SW 220 ° 2 min 555 W/m² 5,9 °C 11,3 °C 14,5 km/h (3 Bft)
16.03.2020 11:01 24,7 °C 13,2 °C 40 % 58 % 1019,2 hPa 0,0 l/m² 9,3 km/h (2 Bft) W 262 ° 1 min 534 W/m² 5,1 °C 11,5 °C 11,3 km/h (2 Bft)
16.03.2020 11:02 24,7 °C 13,2 °C 40 % 59 % 1019,2 hPa 0,0 l/m² 7,1 km/h (2 Bft) W-SW 248 ° 1 min 577 W/m² 5,4 °C 12,8 °C 11,3 km/h (2 Bft)
16.03.2020 11:04 24,7 °C 13,4 °C 40 % 61 % 1019,2 hPa 0,0 l/m² 8,1 km/h (2 Bft) S-SW 213 ° 2 min 547 W/m² 6,0 °C 12,4 °C 11,3 km/h (2 Bft)
16.03.2020 11:06 24,7 °C 13,5 °C 40 % 59 % 1019,2 hPa 0,0 l/m² 9,4 km/h (2 Bft) SW 229 ° 2 min 519 W/m² 5,6 °C 11,8 °C 14,5 km/h (3 Bft)
16.03.2020 11:08 24,8 °C 13,6 °C 40 % 60 % 1019,2 hPa 0,0 l/m² 8,9 km/h (2 Bft) SW 215 ° 2 min 534 W/m² 6,0 °C 12,1 °C 14,5 km/h (3 Bft)
16.03.2020 11:10 24,8 °C 13,7 °C 40 % 56 % 1019,3 hPa 0,0 l/m² 10,6 km/h (2 Bft) SW 228 ° 2 min 577 W/m² 5,1 °C 11,4 °C 17,7 km/h (3 Bft)
16.03.2020 11:11 24,8 °C 13,7 °C 40 % 59 % 1019,3 hPa 0,0 l/m² 14,5 km/h (3 Bft) W-SW 239 ° 1 min 615 W/m² 5,8 °C 9,8 °C 22,5 km/h (4 Bft)
16.03.2020 11:12 24,8 °C 13,7 °C 40 % 56 % 1019,3 hPa 0,0 l/m² 17,2 km/h (3 Bft) SW 219 ° 1 min 522 W/m² 5,1 °C 8,9 °C 20,9 km/h (4 Bft)
16.03.2020 11:14 24,9 °C 13,5 °C 40 % 56 % 1019,2 hPa 0,0 l/m² 21,6 km/h (4 Bft) SW 227 ° 2 min 529 W/m² 4,9 °C 7,4 °C 25,7 km/h (4 Bft)
16.03.2020 11:16 24,9 °C 13,6 °C 40 % 56 % 1019,3 hPa 0,0 l/m² 16,1 km/h (3 Bft) SW 234 ° 2 min 547 W/m² 5,0 °C 9,1 °C 24,1 km/h (4 Bft)
16.03.2020 11:18 24,9 °C 13,6 °C 40 % 56 % 1019,3 hPa 0,0 l/m² 18,7 km/h (3 Bft) SW 225 ° 2 min 577 W/m² 5,0 °C 8,3 °C 22,5 km/h (4 Bft)
16.03.2020 11:20 25,0 °C 13,6 °C 40 % 57 % 1019,4 hPa 0,0 l/m² 13,4 km/h (3 Bft) SW 234 ° 2 min 540 W/m² 5,2 °C 10,1 °C 20,9 km/h (4 Bft)
16.03.2020 11:21 25,0 °C 13,7 °C 39 % 59 % 1019,4 hPa 0,0 l/m² 16,0 km/h (3 Bft) W-SW 247 ° 1 min 596 W/m² 5,8 °C 9,3 °C 22,5 km/h (4 Bft)
16.03.2020 11:22 25,0 °C 13,8 °C 39 % 56 % 1019,3 hPa 0,0 l/m² 13,8 km/h (3 Bft) SW 229 ° 1 min 543 W/m² 5,2 °C 10,2 °C 20,9 km/h (4 Bft)
16.03.2020 11:23 25,0 °C 13,8 °C 39 % 60 % 1019,3 hPa 0,0 l/m² 19,2 km/h (3 Bft) SW 229 ° 1 min 568 W/m² 6,2 °C 8,4 °C 24,1 km/h (4 Bft)
16.03.2020 11:25 25,1 °C 13,6 °C 39 % 56 % 1019,3 hPa 0,0 l/m² 17,7 km/h (3 Bft) SW 234 ° 2 min 559 W/m² 5,0 °C 8,6 °C 22,5 km/h (4 Bft)
16.03.2020 11:27 25,1 °C 13,5 °C 39 % 58 % 1019,3 hPa 0,0 l/m² 16,6 km/h (3 Bft) SW 229 ° 2 min 563 W/m² 5,4 °C 8,8 °C 24,1 km/h (4 Bft)
16.03.2020 11:29 25,1 °C 13,4 °C 39 % 59 % 1019,3 hPa 0,0 l/m² 17,1 km/h (3 Bft) SW 227 ° 2 min 559 W/m² 5,6 °C 8,5 °C 25,7 km/h (4 Bft)
16.03.2020 11:30 25,1 °C 13,6 °C 39 % 56 % 1019,3 hPa 0,0 l/m² 17,2 km/h (3 Bft) SW 228 ° 1 min 570 W/m² 5,0 °C 8,8 °C 24,1 km/h (4 Bft)
16.03.2020 11:31 25,1 °C 13,6 °C 39 % 54 % 1019,4 hPa 0,0 l/m² 17,5 km/h (3 Bft) SW 229 ° 1 min 524 W/m² 4,5 °C 8,7 °C 22,5 km/h (4 Bft)
16.03.2020 11:32 25,1 °C 13,7 °C 39 % 54 % 1019,4 hPa 0,0 l/m² 15,6 km/h (3 Bft) W 265 ° 1 min 524 W/m² 4,6 °C 9,4 °C 20,9 km/h (4 Bft)
16.03.2020 11:33 25,1 °C 13,8 °C 39 % 56 % 1019,4 hPa 0,0 l/m² 12,5 km/h (2 Bft) SW 236 ° 1 min 594 W/m² 5,2 °C 10,7 °C 14,5 km/h (3 Bft)
16.03.2020 11:35 25,1 °C 13,9 °C 39 % 58 % 1019,3 hPa 0,0 l/m² 12,5 km/h (2 Bft) SW 225 ° 2 min 624 W/m² 5,8 °C 10,8 °C 20,9 km/h (4 Bft)
16.03.2020 11:37 25,2 °C 14,0 °C 39 % 54 % 1019,3 hPa 0,0 l/m² 16,5 km/h (3 Bft) W-SW 246 ° 2 min 617 W/m² 4,8 °C 9,5 °C 20,9 km/h (4 Bft)
16.03.2020 11:39 25,2 °C 14,3 °C 39 % 54 % 1019,3 hPa 0,0 l/m² 15,6 km/h (3 Bft) W-SW 252 ° 2 min 647 W/m² 5,1 °C 10,1 °C 20,9 km/h (4 Bft)
16.03.2020 11:40 25,2 °C 14,3 °C 39 % 55 % 1019,4 hPa 0,0 l/m² 15,3 km/h (3 Bft) SW 225 ° 1 min 605 W/m² 5,4 °C 10,2 °C 17,7 km/h (3 Bft)
16.03.2020 11:41 25,2 °C 14,3 °C 39 % 55 % 1019,4 hPa 0,0 l/m² 15,4 km/h (3 Bft) W 275 ° 1 min 613 W/m² 5,4 °C 10,2 °C 19,3 km/h (3 Bft)
16.03.2020 11:42 25,2 °C 14,3 °C 39 % 57 % 1019,4 hPa 0,0 l/m² 14,8 km/h (3 Bft) SW 233 ° 1 min 608 W/m² 5,9 °C 10,4 °C 19,3 km/h (3 Bft)
16.03.2020 11:43 25,2 °C 14,4 °C 39 % 57 % 1019,4 hPa 0,0 l/m² 17,9 km/h (3 Bft) SW 230 ° 1 min 577 W/m² 6,0 °C 9,6 °C 27,4 km/h (5 Bft)
16.03.2020 11:45 25,2 °C 14,4 °C 39 % 53 % 1019,4 hPa 0,0 l/m² 17,5 km/h (3 Bft) SW 225 ° 2 min 621 W/m² 4,9 °C 9,7 °C 25,7 km/h (4 Bft)
16.03.2020 11:47 25,2 °C 14,3 °C 39 % 54 % 1019,4 hPa 0,0 l/m² 16,6 km/h (3 Bft) SW 230 ° 2 min 508 W/m² 5,1 °C 9,8 °C 22,5 km/h (4 Bft)
16.03.2020 11:49 25,2 °C 14,2 °C 39 % 53 % 1019,4 hPa 0,0 l/m² 17,9 km/h (3 Bft) SW 219 ° 2 min 501 W/m² 4,8 °C 9,3 °C 24,1 km/h (4 Bft)
16.03.2020 11:50 25,2 °C 14,1 °C 39 % 56 % 1019,2 hPa 0,0 l/m² 16,5 km/h (3 Bft) SW 225 ° 1 min 503 W/m² 5,5 °C 9,6 °C 24,1 km/h (4 Bft)
16.03.2020 11:51 25,2 °C 14,1 °C 39 % 55 % 1019,2 hPa 0,0 l/m² 19,6 km/h (3 Bft) SW 225 ° 1 min 524 W/m² 5,2 °C 8,7 °C 24,1 km/h (4 Bft)
16.03.2020 11:52 25,2 °C 14,0 °C 39 % 53 % 1019,3 hPa 0,0 l/m² 17,0 km/h (3 Bft) W-SW 238 ° 1 min 554 W/m² 4,6 °C 9,3 °C 20,9 km/h (4 Bft)
16.03.2020 11:53 25,2 °C 14,1 °C 39 % 55 % 1019,3 hPa 0,0 l/m² 16,9 km/h (3 Bft) SW 228 ° 1 min 564 W/m² 5,2 °C 9,5 °C 22,5 km/h (4 Bft)
16.03.2020 11:55 25,2 °C 14,1 °C 39 % 54 % 1019,4 hPa 0,0 l/m² 14,5 km/h (3 Bft) SW 227 ° 2 min 598 W/m² 4,9 °C 10,3 °C 24,1 km/h (4 Bft)
16.03.2020 11:57 25,2 °C 14,3 °C 39 % 56 % 1019,3 hPa 0,0 l/m² 15,0 km/h (3 Bft) SW 227 ° 2 min 635 W/m² 5,6 °C 10,3 °C 22,5 km/h (4 Bft)
16.03.2020 11:58 25,2 °C 14,4 °C 39 % 54 % 1019,5 hPa 0,0 l/m² 12,7 km/h (3 Bft) SW 223 ° 1 min 598 W/m² 5,2 °C 11,3 °C 17,7 km/h (3 Bft)
16.03.2020 12:00 25,2 °C 14,7 °C 39 % 55 % 1019,5 hPa 0,0 l/m² 12,3 km/h (2 Bft) SW 229 ° 2 min 564 W/m² 5,8 °C 11,8 °C 16,1 km/h (3 Bft)
16.03.2020 12:01 25,2 °C 14,7 °C 39 % 52 % 1019,6 hPa 0,0 l/m² 13,7 km/h (3 Bft) W 259 ° 1 min 594 W/m² 5,0 °C 11,3 °C 19,3 km/h (3 Bft)
16.03.2020 12:02 25,2 °C 14,8 °C 39 % 52 % 1019,6 hPa 0,0 l/m² 17,8 km/h (3 Bft) W-SW 241 ° 1 min 599 W/m² 5,0 °C 10,1 °C 20,9 km/h (4 Bft)
16.03.2020 12:03 25,3 °C 14,8 °C 39 % 52 % 1019,5 hPa 0,0 l/m² 11,6 km/h (2 Bft) SW 226 ° 1 min 564 W/m² 5,0 °C 12,2 °C 17,7 km/h (3 Bft)
16.03.2020 12:05 25,2 °C 14,8 °C 39 % 52 % 1019,5 hPa 0,0 l/m² 13,6 km/h (3 Bft) SW 232 ° 2 min 619 W/m² 5,0 °C 11,4 °C 19,3 km/h (3 Bft)
16.03.2020 12:07 25,2 °C 14,9 °C 39 % 56 % 1019,6 hPa 0,0 l/m² 12,0 km/h (2 Bft) W-SW 238 ° 2 min 657 W/m² 6,2 °C 12,2 °C 20,9 km/h (4 Bft)
16.03.2020 12:09 25,3 °C 15,1 °C 39 % 54 % 1019,6 hPa 0,0 l/m² 12,3 km/h (2 Bft) W-SW 254 ° 2 min 657 W/m² 5,9 °C 12,3 °C 20,9 km/h (4 Bft)
16.03.2020 12:10 25,3 °C 15,2 °C 39 % 51 % 1019,6 hPa 0,0 l/m² 17,0 km/h (3 Bft) W-SW 244 ° 1 min 654 W/m² 5,1 °C 10,8 °C 19,3 km/h (3 Bft)
16.03.2020 12:11 25,3 °C 15,2 °C 39 % 51 % 1019,6 hPa 0,0 l/m² 15,9 km/h (3 Bft) S-SW 208 ° 1 min 629 W/m² 5,1 °C 11,1 °C 20,9 km/h (4 Bft)
16.03.2020 12:12 25,3 °C 15,2 °C 39 % 54 % 1019,6 hPa 0,0 l/m² 13,1 km/h (3 Bft) SW 227 ° 1 min 578 W/m² 6,0 °C 12,1 °C 17,7 km/h (3 Bft)
16.03.2020 12:13 25,3 °C 15,1 °C 39 % 54 % 1019,5 hPa 0,0 l/m² 13,2 km/h (3 Bft) SW 226 ° 1 min 545 W/m² 5,9 °C 11,9 °C 17,7 km/h (3 Bft)
16.03.2020 12:15 25,2 °C 15,2 °C 39 % 51 % 1019,5 hPa 0,0 l/m² 12,4 km/h (2 Bft) SW 228 ° 2 min 550 W/m² 5,1 °C 12,3 °C 16,1 km/h (3 Bft)
16.03.2020 12:17 25,2 °C 15,0 °C 39 % 55 % 1019,6 hPa 0,0 l/m² 13,0 km/h (3 Bft) SW 236 ° 2 min 508 W/m² 6,0 °C 11,9 °C 17,7 km/h (3 Bft)
16.03.2020 12:19 25,2 °C 14,8 °C 39 % 53 % 1019,6 hPa 0,0 l/m² 14,8 km/h (3 Bft) W-SW 238 ° 2 min 568 W/m² 5,3 °C 11,0 °C 20,9 km/h (4 Bft)
16.03.2020 12:21 25,2 °C 14,8 °C 39 % 57 % 1019,7 hPa 0,0 l/m² 14,0 km/h (3 Bft) SW 232 ° 2 min 512 W/m² 6,4 °C 11,3 °C 19,3 km/h (3 Bft)
16.03.2020 12:22 25,1 °C 14,8 °C 39 % 54 % 1019,7 hPa 0,0 l/m² 14,1 km/h (3 Bft) SW 232 ° 1 min 548 W/m² 5,6 °C 11,3 °C 20,9 km/h (4 Bft)
16.03.2020 12:23 25,1 °C 14,8 °C 39 % 54 % 1019,7 hPa 0,0 l/m² 17,0 km/h (3 Bft) SW 230 ° 1 min 526 W/m² 5,6 °C 10,3 °C 24,1 km/h (4 Bft)
16.03.2020 12:25 25,1 °C 14,8 °C 40 % 56 % 1019,7 hPa 0,0 l/m² 12,6 km/h (3 Bft) W-SW 246 ° 2 min 585 W/m² 6,1 °C 11,8 °C 16,1 km/h (3 Bft)
16.03.2020 12:27 25,1 °C 14,9 °C 40 % 57 % 1019,7 hPa 0,0 l/m² 12,1 km/h (2 Bft) SW 230 ° 2 min 555 W/m² 6,5 °C 12,1 °C 20,9 km/h (4 Bft)
16.03.2020 12:29 25,1 °C 15,1 °C 40 % 57 % 1019,6 hPa 0,0 l/m² 9,3 km/h (2 Bft) SW 233 ° 2 min 555 W/m² 6,6 °C 13,6 °C 12,9 km/h (3 Bft)
16.03.2020 12:31 25,1 °C 15,3 °C 40 % 55 % 1019,8 hPa 0,0 l/m² 11,5 km/h (2 Bft) W-SW 243 ° 2 min 605 W/m² 6,3 °C 12,8 °C 17,7 km/h (3 Bft)
16.03.2020 12:32 25,1 °C 15,3 °C 40 % 56 % 1019,7 hPa 0,0 l/m² 11,5 km/h (2 Bft) SW 222 ° 1 min 578 W/m² 6,6 °C 12,8 °C 17,7 km/h (3 Bft)
16.03.2020 12:33 25,1 °C 15,2 °C 40 % 57 % 1019,7 hPa 0,0 l/m² 10,4 km/h (2 Bft) W-SW 237 ° 1 min 585 W/m² 6,7 °C 13,2 °C 16,1 km/h (3 Bft)
16.03.2020 12:35 25,1 °C 15,2 °C 40 % 51 % 1019,7 hPa 0,0 l/m² 13,4 km/h (3 Bft) SW 236 ° 2 min 527 W/m² 5,1 °C 12,0 °C 19,3 km/h (3 Bft)
16.03.2020 12:37 25,0 °C 15,2 °C 40 % 51 % 1019,7 hPa 0,0 l/m² 11,3 km/h (2 Bft) W-SW 250 ° 2 min 504 W/m² 5,1 °C 12,8 °C 16,1 km/h (3 Bft)
16.03.2020 12:39 25,0 °C 15,2 °C 40 % 54 % 1019,8 hPa 0,0 l/m² 13,0 km/h (3 Bft) SW 223 ° 2 min 570 W/m² 6,0 °C 12,1 °C 17,7 km/h (3 Bft)
16.03.2020 12:41 25,0 °C 15,1 °C 40 % 56 % 1019,7 hPa 0,0 l/m² 11,7 km/h (2 Bft) W-SW 247 ° 2 min 561 W/m² 6,4 °C 12,5 °C 17,7 km/h (3 Bft)
16.03.2020 12:42 25,0 °C 15,1 °C 40 % 53 % 1019,8 hPa 0,0 l/m² 13,0 km/h (3 Bft) W-SW 254 ° 1 min 570 W/m² 5,6 °C 12,0 °C 17,7 km/h (3 Bft)
16.03.2020 12:43 25,0 °C 15,2 °C 40 % 52 % 1019,8 hPa 0,0 l/m² 13,2 km/h (3 Bft) SW 223 ° 1 min 536 W/m² 5,4 °C 12,1 °C 16,1 km/h (3 Bft)
16.03.2020 12:45 25,0 °C 15,2 °C 40 % 53 % 1019,8 hPa 0,0 l/m² 9,3 km/h (2 Bft) W-SW 244 ° 2 min 561 W/m² 5,7 °C 13,7 °C 17,7 km/h (3 Bft)
16.03.2020 12:48 24,9 °C 15,3 °C 40 % 54 % 1019,8 hPa 0,0 l/m² 10,6 km/h (2 Bft) W-SW 250 ° 3 min 571 W/m² 6,0 °C 13,2 °C 16,1 km/h (3 Bft)
16.03.2020 12:49 24,9 °C 15,3 °C 40 % 51 % 1019,8 hPa 0,0 l/m² 12,7 km/h (3 Bft) SW 224 ° 1 min 538 W/m² 5,2 °C 12,4 °C 16,1 km/h (3 Bft)
16.03.2020 12:50 25,0 °C 15,3 °C 41 % 53 % 1019,8 hPa 0,0 l/m² 14,2 km/h (3 Bft) SW 220 ° 1 min 531 W/m² 5,8 °C 11,8 °C 17,7 km/h (3 Bft)
16.03.2020 12:51 25,0 °C 15,3 °C 41 % 53 % 1019,8 hPa 0,0 l/m² 14,3 km/h (3 Bft) SW 219 ° 1 min 580 W/m² 5,8 °C 11,8 °C 16,1 km/h (3 Bft)
16.03.2020 12:53 24,9 °C 15,0 °C 40 % 51 % 1019,8 hPa 0,0 l/m² 13,0 km/h (3 Bft) SW 236 ° 2 min 550 W/m² 4,9 °C 11,9 °C 17,7 km/h (3 Bft)
16.03.2020 12:55 24,9 °C 15,1 °C 40 % 59 % 1019,7 hPa 0,0 l/m² 9,2 km/h (2 Bft) W-SW 247 ° 2 min 582 W/m² 7,1 °C 13,6 °C 14,5 km/h (3 Bft)
16.03.2020 12:57 24,9 °C 15,4 °C 40 % 54 % 1019,7 hPa 0,0 l/m² 10,9 km/h (2 Bft) W-SW 254 ° 2 min 580 W/m² 6,1 °C 13,2 °C 16,1 km/h (3 Bft)
16.03.2020 12:58 24,9 °C 15,5 °C 40 % 52 % 1019,8 hPa 0,0 l/m² 14,3 km/h (3 Bft) W-SW 241 ° 1 min 548 W/m² 5,7 °C 12,0 °C 17,7 km/h (3 Bft)
16.03.2020 12:59 24,9 °C 15,5 °C 40 % 54 % 1019,8 hPa 0,0 l/m² 11,3 km/h (2 Bft) W-SW 252 ° 1 min 552 W/m² 6,2 °C 13,1 °C 14,5 km/h (3 Bft)
16.03.2020 13:01 24,9 °C 15,6 °C 39 % 58 % 1019,7 hPa 0,0 l/m² 11,3 km/h (2 Bft) S-SW 205 ° 2 min 615 W/m² 7,4 °C 13,2 °C 19,3 km/h (3 Bft)
16.03.2020 13:02 24,9 °C 15,6 °C 40 % 57 % 1019,8 hPa 0,0 l/m² 8,0 km/h (2 Bft) SW 233 ° 1 min 626 W/m² 7,1 °C 14,7 °C 11,3 km/h (2 Bft)
16.03.2020 13:03 24,9 °C 15,6 °C 40 % 55 % 1019,8 hPa 0,0 l/m² 10,8 km/h (2 Bft) W-SW 240 ° 1 min 589 W/m² 6,6 °C 13,4 °C 12,9 km/h (3 Bft)
16.03.2020 13:05 24,9 °C 15,7 °C 40 % 53 % 1019,8 hPa 0,0 l/m² 13,0 km/h (3 Bft) SW 226 ° 2 min 575 W/m² 6,1 °C 12,7 °C 17,7 km/h (3 Bft)
16.03.2020 13:07 24,8 °C 15,8 °C 40 % 57 % 1019,7 hPa 0,0 l/m² 13,9 km/h (3 Bft) SW 236 ° 2 min 559 W/m² 7,3 °C 12,5 °C 17,7 km/h (3 Bft)
16.03.2020 13:09 24,8 °C 15,6 °C 40 % 54 % 1019,7 hPa 0,0 l/m² 11,1 km/h (2 Bft) S-SW 211 ° 2 min 541 W/m² 6,3 °C 13,3 °C 16,1 km/h (3 Bft)
16.03.2020 13:12 24,8 °C 15,5 °C 40 % 56 % 1019,7 hPa 0,0 l/m² 13,3 km/h (3 Bft) W-SW 246 ° 3 min 640 W/m² 6,8 °C 12,4 °C 17,7 km/h (3 Bft)
16.03.2020 13:13 24,8 °C 15,7 °C 40 % 54 % 1019,7 hPa 0,0 l/m² 14,2 km/h (3 Bft) SW 232 ° 1 min 631 W/m² 6,4 °C 12,3 °C 19,3 km/h (3 Bft)
16.03.2020 13:14 24,8 °C 15,9 °C 40 % 53 % 1019,7 hPa 0,0 l/m² 13,0 km/h (3 Bft) W-SW 239 ° 1 min 624 W/m² 6,3 °C 12,9 °C 17,7 km/h (3 Bft)
16.03.2020 13:15 24,8 °C 15,9 °C 40 % 54 % 1019,8 hPa 0,0 l/m² 15,4 km/h (3 Bft) W-SW 239 ° 1 min 619 W/m² 6,6 °C 12,2 °C 17,7 km/h (3 Bft)
16.03.2020 13:17 24,8 °C 15,8 °C 40 % 57 % 1019,8 hPa 0,0 l/m² 11,9 km/h (2 Bft) SW 232 ° 2 min 628 W/m² 7,3 °C 13,2 °C 17,7 km/h (3 Bft)
16.03.2020 13:19 24,8 °C 15,8 °C 40 % 55 % 1019,8 hPa 0,0 l/m² 14,0 km/h (3 Bft) SW 236 ° 2 min 615 W/m² 6,8 °C 12,5 °C 19,3 km/h (3 Bft)
16.03.2020 13:22 24,8 °C 15,7 °C 40 % 55 % 1019,8 hPa 0,0 l/m² 12,7 km/h (3 Bft) SW 221 ° 3 min 552 W/m² 6,7 °C 12,8 °C 17,7 km/h (3 Bft)
16.03.2020 13:23 24,8 °C 15,6 °C 40 % 56 % 1019,7 hPa 0,0 l/m² 14,7 km/h (3 Bft) S-SW 208 ° 1 min 480 W/m² 6,9 °C 12,0 °C 17,7 km/h (3 Bft)
16.03.2020 13:25 24,8 °C 15,3 °C 40 % 56 % 1019,7 hPa 0,0 l/m² 14,7 km/h (3 Bft) SW 224 ° 2 min 515 W/m² 6,6 °C 11,7 °C 19,3 km/h (3 Bft)
16.03.2020 13:27 24,8 °C 15,3 °C 40 % 60 % 1019,7 hPa 0,0 l/m² 10,7 km/h (2 Bft) SW 215 ° 2 min 561 W/m² 7,6 °C 13,1 °C 14,5 km/h (3 Bft)
16.03.2020 13:29 24,8 °C 15,3 °C 40 % 54 % 1019,7 hPa 0,0 l/m² 14,3 km/h (3 Bft) SW 232 ° 2 min 533 W/m² 6,0 °C 11,8 °C 17,7 km/h (3 Bft)
16.03.2020 13:32 24,8 °C 15,2 °C 40 % 56 % 1019,7 hPa 0,0 l/m² 14,2 km/h (3 Bft) S-SW 210 ° 3 min 459 W/m² 6,5 °C 11,7 °C 17,7 km/h (3 Bft)
16.03.2020 13:35 24,8 °C 15,2 °C 40 % 56 % 1019,7 hPa 0,0 l/m² 15,5 km/h (3 Bft) S-SW 199 ° 3 min 513 W/m² 6,5 °C 11,3 °C 22,5 km/h (4 Bft)
16.03.2020 13:37 24,8 °C 15,2 °C 40 % 57 % 1019,7 hPa 0,0 l/m² 15,0 km/h (3 Bft) W-SW 246 ° 2 min 527 W/m² 6,7 °C 11,4 °C 19,3 km/h (3 Bft)
16.03.2020 13:39 24,7 °C 15,3 °C 40 % 55 % 1019,6 hPa 0,0 l/m² 13,6 km/h (3 Bft) SW 218 ° 2 min 578 W/m² 6,3 °C 12,0 °C 19,3 km/h (3 Bft)
16.03.2020 13:42 24,7 °C 15,4 °C 40 % 56 % 1019,6 hPa 0,0 l/m² 16,6 km/h (3 Bft) SW 228 ° 3 min 587 W/m² 6,7 °C 11,2 °C 22,5 km/h (4 Bft)
16.03.2020 13:43 24,7 °C 15,5 °C 40 % 58 % 1019,6 hPa 0,0 l/m² 14,9 km/h (3 Bft) SW 216 ° 1 min 540 W/m² 7,3 °C 11,8 °C 20,9 km/h (4 Bft)
16.03.2020 13:44 24,7 °C 15,4 °C 40 % 56 % 1019,6 hPa 0,0 l/m² 15,0 km/h (3 Bft) SW 219 ° 1 min 512 W/m² 6,7 °C 11,7 °C 17,7 km/h (3 Bft)
16.03.2020 13:45 24,7 °C 15,4 °C 40 % 56 % 1019,6 hPa 0,0 l/m² 14,0 km/h (3 Bft) S-SW 201 ° 1 min 494 W/m² 6,7 °C 12,0 °C 16,1 km/h (3 Bft)
16.03.2020 13:46 24,7 °C 15,4 °C 40 % 56 % 1019,7 hPa 0,0 l/m² 15,2 km/h (3 Bft) S-SW 193 ° 1 min 520 W/m² 6,7 °C 11,6 °C 17,7 km/h (3 Bft)
16.03.2020 13:48 24,7 °C 15,4 °C 40 % 57 % 1019,7 hPa 0,0 l/m² 14,5 km/h (3 Bft) S-SW 212 ° 2 min 536 W/m² 6,9 °C 11,8 °C 19,3 km/h (3 Bft)
16.03.2020 13:50 24,7 °C 15,5 °C 40 % 56 % 1019,6 hPa 0,0 l/m² 16,7 km/h (3 Bft) SW 228 ° 2 min 526 W/m² 6,8 °C 11,3 °C 25,7 km/h (4 Bft)
16.03.2020 13:53 24,7 °C 15,8 °C 40 % 54 % 1019,6 hPa 0,0 l/m² 16,7 km/h (3 Bft) S-SW 208 ° 3 min 480 W/m² 6,5 °C 11,7 °C 22,5 km/h (4 Bft)
16.03.2020 13:55 24,7 °C 15,8 °C 40 % 58 % 1019,6 hPa 0,0 l/m² 13,4 km/h (3 Bft) SW 219 ° 2 min 513 W/m² 7,6 °C 12,7 °C 19,3 km/h (3 Bft)
16.03.2020 13:57 24,7 °C 15,7 °C 40 % 58 % 1019,7 hPa 0,0 l/m² 15,9 km/h (3 Bft) W-SW 240 ° 2 min 499 W/m² 7,5 °C 11,8 °C 22,5 km/h (4 Bft)
16.03.2020 13:59 24,7 °C 15,7 °C 40 % 55 % 1019,6 hPa 0,0 l/m² 19,2 km/h (3 Bft) SW 217 ° 2 min 482 W/m² 6,7 °C 10,9 °C 22,5 km/h (4 Bft)
16.03.2020 14:02 24,7 °C 15,6 °C 41 % 56 % 1019,6 hPa 0,0 l/m² 16,9 km/h (3 Bft) S-SW 206 ° 3 min 496 W/m² 6,9 °C 11,3 °C 20,9 km/h (4 Bft)
16.03.2020 14:03 24,7 °C 15,6 °C 41 % 59 % 1019,6 hPa 0,0 l/m² 14,9 km/h (3 Bft) S-SW 207 ° 1 min 459 W/m² 7,6 °C 12,0 °C 17,7 km/h (3 Bft)
16.03.2020 14:04 24,7 °C 15,6 °C 41 % 60 % 1019,7 hPa 0,0 l/m² 14,6 km/h (3 Bft) SW 236 ° 1 min 478 W/m² 7,9 °C 12,0 °C 19,3 km/h (3 Bft)
16.03.2020 14:05 24,7 °C 15,7 °C 41 % 56 % 1019,7 hPa 0,0 l/m² 19,1 km/h (3 Bft) SW 230 ° 1 min 480 W/m² 6,9 °C 10,9 °C 22,5 km/h (4 Bft)
16.03.2020 14:06 24,7 °C 15,7 °C 41 % 57 % 1019,7 hPa 0,0 l/m² 13,8 km/h (3 Bft) SW 233 ° 1 min 429 W/m² 7,2 °C 12,4 °C 17,7 km/h (3 Bft)
16.03.2020 14:08 24,7 °C 15,8 °C 41 % 55 % 1019,7 hPa 0,0 l/m² 17,8 km/h (3 Bft) SW 229 ° 2 min 510 W/m² 6,8 °C 11,3 °C 22,5 km/h (4 Bft)
16.03.2020 14:10 24,7 °C 15,8 °C 41 % 56 % 1019,6 hPa 0,0 l/m² 17,6 km/h (3 Bft) SW 230 ° 2 min 513 W/m² 7,0 °C 11,4 °C 20,9 km/h (4 Bft)
16.03.2020 14:13 24,7 °C 15,7 °C 41 % 58 % 1019,7 hPa 0,0 l/m² 17,1 km/h (3 Bft) SW 229 ° 3 min 380 W/m² 7,5 °C 11,4 °C 22,5 km/h (4 Bft)
16.03.2020 14:15 24,7 °C 15,7 °C 41 % 58 % 1019,6 hPa 0,0 l/m² 13,2 km/h (3 Bft) W-SW 240 ° 2 min 461 W/m² 7,5 °C 12,6 °C 20,9 km/h (4 Bft)
16.03.2020 14:17 24,7 °C 15,9 °C 41 % 54 % 1019,7 hPa 0,0 l/m² 16,6 km/h (3 Bft) W-SW 248 ° 2 min 380 W/m² 6,6 °C 11,8 °C 20,9 km/h (4 Bft)
16.03.2020 14:19 24,7 °C 15,8 °C 41 % 54 % 1019,7 hPa 0,0 l/m² 14,4 km/h (3 Bft) SW 234 ° 2 min 376 W/m² 6,5 °C 12,4 °C 19,3 km/h (3 Bft)
16.03.2020 14:22 24,7 °C 15,7 °C 41 % 57 % 1019,7 hPa 0,0 l/m² 12,4 km/h (2 Bft) W-SW 246 ° 3 min 482 W/m² 7,2 °C 12,9 °C 17,7 km/h (3 Bft)
16.03.2020 14:24 24,6 °C 15,8 °C 41 % 57 % 1019,7 hPa 0,0 l/m² 15,0 km/h (3 Bft) SW 214 ° 2 min 373 W/m² 7,3 °C 12,2 °C 19,3 km/h (3 Bft)
16.03.2020 14:26 24,6 °C 15,7 °C 41 % 56 % 1019,7 hPa 0,0 l/m² 14,9 km/h (3 Bft) SW 227 ° 2 min 355 W/m² 6,9 °C 12,1 °C 20,9 km/h (4 Bft)
16.03.2020 14:28 24,6 °C 15,5 °C 41 % 58 % 1019,7 hPa 0,0 l/m² 10,8 km/h (2 Bft) W-SW 242 ° 2 min 385 W/m² 7,3 °C 13,3 °C 16,1 km/h (3 Bft)
16.03.2020 14:30 24,6 °C 15,6 °C 41 % 56 % 1019,7 hPa 0,0 l/m² 10,7 km/h (2 Bft) SW 228 ° 2 min 415 W/m² 6,9 °C 13,5 °C 16,1 km/h (3 Bft)
16.03.2020 14:33 24,6 °C 15,8 °C 41 % 56 % 1019,6 hPa 0,0 l/m² 9,6 km/h (2 Bft) SW 228 ° 3 min 462 W/m² 7,0 °C 14,2 °C 14,5 km/h (3 Bft)
16.03.2020 14:35 24,6 °C 15,8 °C 41 % 57 % 1019,7 hPa 0,0 l/m² 12,3 km/h (2 Bft) SW 230 ° 2 min 385 W/m² 7,3 °C 13,1 °C 17,7 km/h (3 Bft)
16.03.2020 14:37 24,6 °C 15,8 °C 41 % 54 % 1019,7 hPa 0,0 l/m² 13,6 km/h (3 Bft) SW 236 ° 2 min 420 W/m² 6,5 °C 12,6 °C 17,7 km/h (3 Bft)
16.03.2020 14:39 24,6 °C 15,8 °C 41 % 58 % 1019,7 hPa 0,0 l/m² 11,5 km/h (2 Bft) W-SW 237 ° 2 min 455 W/m² 7,6 °C 13,4 °C 16,1 km/h (3 Bft)
16.03.2020 14:41 24,6 °C 15,9 °C 41 % 55 % 1019,7 hPa 0,0 l/m² 11,5 km/h (2 Bft) W-SW 250 ° 2 min 490 W/m² 6,9 °C 13,5 °C 17,7 km/h (3 Bft)
16.03.2020 14:42 24,6 °C 16,1 °C 41 % 54 % 1019,8 hPa 0,0 l/m² 10,5 km/h (2 Bft) W-SW 247 ° 1 min 497 W/m² 6,8 °C 14,1 °C 14,5 km/h (3 Bft)
16.03.2020 14:43 24,6 °C 16,3 °C 41 % 54 % 1019,7 hPa 0,0 l/m² 9,9 km/h (2 Bft) SW 222 ° 1 min 489 W/m² 7,0 °C 14,6 °C 12,9 km/h (3 Bft)
16.03.2020 14:44 24,6 °C 16,3 °C 41 % 58 % 1019,7 hPa 0,0 l/m² 7,0 km/h (2 Bft) W 265 ° 1 min 487 W/m² 8,0 °C 16,0 °C 9,7 km/h (2 Bft)
16.03.2020 14:46 24,6 °C 16,4 °C 41 % 56 % 1019,8 hPa 0,0 l/m² 12,5 km/h (2 Bft) W-SW 249 ° 2 min 496 W/m² 7,6 °C 13,7 °C 22,5 km/h (4 Bft)
16.03.2020 14:48 24,6 °C 16,3 °C 41 % 57 % 1019,7 hPa 0,0 l/m² 14,4 km/h (3 Bft) W-SW 244 ° 2 min 478 W/m² 7,8 °C 13,0 °C 19,3 km/h (3 Bft)
16.03.2020 14:50 24,6 °C 16,1 °C 41 % 56 % 1019,8 hPa 0,0 l/m² 11,0 km/h (2 Bft) SW 218 ° 2 min 468 W/m² 7,3 °C 13,9 °C 16,1 km/h (3 Bft)
16.03.2020 14:53 24,6 °C 16,1 °C 41 % 58 % 1019,8 hPa 0,0 l/m² 12,4 km/h (2 Bft) SW 231 ° 3 min 439 W/m² 7,8 °C 13,4 °C 16,1 km/h (3 Bft)
16.03.2020 14:55 24,6 °C 16,1 °C 41 % 55 % 1019,9 hPa 0,0 l/m² 14,9 km/h (3 Bft) SW 217 ° 2 min 434 W/m² 7,1 °C 12,6 °C 19,3 km/h (3 Bft)
16.03.2020 14:57 24,6 °C 15,9 °C 41 % 56 % 1019,8 hPa 0,0 l/m² 13,5 km/h (3 Bft) SW 229 ° 2 min 422 W/m² 7,1 °C 12,8 °C 17,7 km/h (3 Bft)
16.03.2020 14:59 24,6 °C 15,9 °C 41 % 59 % 1019,8 hPa 0,0 l/m² 13,0 km/h (3 Bft) SW 226 ° 2 min 362 W/m² 7,9 °C 12,9 °C 19,3 km/h (3 Bft)
16.03.2020 15:02 24,6 °C 15,8 °C 41 % 60 % 1019,8 hPa 0,0 l/m² 10,6 km/h (2 Bft) SW 233 ° 3 min 343 W/m² 8,1 °C 13,7 °C 16,1 km/h (3 Bft)
16.03.2020 15:03 24,6 °C 15,8 °C 41 % 60 % 1019,8 hPa 0,0 l/m² 10,0 km/h (2 Bft) SW 222 ° 1 min 353 W/m² 8,1 °C 14,0 °C 14,5 km/h (3 Bft)
16.03.2020 15:04 24,6 °C 15,8 °C 41 % 62 % 1019,9 hPa 0,0 l/m² 6,6 km/h (2 Bft) W-SW 254 ° 1 min 311 W/m² 8,5 °C 15,7 °C 8,0 km/h (2 Bft)
16.03.2020 15:05 24,6 °C 15,8 °C 41 % 58 % 1019,9 hPa 0,0 l/m² 11,3 km/h (2 Bft) SW 232 ° 1 min 309 W/m² 7,6 °C 13,5 °C 16,1 km/h (3 Bft)
16.03.2020 15:06 24,6 °C 15,9 °C 41 % 57 % 1019,9 hPa 0,0 l/m² 13,1 km/h (3 Bft) SW 234 ° 1 min 311 W/m² 7,4 °C 12,9 °C 16,1 km/h (3 Bft)
16.03.2020 15:08 24,6 °C 16,1 °C 41 % 56 % 1019,9 hPa 0,0 l/m² 11,0 km/h (2 Bft) W-SW 243 ° 2 min 327 W/m² 7,3 °C 13,9 °C 14,5 km/h (3 Bft)
16.03.2020 15:10 24,5 °C 16,0 °C 41 % 55 % 1019,9 hPa 0,0 l/m² 11,6 km/h (2 Bft) W-SW 242 ° 2 min 322 W/m² 7,0 °C 13,6 °C 17,7 km/h (3 Bft)
16.03.2020 15:13 24,6 °C 15,8 °C 41 % 60 % 1019,9 hPa 0,0 l/m² 10,4 km/h (2 Bft) SW 223 ° 3 min 306 W/m² 8,1 °C 13,8 °C 17,7 km/h (3 Bft)
16.03.2020 15:15 24,6 °C 15,7 °C 41 % 57 % 1019,9 hPa 0,0 l/m² 12,8 km/h (3 Bft) SW 221 ° 2 min 302 W/m² 7,2 °C 12,8 °C 17,7 km/h (3 Bft)
16.03.2020 15:17 24,5 °C 15,6 °C 41 % 59 % 1019,9 hPa 0,0 l/m² 11,5 km/h (2 Bft) SW 232 ° 2 min 301 W/m² 7,6 °C 13,2 °C 14,5 km/h (3 Bft)
16.03.2020 15:19 24,5 °C 15,7 °C 41 % 57 % 1020,0 hPa 0,0 l/m² 11,9 km/h (2 Bft) W-SW 254 ° 2 min 292 W/m² 7,2 °C 13,1 °C 17,7 km/h (3 Bft)
16.03.2020 15:22 24,5 °C 15,7 °C 41 % 59 % 1020,0 hPa 0,0 l/m² 8,5 km/h (2 Bft) W-SW 244 ° 3 min 327 W/m² 7,7 °C 14,6 °C 14,5 km/h (3 Bft)
16.03.2020 15:23 24,6 °C 15,8 °C 41 % 57 % 1020,1 hPa 0,0 l/m² 8,1 km/h (2 Bft) W-SW 240 ° 1 min 327 W/m² 7,3 °C 14,9 °C 11,3 km/h (2 Bft)
16.03.2020 15:24 24,6 °C 15,8 °C 41 % 59 % 1020,2 hPa 0,0 l/m² 10,7 km/h (2 Bft) SW 229 ° 1 min 332 W/m² 7,8 °C 13,7 °C 14,5 km/h (3 Bft)
16.03.2020 15:25 24,6 °C 15,8 °C 41 % 57 % 1020,2 hPa 0,0 l/m² 11,4 km/h (2 Bft) SW 215 ° 1 min 339 W/m² 7,3 °C 13,4 °C 16,1 km/h (3 Bft)
16.03.2020 15:26 24,5 °C 15,8 °C 41 % 59 % 1020,2 hPa 0,0 l/m² 7,8 km/h (2 Bft) SW 228 ° 1 min 341 W/m² 7,8 °C 15,0 °C 11,3 km/h (2 Bft)
16.03.2020 15:28 24,6 °C 15,8 °C 41 % 59 % 1020,2 hPa 0,0 l/m² 7,2 km/h (2 Bft) W-SW 241 ° 2 min 329 W/m² 7,8 °C 15,4 °C 12,9 km/h (3 Bft)
16.03.2020 15:30 24,6 °C 15,9 °C 41 % 58 % 1020,1 hPa 0,0 l/m² 9,7 km/h (2 Bft) SW 236 ° 2 min 318 W/m² 7,6 °C 14,2 °C 14,5 km/h (3 Bft)
16.03.2020 15:33 24,5 °C 16,1 °C 41 % 54 % 1020,2 hPa 0,0 l/m² 11,0 km/h (2 Bft) W-SW 238 ° 3 min 308 W/m² 6,8 °C 13,9 °C 17,7 km/h (3 Bft)
16.03.2020 15:35 24,6 °C 16,2 °C 41 % 55 % 1020,1 hPa 0,0 l/m² 10,8 km/h (2 Bft) W-SW 239 ° 2 min 320 W/m² 7,2 °C 14,1 °C 16,1 km/h (3 Bft)
16.03.2020 15:37 24,5 °C 16,1 °C 42 % 58 % 1020,2 hPa 0,0 l/m² 10,2 km/h (2 Bft) SW 228 ° 2 min 315 W/m² 7,8 °C 14,2 °C 14,5 km/h (3 Bft)
16.03.2020 15:39 24,5 °C 15,8 °C 42 % 56 % 1020,2 hPa 0,0 l/m² 10,9 km/h (2 Bft) SW 234 ° 2 min 313 W/m² 7,0 °C 13,6 °C 14,5 km/h (3 Bft)
16.03.2020 15:42 24,5 °C 15,9 °C 42 % 56 % 1020,3 hPa 0,0 l/m² 10,2 km/h (2 Bft) SW 224 ° 3 min 287 W/m² 7,1 °C 14,0 °C 14,5 km/h (3 Bft)
16.03.2020 15:43 24,6 °C 15,9 °C 42 % 57 % 1020,1 hPa 0,0 l/m² 10,5 km/h (2 Bft) SW 226 ° 1 min 290 W/m² 7,4 °C 13,9 °C 12,9 km/h (3 Bft)
16.03.2020 15:44 24,5 °C 15,8 °C 42 % 56 % 1020,1 hPa 0,0 l/m² 11,3 km/h (2 Bft) SW 233 ° 1 min 288 W/m² 7,0 °C 13,5 °C 14,5 km/h (3 Bft)
16.03.2020 15:45 24,5 °C 15,7 °C 42 % 57 % 1020,2 hPa 0,0 l/m² 10,0 km/h (2 Bft) SW 231 ° 1 min 297 W/m² 7,2 °C 13,9 °C 14,5 km/h (3 Bft)
16.03.2020 15:46 24,5 °C 15,7 °C 42 % 57 % 1020,2 hPa 0,0 l/m² 13,8 km/h (3 Bft) SW 223 ° 1 min 285 W/m² 7,2 °C 12,4 °C 16,1 km/h (3 Bft)
16.03.2020 15:48 24,5 °C 15,6 °C 42 % 57 % 1020,2 hPa 0,0 l/m² 11,4 km/h (2 Bft) SW 229 ° 2 min 278 W/m² 7,1 °C 13,2 °C 16,1 km/h (3 Bft)
16.03.2020 15:50 24,5 °C 15,6 °C 42 % 57 % 1020,3 hPa 0,0 l/m² 10,5 km/h (2 Bft) SW 218 ° 2 min 274 W/m² 7,1 °C 13,6 °C 14,5 km/h (3 Bft)
16.03.2020 15:53 24,5 °C 15,6 °C 42 % 58 % 1020,4 hPa 0,0 l/m² 9,7 km/h (2 Bft) SW 236 ° 3 min 297 W/m² 7,4 °C 13,9 °C 14,5 km/h (3 Bft)
16.03.2020 15:55 24,4 °C 15,9 °C 42 % 56 % 1020,3 hPa 0,0 l/m² 8,4 km/h (2 Bft) SW 223 ° 2 min 297 W/m² 7,1 °C 14,8 °C 11,3 km/h (2 Bft)
16.03.2020 15:57 24,5 °C 15,9 °C 42 % 57 % 1020,3 hPa 0,0 l/m² 10,5 km/h (2 Bft) SW 227 ° 2 min 283 W/m² 7,4 °C 13,9 °C 14,5 km/h (3 Bft)
16.03.2020 15:59 24,4 °C 15,8 °C 42 % 57 % 1020,4 hPa 0,0 l/m² 10,4 km/h (2 Bft) SW 216 ° 2 min 257 W/m² 7,3 °C 13,8 °C 14,5 km/h (3 Bft)
16.03.2020 16:02 24,4 °C 15,7 °C 42 % 61 % 1020,4 hPa 0,0 l/m² 9,1 km/h (2 Bft) W-SW 244 ° 3 min 269 W/m² 8,2 °C 14,3 °C 14,5 km/h (3 Bft)
16.03.2020 16:03 24,5 °C 15,7 °C 42 % 58 % 1020,4 hPa 0,0 l/m² 7,1 km/h (2 Bft) W-SW 238 ° 1 min 264 W/m² 7,5 °C 15,3 °C 9,7 km/h (2 Bft)
16.03.2020 16:04 24,4 °C 15,7 °C 42 % 59 % 1020,4 hPa 0,0 l/m² 8,3 km/h (2 Bft) W-SW 237 ° 1 min 265 W/m² 7,7 °C 14,7 °C 9,7 km/h (2 Bft)
16.03.2020 16:05 24,4 °C 15,8 °C 42 % 57 % 1020,4 hPa 0,0 l/m² 8,9 km/h (2 Bft) SW 222 ° 1 min 262 W/m² 7,3 °C 14,5 °C 11,3 km/h (2 Bft)
16.03.2020 16:07 24,4 °C 15,8 °C 42 % 61 % 1020,4 hPa 0,0 l/m² 5,4 km/h (2 Bft) W 259 ° 2 min 271 W/m² 8,3 °C 15,8 °C 8,0 km/h (2 Bft)
16.03.2020 16:09 24,4 °C 15,8 °C 42 % 58 % 1020,4 hPa 0,0 l/m² 8,3 km/h (2 Bft) SW 236 ° 2 min 264 W/m² 7,6 °C 14,8 °C 12,9 km/h (3 Bft)
16.03.2020 16:12 24,4 °C 15,8 °C 42 % 59 % 1020,4 hPa 0,0 l/m² 6,3 km/h (2 Bft) W-SW 238 ° 3 min 258 W/m² 7,8 °C 15,8 °C 8,0 km/h (2 Bft)
16.03.2020 16:13 24,4 °C 15,8 °C 42 % 58 % 1020,4 hPa 0,0 l/m² 6,9 km/h (2 Bft) W-SW 243 ° 1 min 267 W/m² 7,6 °C 15,5 °C 9,7 km/h (2 Bft)
16.03.2020 16:14 24,4 °C 15,9 °C 42 % 58 % 1020,4 hPa 0,0 l/m² 6,8 km/h (2 Bft) SW 236 ° 1 min 253 W/m² 7,6 °C 15,7 °C 14,5 km/h (3 Bft)
16.03.2020 16:15 24,4 °C 15,9 °C 42 % 59 % 1020,4 hPa 0,0 l/m² 11,0 km/h (2 Bft) SW 236 ° 1 min 230 W/m² 7,9 °C 13,7 °C 14,5 km/h (3 Bft)
16.03.2020 16:17 24,4 °C 15,8 °C 42 % 56 % 1020,4 hPa 0,0 l/m² 11,6 km/h (2 Bft) SW 230 ° 2 min 207 W/m² 7,0 °C 13,3 °C 16,1 km/h (3 Bft)
16.03.2020 16:19 24,4 °C 15,6 °C 42 % 58 % 1020,4 hPa 0,0 l/m² 11,9 km/h (2 Bft) W-SW 245 ° 2 min 237 W/m² 7,4 °C 13,0 °C 16,1 km/h (3 Bft)
16.03.2020 16:22 24,4 °C 15,4 °C 42 % 60 % 1020,4 hPa 0,0 l/m² 11,1 km/h (2 Bft) SW 227 ° 3 min 257 W/m² 7,7 °C 13,1 °C 16,1 km/h (3 Bft)
16.03.2020 16:23 24,4 °C 15,4 °C 42 % 60 % 1020,4 hPa 0,0 l/m² 9,9 km/h (2 Bft) SW 222 ° 1 min 255 W/m² 7,7 °C 13,6 °C 12,9 km/h (3 Bft)
16.03.2020 16:24 24,4 °C 15,4 °C 41 % 59 % 1020,4 hPa 0,0 l/m² 11,7 km/h (2 Bft) SW 232 ° 1 min 251 W/m² 7,4 °C 12,8 °C 14,5 km/h (3 Bft)
16.03.2020 16:25 24,4 °C 15,4 °C 41 % 59 % 1020,4 hPa 0,0 l/m² 7,8 km/h (2 Bft) W-SW 243 ° 1 min 246 W/m² 7,4 °C 14,6 °C 12,9 km/h (3 Bft)
16.03.2020 16:27 24,4 °C 15,6 °C 41 % 59 % 1020,4 hPa 0,0 l/m² 8,2 km/h (2 Bft) SW 234 ° 2 min 225 W/m² 7,6 °C 14,6 °C 11,3 km/h (2 Bft)
16.03.2020 16:29 24,4 °C 15,6 °C 41 % 59 % 1020,4 hPa 0,0 l/m² 6,5 km/h (2 Bft) SW 219 ° 2 min 211 W/m² 7,6 °C 15,6 °C 11,3 km/h (2 Bft)
16.03.2020 16:32 24,3 °C 15,6 °C 41 % 59 % 1020,5 hPa 0,0 l/m² 6,5 km/h (2 Bft) SW 234 ° 3 min 200 W/m² 7,6 °C 15,6 °C 12,9 km/h (3 Bft)
16.03.2020 16:33 24,3 °C 15,7 °C 41 % 58 % 1020,6 hPa 0,0 l/m² 8,0 km/h (2 Bft) SW 229 ° 1 min 209 W/m² 7,5 °C 14,8 °C 11,3 km/h (2 Bft)
16.03.2020 16:34 24,3 °C 15,7 °C 41 % 60 % 1020,7 hPa 0,0 l/m² 4,8 km/h (1 Bft) W-SW 246 ° 1 min 213 W/m² 8,0 °C 15,7 °C 6,4 km/h (2 Bft)
16.03.2020 16:35 24,3 °C 15,6 °C 41 % 60 % 1020,7 hPa 0,0 l/m² 5,2 km/h (1 Bft) SW 234 ° 1 min 227 W/m² 7,9 °C 15,6 °C 6,4 km/h (2 Bft)
16.03.2020 16:37 24,3 °C 15,8 °C 41 % 58 % 1020,7 hPa 0,0 l/m² 5,8 km/h (2 Bft) W-SW 240 ° 2 min 258 W/m² 7,6 °C 15,8 °C 8,0 km/h (2 Bft)
16.03.2020 16:39 24,3 °C 15,8 °C 41 % 61 % 1020,6 hPa 0,0 l/m² 5,6 km/h (2 Bft) W-SW 246 ° 2 min 236 W/m² 8,3 °C 15,8 °C 8,0 km/h (2 Bft)
16.03.2020 16:42 24,3 °C 16,0 °C 41 % 57 % 1020,7 hPa 0,0 l/m² 6,1 km/h (2 Bft) W-SW 241 ° 3 min 232 W/m² 7,5 °C 16,0 °C 11,3 km/h (2 Bft)
16.03.2020 16:43 24,3 °C 16,0 °C 41 % 56 % 1020,6 hPa 0,0 l/m² 8,9 km/h (2 Bft) W-SW 248 ° 1 min 221 W/m² 7,2 °C 14,7 °C 12,9 km/h (3 Bft)
16.03.2020 16:44 24,3 °C 15,9 °C 41 % 57 % 1020,6 hPa 0,0 l/m² 8,4 km/h (2 Bft) W-SW 238 ° 1 min 209 W/m² 7,4 °C 14,8 °C 11,3 km/h (2 Bft)
16.03.2020 16:45 24,3 °C 15,8 °C 41 % 57 % 1020,6 hPa 0,0 l/m² 6,8 km/h (2 Bft) W-SW 240 ° 1 min 195 W/m² 7,3 °C 15,6 °C 8,0 km/h (2 Bft)
16.03.2020 16:47 24,3 °C 15,8 °C 41 % 57 % 1020,6 hPa 0,0 l/m² 7,0 km/h (2 Bft) W-SW 244 ° 2 min 167 W/m² 7,3 °C 15,5 °C 11,3 km/h (2 Bft)
16.03.2020 16:49 24,3 °C 15,7 °C 41 % 57 % 1020,7 hPa 0,0 l/m² 6,0 km/h (2 Bft) W-SW 240 ° 2 min 113 W/m² 7,2 °C 15,7 °C 9,7 km/h (2 Bft)
16.03.2020 16:52 24,3 °C 15,4 °C 41 % 58 % 1020,8 hPa 0,0 l/m² 4,6 km/h (1 Bft) W-SW 242 ° 3 min 77 W/m² 7,2 °C 15,4 °C 8,0 km/h (2 Bft)
16.03.2020 16:53 24,3 °C 15,4 °C 41 % 57 % 1020,7 hPa 0,0 l/m² 3,6 km/h (1 Bft) W-SW 242 ° 1 min 76 W/m² 6,9 °C 15,4 °C 4,8 km/h (1 Bft)
16.03.2020 16:55 24,3 °C 15,4 °C 41 % 57 % 1020,8 hPa 0,0 l/m² 4,5 km/h (1 Bft) SW 236 ° 2 min 74 W/m² 6,9 °C 15,4 °C 8,0 km/h (2 Bft)
16.03.2020 16:57 24,2 °C 15,3 °C 41 % 58 % 1020,8 hPa 0,0 l/m² 4,1 km/h (1 Bft) W-SW 237 ° 2 min 60 W/m² 7,1 °C 15,3 °C 4,8 km/h (1 Bft)
16.03.2020 16:59 24,3 °C 15,2 °C 41 % 59 % 1020,8 hPa 0,0 l/m² 4,9 km/h (1 Bft) W-SW 242 ° 2 min 56 W/m² 7,2 °C 15,2 °C 6,4 km/h (2 Bft)
16.03.2020 17:02 24,2 °C 15,1 °C 41 % 59 % 1020,8 hPa 0,0 l/m² 4,6 km/h (1 Bft) W-SW 253 ° 3 min 81 W/m² 7,1 °C 15,1 °C 6,4 km/h (2 Bft)
16.03.2020 17:03 24,2 °C 14,9 °C 41 % 59 % 1020,8 hPa 0,0 l/m² 5,7 km/h (2 Bft) W-SW 257 ° 1 min 90 W/m² 7,0 °C 14,9 °C 6,4 km/h (2 Bft)
16.03.2020 17:04 24,2 °C 14,9 °C 41 % 58 % 1020,8 hPa 0,0 l/m² 5,2 km/h (1 Bft) W-SW 253 ° 1 min 97 W/m² 6,7 °C 14,9 °C 6,4 km/h (2 Bft)
16.03.2020 17:05 24,2 °C 14,9 °C 41 % 58 % 1020,8 hPa 0,0 l/m² 4,0 km/h (1 Bft) W-SW 253 ° 1 min 95 W/m² 6,7 °C 14,9 °C 4,8 km/h (1 Bft)
16.03.2020 17:07 24,2 °C 14,9 °C 41 % 58 % 1020,8 hPa 0,0 l/m² 3,2 km/h (1 Bft) W 259 ° 2 min 63 W/m² 6,7 °C 14,9 °C 4,8 km/h (1 Bft)
16.03.2020 17:09 24,2 °C 14,9 °C 41 % 58 % 1020,8 hPa 0,0 l/m² 2,2 km/h (1 Bft) W 259 ° 2 min 54 W/m² 6,7 °C 14,9 °C 3,2 km/h (1 Bft)
16.03.2020 17:12 24,2 °C 14,8 °C 41 % 59 % 1020,7 hPa 0,0 l/m² 2,0 km/h (1 Bft) W 259 ° 3 min 86 W/m² 6,9 °C 14,8 °C 3,2 km/h (1 Bft)
16.03.2020 17:13 24,2 °C 14,8 °C 41 % 59 % 1020,7 hPa 0,0 l/m² 2,1 km/h (1 Bft) W 259 ° 1 min 86 W/m² 6,9 °C 14,8 °C 4,8 km/h (1 Bft)
16.03.2020 17:14 24,2 °C 14,9 °C 41 % 57 % 1020,8 hPa 0,0 l/m² 2,5 km/h (1 Bft) W 259 ° 1 min 84 W/m² 6,5 °C 14,9 °C 4,8 km/h (1 Bft)
16.03.2020 17:15 24,2 °C 14,9 °C 41 % 58 % 1020,8 hPa 0,0 l/m² 1,5 km/h (1 Bft) W 259 ° 1 min 83 W/m² 6,7 °C 14,9 °C 1,6 km/h (1 Bft)
16.03.2020 17:17 24,2 °C 14,9 °C 41 % 59 % 1020,7 hPa 0,0 l/m² 1,6 km/h (1 Bft) W 259 ° 2 min 83 W/m² 7,0 °C 14,9 °C 3,2 km/h (1 Bft)
16.03.2020 17:19 24,1 °C 14,9 °C 41 % 59 % 1020,8 hPa 0,0 l/m² 1,2 km/h (1 Bft) W 259 ° 2 min 79 W/m² 7,0 °C 14,9 °C 1,6 km/h (1 Bft)
16.03.2020 17:22 24,2 °C 14,8 °C 41 % 59 % 1020,8 hPa 0,0 l/m² 0,3 km/h (0 Bft) W 259 ° 3 min 79 W/m² 6,9 °C 14,8 °C 1,6 km/h (1 Bft)
16.03.2020 17:23 24,2 °C 14,6 °C 41 % 62 % 1020,9 hPa 0,0 l/m² 0,0 km/h (0 Bft) W 259 ° 1 min 76 W/m² 7,4 °C 14,6 °C 0,0 km/h (0 Bft)
16.03.2020 17:24 24,2 °C 14,3 °C 41 % 61 % 1020,8 hPa 0,0 l/m² 0,0 km/h (0 Bft) W 259 ° 1 min 70 W/m² 6,9 °C 14,3 °C 0,0 km/h (0 Bft)
16.03.2020 17:25 24,2 °C 14,2 °C 41 % 62 % 1020,8 hPa 0,0 l/m² 0,8 km/h (0 Bft) W 259 ° 1 min 70 W/m² 7,0 °C 14,2 °C 1,6 km/h (1 Bft)
16.03.2020 17:27 24,1 °C 14,0 °C 41 % 63 % 1020,8 hPa 0,0 l/m² 1,2 km/h (1 Bft) W 259 ° 2 min 72 W/m² 7,1 °C 14,0 °C 3,2 km/h (1 Bft)
16.03.2020 17:29 24,1 °C 13,8 °C 41 % 63 % 1020,9 hPa 0,0 l/m² 0,9 km/h (0 Bft) W 259 ° 2 min 67 W/m² 6,9 °C 13,8 °C 1,6 km/h (1 Bft)
16.03.2020 17:32 24,1 °C 13,9 °C 41 % 63 % 1021,0 hPa 0,0 l/m² 1,7 km/h (1 Bft) W 259 ° 3 min 67 W/m² 7,0 °C 13,9 °C 4,8 km/h (1 Bft)
16.03.2020 17:33 24,1 °C 13,9 °C 41 % 63 % 1021,0 hPa 0,0 l/m² 1,9 km/h (1 Bft) W 265 ° 1 min 67 W/m² 7,0 °C 13,9 °C 4,8 km/h (1 Bft)
16.03.2020 17:34 24,1 °C 14,0 °C 41 % 63 % 1020,9 hPa 0,0 l/m² 2,1 km/h (1 Bft) W 265 ° 1 min 67 W/m² 7,1 °C 14,0 °C 3,2 km/h (1 Bft)
16.03.2020 17:35 24,1 °C 14,1 °C 41 % 63 % 1020,9 hPa 0,0 l/m² 3,0 km/h (1 Bft) W 265 ° 1 min 65 W/m² 7,2 °C 14,1 °C 4,8 km/h (1 Bft)
16.03.2020 17:37 24,1 °C 14,2 °C 41 % 63 % 1020,9 hPa 0,0 l/m² 3,4 km/h (1 Bft) W-NW 284 ° 2 min 58 W/m² 7,3 °C 14,2 °C 6,4 km/h (2 Bft)
16.03.2020 17:39 24,1 °C 14,2 °C 41 % 63 % 1021,0 hPa 0,0 l/m² 2,5 km/h (1 Bft) W-NW 284 ° 2 min 53 W/m² 7,3 °C 14,2 °C 4,8 km/h (1 Bft)
16.03.2020 17:42 24,1 °C 14,1 °C 41 % 63 % 1021,0 hPa 0,0 l/m² 3,1 km/h (1 Bft) NW 311 ° 0 min 49 W/m² 7,2 °C 14,1 °C 6,4 km/h (2 Bft)
16.03.2020 17:43 24,1 °C 14,1 °C 41 % 63 % 1021,0 hPa 0,0 l/m² 2,8 km/h (1 Bft) NW 311 ° 0 min 46 W/m² 7,2 °C 14,1 °C 4,8 km/h (1 Bft)
16.03.2020 17:44 24,1 °C 14,1 °C 41 % 63 % 1021,0 hPa 0,0 l/m² 2,7 km/h (1 Bft) NW 311 ° 0 min 44 W/m² 7,2 °C 14,1 °C 3,2 km/h (1 Bft)
16.03.2020 17:45 24,1 °C 14,0 °C 41 % 62 % 1021,0 hPa 0,0 l/m² 2,8 km/h (1 Bft) NW 311 ° 0 min 44 W/m² 6,8 °C 14,0 °C 4,8 km/h (1 Bft)
16.03.2020 17:47 24,1 °C 14,0 °C 41 % 63 % 1021,0 hPa 0,0 l/m² 2,5 km/h (1 Bft) NW 311 ° 0 min 39 W/m² 7,1 °C 14,0 °C 4,8 km/h (1 Bft)
16.03.2020 17:49 24,1 °C 14,0 °C 41 % 63 % 1021,1 hPa 0,0 l/m² 3,3 km/h (1 Bft) NW 316 ° 0 min 33 W/m² 7,1 °C 14,0 °C 4,8 km/h (1 Bft)
16.03.2020 17:52 24,1 °C 13,9 °C 41 % 63 % 1021,1 hPa 0,0 l/m² 4,5 km/h (1 Bft) N-NW 348 ° 0 min 28 W/m² 7,0 °C 13,9 °C 11,3 km/h (2 Bft)
16.03.2020 17:53 24,0 °C 13,9 °C 41 % 62 % 1021,1 hPa 0,0 l/m² 7,4 km/h (2 Bft) N 351 ° 0 min 26 W/m² 6,7 °C 13,3 °C 9,7 km/h (2 Bft)
16.03.2020 17:54 24,0 °C 13,9 °C 41 % 62 % 1021,1 hPa 0,0 l/m² 7,4 km/h (2 Bft) N 360 ° 0 min 25 W/m² 6,7 °C 13,3 °C 9,7 km/h (2 Bft)
16.03.2020 17:55 24,0 °C 13,8 °C 41 % 63 % 1021,1 hPa 0,0 l/m² 6,6 km/h (2 Bft) N 355 ° 0 min 25 W/m² 6,9 °C 13,7 °C 8,0 km/h (2 Bft)
16.03.2020 17:57 24,0 °C 13,8 °C 41 % 63 % 1021,1 hPa 0,0 l/m² 8,0 km/h (2 Bft) N 9 ° 0 min 25 W/m² 6,9 °C 12,8 °C 14,5 km/h (3 Bft)
16.03.2020 17:59 24,0 °C 13,8 °C 41 % 62 % 1021,2 hPa 0,0 l/m² 6,4 km/h (2 Bft) N 10 ° 0 min 25 W/m² 6,6 °C 13,8 °C 9,7 km/h (2 Bft)
16.03.2020 18:02 24,0 °C 13,7 °C 41 % 62 % 1021,2 hPa 0,0 l/m² 6,2 km/h (2 Bft) N 5 ° 0 min 21 W/m² 6,6 °C 13,7 °C 8,0 km/h (2 Bft)
16.03.2020 18:03 24,0 °C 13,7 °C 41 % 62 % 1021,2 hPa 0,0 l/m² 6,4 km/h (2 Bft) N-NO 21 ° 0 min 21 W/m² 6,6 °C 13,7 °C 9,7 km/h (2 Bft)
16.03.2020 18:04 24,0 °C 13,7 °C 41 % 61 % 1021,2 hPa 0,0 l/m² 4,4 km/h (1 Bft) N 360 ° 0 min 21 W/m² 6,3 °C 13,7 °C 6,4 km/h (2 Bft)
16.03.2020 18:05 24,0 °C 13,7 °C 41 % 61 % 1021,2 hPa 0,0 l/m² 5,9 km/h (2 Bft) N-NO 20 ° 0 min 19 W/m² 6,3 °C 13,7 °C 8,0 km/h (2 Bft)
16.03.2020 18:07 24,0 °C 13,7 °C 41 % 61 % 1021,3 hPa 0,0 l/m² 5,7 km/h (2 Bft) N 5 ° 0 min 18 W/m² 6,3 °C 13,7 °C 6,4 km/h (2 Bft)
16.03.2020 18:09 24,0 °C 13,6 °C 41 % 62 % 1021,3 hPa 0,0 l/m² 3,5 km/h (1 Bft) N 11 ° 0 min 18 W/m² 6,5 °C 13,6 °C 6,4 km/h (2 Bft)
16.03.2020 18:12 24,0 °C 13,5 °C 41 % 62 % 1021,4 hPa 0,0 l/m² 4,1 km/h (1 Bft) N-NO 13 ° 0 min 16 W/m² 6,4 °C 13,5 °C 6,4 km/h (2 Bft)
16.03.2020 18:13 24,0 °C 13,4 °C 42 % 62 % 1021,5 hPa 0,0 l/m² 5,2 km/h (1 Bft) N 360 ° 0 min 14 W/m² 6,3 °C 13,4 °C 8,0 km/h (2 Bft)
16.03.2020 18:14 24,0 °C 13,4 °C 42 % 62 % 1021,5 hPa 0,0 l/m² 4,5 km/h (1 Bft) N-NW 344 ° 0 min 14 W/m² 6,3 °C 13,4 °C 6,4 km/h (2 Bft)
16.03.2020 18:15 24,0 °C 13,4 °C 42 % 62 % 1021,5 hPa 0,0 l/m² 4,7 km/h (1 Bft) N 5 ° 0 min 14 W/m² 6,3 °C 13,4 °C 6,4 km/h (2 Bft)
16.03.2020 18:17 24,0 °C 13,3 °C 42 % 62 % 1021,5 hPa 0,0 l/m² 4,4 km/h (1 Bft) N-NO 14 ° 0 min 12 W/m² 6,2 °C 13,3 °C 6,4 km/h (2 Bft)
16.03.2020 18:19 24,0 °C 13,2 °C 42 % 63 % 1021,6 hPa 0,0 l/m² 3,7 km/h (1 Bft) N-NO 19 ° 0 min 9 W/m² 6,3 °C 13,2 °C 6,4 km/h (2 Bft)
16.03.2020 18:22 24,0 °C 13,0 °C 42 % 63 % 1021,6 hPa 0,0 l/m² 3,4 km/h (1 Bft) N-NO 30 ° 0 min 5 W/m² 6,1 °C 13,0 °C 4,8 km/h (1 Bft)
16.03.2020 18:23 24,0 °C 12,9 °C 42 % 63 % 1021,6 hPa 0,0 l/m² 2,8 km/h (1 Bft) N-NO 30 ° 0 min 5 W/m² 6,0 °C 12,9 °C 4,8 km/h (1 Bft)
16.03.2020 18:24 24,0 °C 12,8 °C 42 % 63 % 1021,6 hPa 0,0 l/m² 2,6 km/h (1 Bft) N-NO 30 ° 0 min 0 W/m² 5,9 °C 12,8 °C 3,2 km/h (1 Bft)
16.03.2020 18:25 24,0 °C 12,8 °C 42 % 64 % 1021,6 hPa 0,0 l/m² 2,3 km/h (1 Bft) N-NO 30 ° 0 min 0 W/m² 6,2 °C 12,8 °C 3,2 km/h (1 Bft)
16.03.2020 18:27 24,1 °C 12,7 °C 42 % 64 % 1021,6 hPa 0,0 l/m² 2,2 km/h (1 Bft) N-NO 30 ° 0 min 0 W/m² 6,1 °C 12,7 °C 3,2 km/h (1 Bft)
16.03.2020 18:29 24,0 °C 12,6 °C 42 % 64 % 1021,7 hPa 0,0 l/m² 1,8 km/h (1 Bft) N-NO 30 ° 0 min 0 W/m² 6,0 °C 12,6 °C 3,2 km/h (1 Bft)
16.03.2020 18:32 24,0 °C 12,4 °C 42 % 65 % 1021,7 hPa 0,0 l/m² 1,5 km/h (1 Bft) N-NO 30 ° 0 min 0 W/m² 6,0 °C 12,4 °C 3,2 km/h (1 Bft)
16.03.2020 18:33 24,0 °C 12,4 °C 42 % 65 % 1021,7 hPa 0,0 l/m² 1,6 km/h (1 Bft) N-NO 30 ° 0 min 0 W/m² 6,0 °C 12,4 °C 3,2 km/h (1 Bft)
16.03.2020 18:34 24,0 °C 12,3 °C 42 % 65 % 1021,8 hPa 0,0 l/m² 2,4 km/h (1 Bft) N-NO 30 ° 0 min 0 W/m² 5,9 °C 12,3 °C 3,2 km/h (1 Bft)
16.03.2020 18:35 24,0 °C 12,1 °C 42 % 66 % 1021,8 hPa 0,0 l/m² 2,0 km/h (1 Bft) N-NO 30 ° 0 min 0 W/m² 5,9 °C 12,1 °C 3,2 km/h (1 Bft)
16.03.2020 18:37 24,0 °C 11,4 °C 42 % 67 % 1021,8 hPa 0,0 l/m² 1,5 km/h (1 Bft) N-NO 30 ° 0 min 0 W/m² 5,5 °C 11,4 °C 3,2 km/h (1 Bft)
16.03.2020 18:39 24,0 °C 10,8 °C 42 % 70 % 1021,7 hPa 0,0 l/m² 1,0 km/h (0 Bft) N-NO 30 ° 0 min 0 W/m² 5,6 °C 10,8 °C 1,6 km/h (1 Bft)
16.03.2020 18:42 24,0 °C 10,3 °C 42 % 72 % 1021,8 hPa 0,0 l/m² 0,5 km/h (0 Bft) N-NO 30 ° 0 min 0 W/m² 5,5 °C 10,3 °C 3,2 km/h (1 Bft)
16.03.2020 18:43 24,0 °C 10,2 °C 42 % 72 % 1021,7 hPa 0,0 l/m² 0,1 km/h (0 Bft) N-NO 30 ° 0 min 0 W/m² 5,4 °C 10,2 °C 1,6 km/h (1 Bft)
16.03.2020 18:44 24,1 °C 10,1 °C 42 % 73 % 1021,8 hPa 0,0 l/m² 1,6 km/h (1 Bft) N-NO 30 ° 0 min 0 W/m² 5,5 °C 10,1 °C 1,6 km/h (1 Bft)
16.03.2020 18:45 24,1 °C 10,1 °C 42 % 73 % 1021,8 hPa 0,0 l/m² 0,5 km/h (0 Bft) N-NO 30 ° 0 min 0 W/m² 5,5 °C 10,1 °C 1,6 km/h (1 Bft)
16.03.2020 18:46 24,0 °C 10,1 °C 42 % 73 % 1021,8 hPa 0,0 l/m² 0,1 km/h (0 Bft) N-NO 30 ° 0 min 0 W/m² 5,5 °C 10,1 °C 1,6 km/h (1 Bft)
16.03.2020 18:48 24,0 °C 9,9 °C 43 % 74 % 1021,9 hPa 0,0 l/m² 0,0 km/h (0 Bft) N-NO 30 ° 0 min 0 W/m² 5,5 °C 9,9 °C 0,0 km/h (0 Bft)
16.03.2020 18:50 24,0 °C 9,8 °C 43 % 74 % 1021,9 hPa 0,0 l/m² 0,1 km/h (0 Bft) N-NO 30 ° 0 min 0 W/m² 5,4 °C 9,8 °C 1,6 km/h (1 Bft)
16.03.2020 18:53 24,0 °C 9,4 °C 43 % 75 % 1022,0 hPa 0,0 l/m² 0,0 km/h (0 Bft) N-NO 30 ° 0 min 0 W/m² 5,2 °C 9,4 °C 0,0 km/h (0 Bft)
16.03.2020 18:55 24,0 °C 9,3 °C 43 % 76 % 1022,0 hPa 0,0 l/m² 0,0 km/h (0 Bft) N-NO 30 ° 0 min 0 W/m² 5,3 °C 9,3 °C 0,0 km/h (0 Bft)
16.03.2020 18:57 24,0 °C 9,2 °C 43 % 77 % 1022,1 hPa 0,0 l/m² 0,0 km/h (0 Bft) N-NO 30 ° 0 min 0 W/m² 5,4 °C 9,2 °C 0,0 km/h (0 Bft)
16.03.2020 18:59 24,1 °C 9,1 °C 43 % 77 % 1022,1 hPa 0,0 l/m² 0,8 km/h (0 Bft) N-NO 30 ° 0 min 0 W/m² 5,3 °C 9,1 °C 1,6 km/h (1 Bft)
16.03.2020 19:02 24,1 °C 9,1 °C 43 % 77 % 1022,1 hPa 0,0 l/m² 0,1 km/h (0 Bft) N-NO 30 ° 0 min 0 W/m² 5,3 °C 9,1 °C 1,6 km/h (1 Bft)
16.03.2020 19:03 24,0 °C 9,1 °C 43 % 77 % 1022,3 hPa 0,0 l/m² 0,0 km/h (0 Bft) N-NO 30 ° 0 min 0 W/m² 5,3 °C 9,1 °C 0,0 km/h (0 Bft)
16.03.2020 19:04 24,1 °C 9,1 °C 43 % 77 % 1022,3 hPa 0,0 l/m² 0,1 km/h (0 Bft) N-NO 30 ° 0 min 0 W/m² 5,3 °C 9,1 °C 1,6 km/h (1 Bft)
16.03.2020 19:05 24,1 °C 9,0 °C 43 % 77 % 1022,3 hPa 0,0 l/m² 1,3 km/h (1 Bft) N-NO 30 ° 0 min 0 W/m² 5,2 °C 9,0 °C 1,6 km/h (1 Bft)
16.03.2020 19:07 24,1 °C 9,0 °C 43 % 77 % 1022,3 hPa 0,0 l/m² 1,6 km/h (1 Bft) N-NO 25 ° 0 min 0 W/m² 5,2 °C 9,0 °C 3,2 km/h (1 Bft)
16.03.2020 19:09 24,1 °C 9,0 °C 43 % 76 % 1022,4 hPa 0,0 l/m² 4,5 km/h (1 Bft) NW 326 ° 0 min 0 W/m² 5,0 °C 9,0 °C 6,4 km/h (2 Bft)
16.03.2020 19:12 24,1 °C 9,0 °C 43 % 76 % 1022,4 hPa 0,0 l/m² 3,9 km/h (1 Bft) NW 326 ° 0 min 0 W/m² 5,0 °C 9,0 °C 4,8 km/h (1 Bft)
16.03.2020 19:13 24,1 °C 9,1 °C 43 % 76 % 1022,5 hPa 0,0 l/m² 2,4 km/h (1 Bft) NW 326 ° 0 min 0 W/m² 5,1 °C 9,1 °C 3,2 km/h (1 Bft)
16.03.2020 19:14 24,1 °C 8,8 °C 43 % 74 % 1022,4 hPa 0,0 l/m² 1,5 km/h (1 Bft) NW 326 ° 0 min 0 W/m² 4,4 °C 8,8 °C 3,2 km/h (1 Bft)
16.03.2020 19:15 24,1 °C 8,7 °C 43 % 75 % 1022,4 hPa 0,0 l/m² 1,1 km/h (1 Bft) NW 326 ° 0 min 0 W/m² 4,5 °C 8,7 °C 1,6 km/h (1 Bft)
16.03.2020 19:17 24,1 °C 8,2 °C 43 % 76 % 1022,5 hPa 0,0 l/m² 0,4 km/h (0 Bft) NW 326 ° 0 min 0 W/m² 4,2 °C 8,2 °C 1,6 km/h (1 Bft)
16.03.2020 19:19 24,1 °C 7,8 °C 43 % 76 % 1022,4 hPa 0,0 l/m² 0,0 km/h (0 Bft) NW 326 ° 0 min 0 W/m² 3,8 °C 7,8 °C 0,0 km/h (0 Bft)
16.03.2020 19:22 24,1 °C 7,2 °C 43 % 79 % 1022,5 hPa 0,0 l/m² 0,0 km/h (0 Bft) NW 326 ° 0 min 0 W/m² 3,8 °C 7,2 °C 0,0 km/h (0 Bft)
16.03.2020 19:23 24,1 °C 6,9 °C 43 % 80 % 1022,5 hPa 0,0 l/m² 0,0 km/h (0 Bft) NW 326 ° 0 min 0 W/m² 3,7 °C 6,9 °C 0,0 km/h (0 Bft)
16.03.2020 19:25 24,1 °C 6,8 °C 43 % 81 % 1022,6 hPa 0,0 l/m² 0,0 km/h (0 Bft) NW 326 ° 0 min 0 W/m² 3,8 °C 6,8 °C 0,0 km/h (0 Bft)
16.03.2020 19:27 24,1 °C 6,6 °C 43 % 82 % 1022,5 hPa 0,0 l/m² 0,6 km/h (0 Bft) NW 326 ° 0 min 0 W/m² 3,8 °C 6,6 °C 1,6 km/h (1 Bft)
16.03.2020 19:29 24,1 °C 6,6 °C 43 % 83 % 1022,5 hPa 0,0 l/m² 0,1 km/h (0 Bft) NW 326 ° 0 min 0 W/m² 3,9 °C 6,6 °C 1,6 km/h (1 Bft)
16.03.2020 19:32 24,1 °C 6,6 °C 43 % 84 % 1022,5 hPa 0,0 l/m² 0,0 km/h (0 Bft) NW 326 ° 0 min 0 W/m² 4,1 °C 6,6 °C 0,0 km/h (0 Bft)
16.03.2020 19:33 24,2 °C 6,7 °C 43 % 84 % 1022,5 hPa 0,0 l/m² 0,2 km/h (0 Bft) NW 326 ° 0 min 0 W/m² 4,2 °C 6,7 °C 1,6 km/h (1 Bft)
16.03.2020 19:34 24,1 °C 6,7 °C 43 % 84 % 1022,5 hPa 0,0 l/m² 1,4 km/h (1 Bft) NW 326 ° 0 min 0 W/m² 4,2 °C 6,7 °C 1,6 km/h (1 Bft)
16.03.2020 19:35 24,1 °C 6,8 °C 43 % 84 % 1022,5 hPa 0,0 l/m² 1,6 km/h (1 Bft) NW 326 ° 0 min 0 W/m² 4,3 °C 6,8 °C 1,6 km/h (1 Bft)
16.03.2020 19:37 24,1 °C 6,8 °C 43 % 84 % 1022,6 hPa 0,0 l/m² 2,1 km/h (1 Bft) NW 326 ° 0 min 0 W/m² 4,3 °C 6,8 °C 3,2 km/h (1 Bft)
16.03.2020 19:39 24,1 °C 6,9 °C 43 % 83 % 1022,5 hPa 0,0 l/m² 2,3 km/h (1 Bft) NW 326 ° 0 min 0 W/m² 4,2 °C 6,9 °C 3,2 km/h (1 Bft)
16.03.2020 19:42 24,1 °C 7,1 °C 43 % 83 % 1022,5 hPa 0,0 l/m² 1,9 km/h (1 Bft) NW 326 ° 0 min 0 W/m² 4,4 °C 7,1 °C 3,2 km/h (1 Bft)
16.03.2020 19:43 24,1 °C 7,1 °C 43 % 83 % 1022,6 hPa 0,0 l/m² 0,8 km/h (0 Bft) NW 326 ° 0 min 0 W/m² 4,4 °C 7,1 °C 1,6 km/h (1 Bft)
16.03.2020 19:44 24,1 °C 7,2 °C 43 % 83 % 1022,6 hPa 0,0 l/m² 0,0 km/h (0 Bft) NW 326 ° 0 min 0 W/m² 4,5 °C 7,2 °C 0,0 km/h (0 Bft)
16.03.2020 19:45 24,1 °C 7,2 °C 43 % 83 % 1022,6 hPa 0,0 l/m² 0,0 km/h (0 Bft) NW 326 ° 0 min 0 W/m² 4,5 °C 7,2 °C 0,0 km/h (0 Bft)
16.03.2020 19:47 24,1 °C 7,2 °C 43 % 83 % 1022,6 hPa 0,0 l/m² 0,0 km/h (0 Bft) NW 326 ° 0 min 0 W/m² 4,5 °C 7,2 °C 0,0 km/h (0 Bft)
16.03.2020 19:49 24,1 °C 7,3 °C 43 % 82 % 1022,6 hPa 0,0 l/m² 0,0 km/h (0 Bft) NW 326 ° 0 min 0 W/m² 4,4 °C 7,3 °C 1,6 km/h (1 Bft)
16.03.2020 19:52 24,1 °C 7,3 °C 43 % 82 % 1022,7 hPa 0,0 l/m² 0,5 km/h (0 Bft) NW 326 ° 0 min 0 W/m² 4,4 °C 7,3 °C 1,6 km/h (1 Bft)
16.03.2020 19:53 24,1 °C 7,3 °C 43 % 82 % 1022,6 hPa 0,0 l/m² 0,7 km/h (0 Bft) NW 326 ° 0 min 0 W/m² 4,4 °C 7,3 °C 1,6 km/h (1 Bft)
16.03.2020 19:54 24,1 °C 7,2 °C 43 % 81 % 1022,6 hPa 0,0 l/m² 0,1 km/h (0 Bft) NW 326 ° 0 min 0 W/m² 4,2 °C 7,2 °C 1,6 km/h (1 Bft)
16.03.2020 19:55 24,1 °C 7,2 °C 43 % 81 % 1022,6 hPa 0,0 l/m² 0,3 km/h (0 Bft) NW 326 ° 0 min 0 W/m² 4,2 °C 7,2 °C 1,6 km/h (1 Bft)
16.03.2020 19:57 24,1 °C 6,9 °C 43 % 82 % 1022,6 hPa 0,0 l/m² 0,4 km/h (0 Bft) NW 326 ° 0 min 0 W/m² 4,0 °C 6,9 °C 1,6 km/h (1 Bft)
16.03.2020 19:59 24,1 °C 6,8 °C 43 % 83 % 1022,7 hPa 0,0 l/m² 0,8 km/h (0 Bft) NW 326 ° 0 min 0 W/m² 4,1 °C 6,8 °C 1,6 km/h (1 Bft)
16.03.2020 20:02 24,1 °C 6,6 °C 43 % 84 % 1022,7 hPa 0,0 l/m² 1,0 km/h (0 Bft) NW 326 ° 0 min 0 W/m² 4,1 °C 6,6 °C 3,2 km/h (1 Bft)
16.03.2020 20:03 24,1 °C 6,5 °C 43 % 84 % 1022,8 hPa 0,0 l/m² 0,7 km/h (0 Bft) NW 326 ° 0 min 0 W/m² 4,0 °C 6,5 °C 1,6 km/h (1 Bft)
16.03.2020 20:04 24,1 °C 6,4 °C 43 % 85 % 1022,8 hPa 0,0 l/m² 0,9 km/h (0 Bft) NW 326 ° 0 min 0 W/m² 4,1 °C 6,4 °C 1,6 km/h (1 Bft)
16.03.2020 20:05 24,1 °C 6,4 °C 43 % 85 % 1022,8 hPa 0,0 l/m² 1,3 km/h (1 Bft) NW 326 ° 0 min 0 W/m² 4,1 °C 6,4 °C 3,2 km/h (1 Bft)
16.03.2020 20:07 24,1 °C 6,4 °C 43 % 85 % 1022,9 hPa 0,0 l/m² 2,2 km/h (1 Bft) NW 326 ° 0 min 0 W/m² 4,1 °C 6,4 °C 3,2 km/h (1 Bft)
16.03.2020 20:09 24,1 °C 6,4 °C 43 % 85 % 1022,9 hPa 0,0 l/m² 3,1 km/h (1 Bft) NW 326 ° 0 min 0 W/m² 4,1 °C 6,4 °C 3,2 km/h (1 Bft)
16.03.2020 20:12 24,1 °C 6,4 °C 43 % 84 % 1023,0 hPa 0,0 l/m² 0,9 km/h (0 Bft) NW 326 ° 0 min 0 W/m² 3,9 °C 6,4 °C 3,2 km/h (1 Bft)
16.03.2020 20:13 24,1 °C 6,2 °C 43 % 80 % 1023,0 hPa 0,0 l/m² 1,9 km/h (1 Bft) NW 326 ° 0 min 0 W/m² 3,0 °C 6,2 °C 3,2 km/h (1 Bft)
16.03.2020 20:14 24,1 °C 5,9 °C 43 % 80 % 1023,1 hPa 0,0 l/m² 2,4 km/h (1 Bft) NW 326 ° 0 min 0 W/m² 2,7 °C 5,9 °C 3,2 km/h (1 Bft)
16.03.2020 20:15 24,1 °C 5,7 °C 43 % 81 % 1023,1 hPa 0,0 l/m² 1,9 km/h (1 Bft) NW 326 ° 0 min 0 W/m² 2,7 °C 5,7 °C 3,2 km/h (1 Bft)
16.03.2020 20:17 24,1 °C 5,5 °C 43 % 83 % 1023,0 hPa 0,0 l/m² 2,2 km/h (1 Bft) NW 326 ° 0 min 0 W/m² 2,8 °C 5,5 °C 3,2 km/h (1 Bft)
16.03.2020 20:19 24,1 °C 5,6 °C 43 % 85 % 1023,1 hPa 0,0 l/m² 1,4 km/h (1 Bft) NW 326 ° 0 min 0 W/m² 3,3 °C 5,6 °C 3,2 km/h (1 Bft)
16.03.2020 20:22 24,1 °C 5,2 °C 43 % 82 % 1023,3 hPa 0,0 l/m² 0,1 km/h (0 Bft) NW 326 ° 0 min 0 W/m² 2,4 °C 5,2 °C 1,6 km/h (1 Bft)
16.03.2020 20:23 24,1 °C 5,1 °C 43 % 82 % 1023,2 hPa 0,0 l/m² 0,0 km/h (0 Bft) NW 326 ° 0 min 0 W/m² 2,3 °C 5,1 °C 0,0 km/h (0 Bft)
16.03.2020 20:24 24,2 °C 4,9 °C 43 % 83 % 1023,3 hPa 0,0 l/m² 0,0 km/h (0 Bft) NW 326 ° 0 min 0 W/m² 2,3 °C 4,9 °C 0,0 km/h (0 Bft)
16.03.2020 20:25 24,2 °C 4,8 °C 43 % 83 % 1023,3 hPa 0,0 l/m² 0,0 km/h (0 Bft) NW 326 ° 0 min 0 W/m² 2,2 °C 4,8 °C 0,0 km/h (0 Bft)
16.03.2020 20:27 24,2 °C 4,6 °C 43 % 84 % 1023,3 hPa 0,0 l/m² 1,4 km/h (1 Bft) NW 326 ° 0 min 0 W/m² 2,1 °C 4,6 °C 3,2 km/h (1 Bft)
16.03.2020 20:29 24,2 °C 4,7 °C 43 % 86 % 1023,4 hPa 0,0 l/m² 2,7 km/h (1 Bft) NW 326 ° 0 min 0 W/m² 2,6 °C 4,7 °C 4,8 km/h (1 Bft)
16.03.2020 20:32 24,2 °C 4,8 °C 43 % 87 % 1023,4 hPa 0,0 l/m² 1,7 km/h (1 Bft) NW 326 ° 0 min 0 W/m² 2,8 °C 4,8 °C 3,2 km/h (1 Bft)
16.03.2020 20:33 24,2 °C 4,9 °C 43 % 87 % 1023,5 hPa 0,0 l/m² 1,0 km/h (0 Bft) NW 326 ° 0 min 0 W/m² 2,9 °C 4,9 °C 1,6 km/h (1 Bft)
16.03.2020 20:34 24,2 °C 4,9 °C 43 % 87 % 1023,4 hPa 0,0 l/m² 1,1 km/h (1 Bft) NW 326 ° 0 min 0 W/m² 2,9 °C 4,9 °C 1,6 km/h (1 Bft)
16.03.2020 20:35 24,2 °C 4,9 °C 43 % 87 % 1023,4 hPa 0,0 l/m² 0,9 km/h (0 Bft) NW 326 ° 0 min 0 W/m² 2,9 °C 4,9 °C 1,6 km/h (1 Bft)
16.03.2020 20:37 24,2 °C 5,0 °C 43 % 87 % 1023,5 hPa 0,0 l/m² 1,1 km/h (1 Bft) NW 326 ° 0 min 0 W/m² 3,0 °C 5,0 °C 1,6 km/h (1 Bft)
16.03.2020 20:39 24,2 °C 5,0 °C 43 % 87 % 1023,5 hPa 0,0 l/m² 0,2 km/h (0 Bft) NW 326 ° 0 min 0 W/m² 3,0 °C 5,0 °C 1,6 km/h (1 Bft)
16.03.2020 20:42 24,2 °C 5,0 °C 43 % 87 % 1023,5 hPa 0,0 l/m² 0,0 km/h (0 Bft) NW 326 ° 0 min 0 W/m² 3,0 °C 5,0 °C 1,6 km/h (1 Bft)
16.03.2020 20:43 24,2 °C 4,9 °C 43 % 87 % 1023,5 hPa 0,0 l/m² 0,0 km/h (0 Bft) NW 326 ° 0 min 0 W/m² 2,9 °C 4,9 °C 0,0 km/h (0 Bft)
16.03.2020 20:44 24,2 °C 4,9 °C 43 % 87 % 1023,5 hPa 0,0 l/m² 0,0 km/h (0 Bft) NW 326 ° 0 min 0 W/m² 2,9 °C 4,9 °C 0,0 km/h (0 Bft)
16.03.2020 20:45 24,2 °C 5,0 °C 43 % 88 % 1023,5 hPa 0,0 l/m² 0,0 km/h (0 Bft) NW 326 ° 0 min 0 W/m² 3,2 °C 5,0 °C 0,0 km/h (0 Bft)
16.03.2020 20:47 24,2 °C 5,0 °C 43 % 88 % 1023,5 hPa 0,0 l/m² 0,0 km/h (0 Bft) NW 326 ° 0 min 0 W/m² 3,2 °C 5,0 °C 0,0 km/h (0 Bft)
16.03.2020 20:49 24,2 °C 4,9 °C 43 % 87 % 1023,5 hPa 0,0 l/m² 0,0 km/h (0 Bft) NW 326 ° 0 min 0 W/m² 2,9 °C 4,9 °C 0,0 km/h (0 Bft)
16.03.2020 20:52 24,2 °C 5,0 °C 43 % 88 % 1023,4 hPa 0,0 l/m² 0,0 km/h (0 Bft) NW 326 ° 0 min 0 W/m² 3,2 °C 5,0 °C 0,0 km/h (0 Bft)
16.03.2020 20:53 24,2 °C 5,0 °C 43 % 88 % 1023,5 hPa 0,0 l/m² 0,0 km/h (0 Bft) NW 326 ° 0 min 0 W/m² 3,2 °C 5,0 °C 0,0 km/h (0 Bft)
16.03.2020 20:54 24,2 °C 4,9 °C 43 % 87 % 1023,6 hPa 0,0 l/m² 0,0 km/h (0 Bft) NW 326 ° 0 min 0 W/m² 2,9 °C 4,9 °C 0,0 km/h (0 Bft)
16.03.2020 20:55 24,2 °C 4,9 °C 43 % 87 % 1023,6 hPa 0,0 l/m² 0,0 km/h (0 Bft) NW 326 ° 0 min 0 W/m² 2,9 °C 4,9 °C 0,0 km/h (0 Bft)
16.03.2020 20:57 24,3 °C 4,8 °C 43 % 88 % 1023,6 hPa 0,0 l/m² 0,0 km/h (0 Bft) NW 326 ° 0 min 0 W/m² 3,0 °C 4,8 °C 0,0 km/h (0 Bft)
16.03.2020 20:59 24,2 °C 4,8 °C 43 % 88 % 1023,7 hPa 0,0 l/m² 0,3 km/h (0 Bft) NW 326 ° 0 min 0 W/m² 3,0 °C 4,8 °C 1,6 km/h (1 Bft)
16.03.2020 21:02 24,3 °C 4,4 °C 43 % 86 % 1023,8 hPa 0,0 l/m² 2,4 km/h (1 Bft) NW 326 ° 0 min 0 W/m² 2,3 °C 4,4 °C 3,2 km/h (1 Bft)
16.03.2020 21:03 24,3 °C 4,3 °C 43 % 86 % 1023,8 hPa 0,0 l/m² 3,2 km/h (1 Bft) NW 326 ° 0 min 0 W/m² 2,2 °C 4,3 °C 3,2 km/h (1 Bft)
16.03.2020 21:04 24,3 °C 4,2 °C 43 % 86 % 1023,9 hPa 0,0 l/m² 3,2 km/h (1 Bft) NW 326 ° 0 min 0 W/m² 2,1 °C 4,2 °C 3,2 km/h (1 Bft)
16.03.2020 21:05 24,3 °C 4,1 °C 43 % 86 % 1023,9 hPa 0,0 l/m² 3,1 km/h (1 Bft) NW 326 ° 0 min 0 W/m² 2,0 °C 4,1 °C 3,2 km/h (1 Bft)
16.03.2020 21:07 24,3 °C 3,8 °C 43 % 86 % 1023,9 hPa 0,0 l/m² 2,8 km/h (1 Bft) NW 326 ° 0 min 0 W/m² 1,7 °C 3,8 °C 4,8 km/h (1 Bft)
16.03.2020 21:09 24,3 °C 3,6 °C 43 % 86 % 1023,9 hPa 0,0 l/m² 1,7 km/h (1 Bft) NW 326 ° 0 min 0 W/m² 1,5 °C 3,6 °C 3,2 km/h (1 Bft)
16.03.2020 21:12 24,3 °C 3,7 °C 43 % 88 % 1023,9 hPa 0,0 l/m² 1,6 km/h (1 Bft) NW 326 ° 0 min 0 W/m² 1,9 °C 3,7 °C 3,2 km/h (1 Bft)
16.03.2020 21:13 24,3 °C 3,8 °C 43 % 88 % 1024,0 hPa 0,0 l/m² 1,4 km/h (1 Bft) NW 326 ° 0 min 0 W/m² 2,0 °C 3,8 °C 1,6 km/h (1 Bft)
16.03.2020 21:14 24,3 °C 3,8 °C 43 % 89 % 1024,0 hPa 0,0 l/m² 1,5 km/h (1 Bft) NW 326 ° 0 min 0 W/m² 2,2 °C 3,8 °C 1,6 km/h (1 Bft)
16.03.2020 21:15 24,3 °C 3,9 °C 43 % 89 % 1024,0 hPa 0,0 l/m² 1,8 km/h (1 Bft) NW 326 ° 0 min 0 W/m² 2,3 °C 3,9 °C 3,2 km/h (1 Bft)
16.03.2020 21:17 24,3 °C 4,1 °C 43 % 89 % 1023,9 hPa 0,0 l/m² 2,3 km/h (1 Bft) NW 326 ° 0 min 0 W/m² 2,5 °C 4,1 °C 3,2 km/h (1 Bft)
16.03.2020 21:19 24,3 °C 4,2 °C 43 % 90 % 1024,0 hPa 0,0 l/m² 3,2 km/h (1 Bft) NW 326 ° 0 min 0 W/m² 2,7 °C 4,2 °C 4,8 km/h (1 Bft)
16.03.2020 21:22 24,3 °C 4,4 °C 43 % 90 % 1024,0 hPa 0,0 l/m² 2,8 km/h (1 Bft) NW 326 ° 0 min 0 W/m² 2,9 °C 4,4 °C 4,8 km/h (1 Bft)
16.03.2020 21:23 24,3 °C 4,4 °C 43 % 90 % 1024,0 hPa 0,0 l/m² 1,4 km/h (1 Bft) NW 326 ° 0 min 0 W/m² 2,9 °C 4,4 °C 3,2 km/h (1 Bft)
16.03.2020 21:24 24,3 °C 4,5 °C 43 % 90 % 1024,0 hPa 0,0 l/m² 1,3 km/h (1 Bft) NW 326 ° 0 min 0 W/m² 3,0 °C 4,5 °C 1,6 km/h (1 Bft)
16.03.2020 21:25 24,3 °C 4,5 °C 43 % 90 % 1024,0 hPa 0,0 l/m² 0,7 km/h (0 Bft) NW 326 ° 0 min 0 W/m² 3,0 °C 4,5 °C 1,6 km/h (1 Bft)
16.03.2020 21:27 24,3 °C 4,6 °C 43 % 89 % 1024,0 hPa 0,0 l/m² 0,3 km/h (0 Bft) NW 326 ° 0 min 0 W/m² 2,9 °C 4,6 °C 1,6 km/h (1 Bft)
16.03.2020 21:29 24,3 °C 4,6 °C 43 % 89 % 1024,0 hPa 0,0 l/m² 0,2 km/h (0 Bft) NW 326 ° 0 min 0 W/m² 2,9 °C 4,6 °C 1,6 km/h (1 Bft)
16.03.2020 21:32 24,3 °C 4,3 °C 43 % 88 % 1024,1 hPa 0,0 l/m² 0,4 km/h (0 Bft) NW 326 ° 0 min 0 W/m² 2,5 °C 4,3 °C 1,6 km/h (1 Bft)
16.03.2020 21:33 24,3 °C 4,3 °C 43 % 88 % 1024,1 hPa 0,0 l/m² 0,6 km/h (0 Bft) NW 326 ° 0 min 0 W/m² 2,5 °C 4,3 °C 1,6 km/h (1 Bft)
16.03.2020 21:34 24,3 °C 4,2 °C 43 % 88 % 1024,1 hPa 0,0 l/m² 0,1 km/h (0 Bft) NW 326 ° 0 min 0 W/m² 2,4 °C 4,2 °C 1,6 km/h (1 Bft)
16.03.2020 21:35 24,3 °C 4,2 °C 43 % 88 % 1024,1 hPa 0,0 l/m² 0,0 km/h (0 Bft) NW 326 ° 0 min 0 W/m² 2,4 °C 4,2 °C 0,0 km/h (0 Bft)
16.03.2020 21:37 24,3 °C 4,0 °C 43 % 88 % 1024,1 hPa 0,0 l/m² 0,0 km/h (0 Bft) NW 326 ° 0 min 0 W/m² 2,2 °C 4,0 °C 0,0 km/h (0 Bft)
16.03.2020 21:39 24,3 °C 3,9 °C 43 % 88 % 1024,1 hPa 0,0 l/m² 0,0 km/h (0 Bft) NW 326 ° 0 min 0 W/m² 2,1 °C 3,9 °C 0,0 km/h (0 Bft)
16.03.2020 21:42 24,3 °C 3,8 °C 43 % 89 % 1024,1 hPa 0,0 l/m² 0,0 km/h (0 Bft) NW 326 ° 0 min 0 W/m² 2,2 °C 3,8 °C 0,0 km/h (0 Bft)
16.03.2020 21:43 24,3 °C 3,8 °C 43 % 89 % 1024,2 hPa 0,0 l/m² 0,0 km/h (0 Bft) NW 326 ° 0 min 0 W/m² 2,2 °C 3,8 °C 0,0 km/h (0 Bft)
16.03.2020 21:44 24,3 °C 3,8 °C 43 % 89 % 1024,2 hPa 0,0 l/m² 0,0 km/h (0 Bft) NW 326 ° 0 min 0 W/m² 2,2 °C 3,8 °C 0,0 km/h (0 Bft)
16.03.2020 21:45 24,3 °C 3,8 °C 43 % 89 % 1024,2 hPa 0,0 l/m² 0,0 km/h (0 Bft) NW 326 ° 0 min 0 W/m² 2,2 °C 3,8 °C 0,0 km/h (0 Bft)
16.03.2020 21:47 24,3 °C 3,7 °C 43 % 89 % 1024,3 hPa 0,0 l/m² 0,0 km/h (0 Bft) NW 326 ° 0 min 0 W/m² 2,1 °C 3,7 °C 0,0 km/h (0 Bft)
16.03.2020 21:49 24,3 °C 3,7 °C 43 % 89 % 1024,2 hPa 0,0 l/m² 0,5 km/h (0 Bft) NW 326 ° 0 min 0 W/m² 2,1 °C 3,7 °C 1,6 km/h (1 Bft)
16.03.2020 21:52 24,3 °C 3,7 °C 43 % 89 % 1024,3 hPa 0,0 l/m² 1,9 km/h (1 Bft) NW 326 ° 0 min 0 W/m² 2,1 °C 3,7 °C 3,2 km/h (1 Bft)
16.03.2020 21:53 24,3 °C 3,7 °C 43 % 89 % 1024,3 hPa 0,0 l/m² 2,4 km/h (1 Bft) NW 326 ° 0 min 0 W/m² 2,1 °C 3,7 °C 3,2 km/h (1 Bft)
16.03.2020 21:54 24,3 °C 3,7 °C 43 % 89 % 1024,3 hPa 0,0 l/m² 3,1 km/h (1 Bft) NW 326 ° 0 min 0 W/m² 2,1 °C 3,7 °C 3,2 km/h (1 Bft)
16.03.2020 21:55 24,3 °C 3,7 °C 43 % 90 % 1024,3 hPa 0,0 l/m² 2,4 km/h (1 Bft) NW 326 ° 0 min 0 W/m² 2,2 °C 3,7 °C 3,2 km/h (1 Bft)
16.03.2020 21:57 24,3 °C 3,7 °C 43 % 90 % 1024,4 hPa 0,0 l/m² 1,8 km/h (1 Bft) NW 326 ° 0 min 0 W/m² 2,2 °C 3,7 °C 3,2 km/h (1 Bft)
16.03.2020 21:59 24,3 °C 3,7 °C 43 % 90 % 1024,3 hPa 0,0 l/m² 1,8 km/h (1 Bft) NW 326 ° 0 min 0 W/m² 2,2 °C 3,7 °C 3,2 km/h (1 Bft)
16.03.2020 22:02 24,3 °C 3,7 °C 43 % 90 % 1024,5 hPa 0,0 l/m² 2,2 km/h (1 Bft) NW 326 ° 0 min 0 W/m² 2,2 °C 3,7 °C 3,2 km/h (1 Bft)
16.03.2020 22:03 24,3 °C 3,7 °C 43 % 90 % 1024,5 hPa 0,0 l/m² 1,8 km/h (1 Bft) NW 326 ° 0 min 0 W/m² 2,2 °C 3,7 °C 3,2 km/h (1 Bft)
16.03.2020 22:04 24,3 °C 3,6 °C 43 % 90 % 1024,5 hPa 0,0 l/m² 1,9 km/h (1 Bft) NW 326 ° 0 min 0 W/m² 2,1 °C 3,6 °C 3,2 km/h (1 Bft)
16.03.2020 22:05 24,3 °C 3,6 °C 43 % 90 % 1024,5 hPa 0,0 l/m² 1,5 km/h (1 Bft) NW 326 ° 0 min 0 W/m² 2,1 °C 3,6 °C 1,6 km/h (1 Bft)
16.03.2020 22:07 24,3 °C 3,6 °C 43 % 90 % 1024,4 hPa 0,0 l/m² 1,5 km/h (1 Bft) NW 326 ° 0 min 0 W/m² 2,1 °C 3,6 °C 3,2 km/h (1 Bft)
16.03.2020 22:09 24,3 °C 3,6 °C 43 % 90 % 1024,4 hPa 0,0 l/m² 1,9 km/h (1 Bft) NW 326 ° 0 min 0 W/m² 2,1 °C 3,6 °C 3,2 km/h (1 Bft)
16.03.2020 22:12 24,3 °C 3,6 °C 43 % 90 % 1024,5 hPa 0,0 l/m² 1,9 km/h (1 Bft) NW 326 ° 0 min 0 W/m² 2,1 °C 3,6 °C 3,2 km/h (1 Bft)
16.03.2020 22:13 24,3 °C 3,6 °C 43 % 90 % 1024,5 hPa 0,0 l/m² 1,1 km/h (1 Bft) NW 326 ° 0 min 0 W/m² 2,1 °C 3,6 °C 1,6 km/h (1 Bft)
16.03.2020 22:14 24,3 °C 3,6 °C 43 % 90 % 1024,5 hPa 0,0 l/m² 0,0 km/h (0 Bft) NW 326 ° 0 min 0 W/m² 2,1 °C 3,6 °C 0,0 km/h (0 Bft)
16.03.2020 22:15 24,3 °C 3,6 °C 43 % 90 % 1024,5 hPa 0,0 l/m² 0,0 km/h (0 Bft) NW 326 ° 0 min 0 W/m² 2,1 °C 3,6 °C 0,0 km/h (0 Bft)
16.03.2020 22:17 24,3 °C 3,6 °C 43 % 89 % 1024,6 hPa 0,0 l/m² 0,0 km/h (0 Bft) NW 326 ° 0 min 0 W/m² 2,0 °C 3,6 °C 0,0 km/h (0 Bft)
16.03.2020 22:19 24,3 °C 3,4 °C 43 % 89 % 1024,7 hPa 0,0 l/m² 0,0 km/h (0 Bft) NW 326 ° 0 min 0 W/m² 1,8 °C 3,4 °C 0,0 km/h (0 Bft)
16.03.2020 22:22 24,3 °C 3,2 °C 44 % 89 % 1024,7 hPa 0,0 l/m² 0,0 km/h (0 Bft) NW 326 ° 0 min 0 W/m² 1,6 °C 3,2 °C 0,0 km/h (0 Bft)
16.03.2020 22:25 24,3 °C 2,9 °C 43 % 89 % 1024,6 hPa 0,0 l/m² 0,0 km/h (0 Bft) NW 326 ° 0 min 0 W/m² 1,3 °C 2,9 °C 0,0 km/h (0 Bft)
16.03.2020 22:27 24,3 °C 2,9 °C 43 % 89 % 1024,7 hPa 0,0 l/m² 0,1 km/h (0 Bft) NW 326 ° 0 min 0 W/m² 1,3 °C 2,9 °C 1,6 km/h (1 Bft)
16.03.2020 22:29 24,3 °C 2,8 °C 44 % 90 % 1024,7 hPa 0,0 l/m² 2,1 km/h (1 Bft) NW 326 ° 0 min 0 W/m² 1,3 °C 2,8 °C 3,2 km/h (1 Bft)
16.03.2020 22:32 24,3 °C 3,0 °C 44 % 90 % 1024,6 hPa 0,0 l/m² 2,3 km/h (1 Bft) NW 326 ° 0 min 0 W/m² 1,5 °C 3,0 °C 3,2 km/h (1 Bft)
16.03.2020 22:33 24,3 °C 3,1 °C 43 % 90 % 1024,7 hPa 0,0 l/m² 2,7 km/h (1 Bft) NW 326 ° 0 min 0 W/m² 1,6 °C 3,1 °C 3,2 km/h (1 Bft)
16.03.2020 22:34 24,3 °C 3,1 °C 43 % 90 % 1024,7 hPa 0,0 l/m² 2,9 km/h (1 Bft) NW 326 ° 0 min 0 W/m² 1,6 °C 3,1 °C 3,2 km/h (1 Bft)
16.03.2020 22:35 24,3 °C 3,2 °C 43 % 90 % 1024,7 hPa 0,0 l/m² 3,1 km/h (1 Bft) NW 326 ° 0 min 0 W/m² 1,7 °C 3,2 °C 4,8 km/h (1 Bft)
16.03.2020 22:37 24,3 °C 3,2 °C 43 % 90 % 1024,7 hPa 0,0 l/m² 1,9 km/h (1 Bft) NW 326 ° 0 min 0 W/m² 1,7 °C 3,2 °C 3,2 km/h (1 Bft)
16.03.2020 22:39 24,3 °C 3,2 °C 43 % 90 % 1024,7 hPa 0,0 l/m² 1,3 km/h (1 Bft) NW 326 ° 0 min 0 W/m² 1,7 °C 3,2 °C 1,6 km/h (1 Bft)
16.03.2020 22:42 24,3 °C 3,2 °C 43 % 90 % 1024,7 hPa 0,0 l/m² 1,0 km/h (0 Bft) NW 326 ° 0 min 0 W/m² 1,7 °C 3,2 °C 1,6 km/h (1 Bft)
16.03.2020 22:43 24,3 °C 3,2 °C 43 % 90 % 1024,8 hPa 0,0 l/m² 1,2 km/h (1 Bft) NW 326 ° 0 min 0 W/m² 1,7 °C 3,2 °C 1,6 km/h (1 Bft)
16.03.2020 22:44 24,3 °C 3,1 °C 43 % 90 % 1024,7 hPa 0,0 l/m² 1,8 km/h (1 Bft) NW 326 ° 0 min 0 W/m² 1,6 °C 3,1 °C 3,2 km/h (1 Bft)
16.03.2020 22:45 24,3 °C 3,2 °C 43 % 90 % 1024,7 hPa 0,0 l/m² 2,2 km/h (1 Bft) NW 326 ° 0 min 0 W/m² 1,7 °C 3,2 °C 3,2 km/h (1 Bft)
16.03.2020 22:47 24,3 °C 3,2 °C 43 % 91 % 1024,8 hPa 0,0 l/m² 1,6 km/h (1 Bft) NW 326 ° 0 min 0 W/m² 1,9 °C 3,2 °C 3,2 km/h (1 Bft)
16.03.2020 22:49 24,3 °C 3,2 °C 43 % 91 % 1024,7 hPa 0,0 l/m² 1,1 km/h (1 Bft) NW 326 ° 0 min 0 W/m² 1,9 °C 3,2 °C 1,6 km/h (1 Bft)
16.03.2020 22:52 24,3 °C 3,3 °C 43 % 91 % 1024,7 hPa 0,0 l/m² 1,2 km/h (1 Bft) NW 326 ° 0 min 0 W/m² 2,0 °C 3,3 °C 3,2 km/h (1 Bft)
16.03.2020 22:53 24,3 °C 3,3 °C 43 % 91 % 1024,7 hPa 0,0 l/m² 1,5 km/h (1 Bft) NW 326 ° 0 min 0 W/m² 2,0 °C 3,3 °C 3,2 km/h (1 Bft)
16.03.2020 22:54 24,3 °C 3,3 °C 43 % 91 % 1024,8 hPa 0,0 l/m² 1,7 km/h (1 Bft) NW 326 ° 0 min 0 W/m² 2,0 °C 3,3 °C 3,2 km/h (1 Bft)
16.03.2020 22:55 24,3 °C 3,3 °C 43 % 91 % 1024,8 hPa 0,0 l/m² 2,8 km/h (1 Bft) NW 326 ° 0 min 0 W/m² 2,0 °C 3,3 °C 3,2 km/h (1 Bft)
16.03.2020 22:57 24,3 °C 3,3 °C 43 % 91 % 1024,7 hPa 0,0 l/m² 3,6 km/h (1 Bft) NW 326 ° 0 min 0 W/m² 2,0 °C 3,3 °C 4,8 km/h (1 Bft)
16.03.2020 22:59 24,3 °C 3,3 °C 43 % 91 % 1024,8 hPa 0,0 l/m² 4,1 km/h (1 Bft) NW 320 ° 0 min 0 W/m² 2,0 °C 3,3 °C 4,8 km/h (1 Bft)
16.03.2020 23:02 24,3 °C 3,3 °C 43 % 91 % 1024,8 hPa 0,0 l/m² 3,1 km/h (1 Bft) NW 320 ° 0 min 0 W/m² 2,0 °C 3,3 °C 4,8 km/h (1 Bft)
16.03.2020 23:03 24,3 °C 3,3 °C 43 % 91 % 1024,7 hPa 0,0 l/m² 2,7 km/h (1 Bft) NW 320 ° 0 min 0 W/m² 2,0 °C 3,3 °C 3,2 km/h (1 Bft)
16.03.2020 23:04 24,3 °C 3,3 °C 43 % 91 % 1024,8 hPa 0,0 l/m² 3,0 km/h (1 Bft) NW 320 ° 0 min 0 W/m² 2,0 °C 3,3 °C 3,2 km/h (1 Bft)
16.03.2020 23:05 24,3 °C 3,3 °C 43 % 91 % 1024,8 hPa 0,0 l/m² 1,5 km/h (1 Bft) NW 320 ° 0 min 0 W/m² 2,0 °C 3,3 °C 1,6 km/h (1 Bft)
16.03.2020 23:07 24,3 °C 3,3 °C 43 % 91 % 1024,8 hPa 0,0 l/m² 2,7 km/h (1 Bft) NW 320 ° 0 min 0 W/m² 2,0 °C 3,3 °C 4,8 km/h (1 Bft)
16.03.2020 23:09 24,3 °C 3,3 °C 43 % 91 % 1024,8 hPa 0,0 l/m² 3,6 km/h (1 Bft) NW 320 ° 0 min 0 W/m² 2,0 °C 3,3 °C 4,8 km/h (1 Bft)
16.03.2020 23:12 24,3 °C 3,3 °C 44 % 91 % 1024,8 hPa 0,0 l/m² 1,8 km/h (1 Bft) NW 320 ° 0 min 0 W/m² 2,0 °C 3,3 °C 3,2 km/h (1 Bft)
16.03.2020 23:13 24,3 °C 3,3 °C 44 % 91 % 1024,8 hPa 0,0 l/m² 2,4 km/h (1 Bft) NW 320 ° 0 min 0 W/m² 2,0 °C 3,3 °C 3,2 km/h (1 Bft)
16.03.2020 23:14 24,3 °C 3,3 °C 44 % 91 % 1024,9 hPa 0,0 l/m² 2,7 km/h (1 Bft) NW 320 ° 0 min 0 W/m² 2,0 °C 3,3 °C 3,2 km/h (1 Bft)
16.03.2020 23:15 24,3 °C 3,3 °C 44 % 90 % 1024,9 hPa 0,0 l/m² 2,8 km/h (1 Bft) NW 320 ° 0 min 0 W/m² 1,8 °C 3,3 °C 3,2 km/h (1 Bft)
16.03.2020 23:16 24,3 °C 3,1 °C 44 % 90 % 1024,9 hPa 0,0 l/m² 3,2 km/h (1 Bft) NW 315 ° 0 min 0 W/m² 1,6 °C 3,1 °C 3,2 km/h (1 Bft)
16.03.2020 23:22 24,3 °C 2,7 °C 44 % 90 % 1024,8 hPa 0,0 l/m² 3,1 km/h (1 Bft) NW 320 ° 0 min 0 W/m² 1,2 °C 2,7 °C 3,2 km/h (1 Bft)
16.03.2020 23:24 24,3 °C 2,8 °C 44 % 91 % 1024,8 hPa 0,0 l/m² 2,3 km/h (1 Bft) NW 320 ° 0 min 0 W/m² 1,5 °C 2,8 °C 3,2 km/h (1 Bft)
16.03.2020 23:25 24,3 °C 2,8 °C 44 % 91 % 1024,9 hPa 0,0 l/m² 1,7 km/h (1 Bft) NW 320 ° 0 min 0 W/m² 1,5 °C 2,8 °C 3,2 km/h (1 Bft)
16.03.2020 23:27 24,3 °C 2,8 °C 44 % 91 % 1024,7 hPa 0,0 l/m² 2,0 km/h (1 Bft) NW 320 ° 0 min 0 W/m² 1,5 °C 2,8 °C 3,2 km/h (1 Bft)
16.03.2020 23:29 24,2 °C 2,9 °C 44 % 91 % 1024,8 hPa 0,0 l/m² 3,0 km/h (1 Bft) NW 320 ° 0 min 0 W/m² 1,6 °C 2,9 °C 4,8 km/h (1 Bft)
16.03.2020 23:30 24,2 °C 2,9 °C 44 % 91 % 1024,8 hPa 0,0 l/m² 3,7 km/h (1 Bft) NW 320 ° 0 min 0 W/m² 1,6 °C 2,9 °C 4,8 km/h (1 Bft)
16.03.2020 23:31 24,2 °C 3,0 °C 44 % 91 % 1024,8 hPa 0,0 l/m² 4,2 km/h (1 Bft) NW 320 ° 0 min 0 W/m² 1,7 °C 3,0 °C 4,8 km/h (1 Bft)
16.03.2020 23:33 24,2 °C 3,1 °C 44 % 91 % 1024,9 hPa 0,0 l/m² 3,9 km/h (1 Bft) NW 320 ° 0 min 0 W/m² 1,8 °C 3,1 °C 4,8 km/h (1 Bft)
16.03.2020 23:35 24,2 °C 3,1 °C 44 % 91 % 1025,0 hPa 0,0 l/m² 4,1 km/h (1 Bft) NW 320 ° 0 min 0 W/m² 1,8 °C 3,1 °C 4,8 km/h (1 Bft)
16.03.2020 23:37 24,2 °C 3,1 °C 44 % 91 % 1025,0 hPa 0,0 l/m² 1,8 km/h (1 Bft) NW 320 ° 0 min 0 W/m² 1,8 °C 3,1 °C 4,8 km/h (1 Bft)
16.03.2020 23:39 24,2 °C 2,8 °C 44 % 89 % 1024,9 hPa 0,0 l/m² 0,1 km/h (0 Bft) NW 320 ° 0 min 0 W/m² 1,2 °C 2,8 °C 1,6 km/h (1 Bft)
16.03.2020 23:40 24,2 °C 2,7 °C 44 % 89 % 1024,9 hPa 0,0 l/m² 0,0 km/h (0 Bft) NW 320 ° 0 min 0 W/m² 1,1 °C 2,7 °C 0,0 km/h (0 Bft)
16.03.2020 23:41 24,2 °C 2,6 °C 44 % 89 % 1024,9 hPa 0,0 l/m² 0,0 km/h (0 Bft) NW 320 ° 0 min 0 W/m² 1,0 °C 2,6 °C 0,0 km/h (0 Bft)
16.03.2020 23:42 24,2 °C 2,4 °C 44 % 89 % 1024,9 hPa 0,0 l/m² 0,0 km/h (0 Bft) NW 320 ° 0 min 0 W/m² 0,8 °C 2,4 °C 0,0 km/h (0 Bft)
16.03.2020 23:43 24,2 °C 2,3 °C 44 % 89 % 1024,9 hPa 0,0 l/m² 0,0 km/h (0 Bft) NW 320 ° 0 min 0 W/m² 0,7 °C 2,3 °C 0,0 km/h (0 Bft)
16.03.2020 23:45 24,2 °C 2,2 °C 44 % 89 % 1025,0 hPa 0,0 l/m² 0,0 km/h (0 Bft) NW 320 ° 0 min 0 W/m² 0,6 °C 2,2 °C 0,0 km/h (0 Bft)
16.03.2020 23:47 24,2 °C 1,9 °C 44 % 89 % 1025,0 hPa 0,0 l/m² 0,0 km/h (0 Bft) NW 320 ° 0 min 0 W/m² 0,3 °C 1,9 °C 1,6 km/h (1 Bft)
16.03.2020 23:49 24,2 °C 1,8 °C 44 % 89 % 1025,0 hPa 0,0 l/m² 1,3 km/h (1 Bft) NW 320 ° 0 min 0 W/m² 0,2 °C 1,8 °C 1,6 km/h (1 Bft)
16.03.2020 23:50 24,2 °C 1,8 °C 44 % 89 % 1025,1 hPa 0,0 l/m² 1,2 km/h (1 Bft) NW 320 ° 0 min 0 W/m² 0,2 °C 1,8 °C 1,6 km/h (1 Bft)
16.03.2020 23:51 24,2 °C 1,7 °C 44 % 89 % 1025,1 hPa 0,0 l/m² 1,2 km/h (1 Bft) NW 320 ° 0 min 0 W/m² 0,1 °C 1,7 °C 1,6 km/h (1 Bft)
16.03.2020 23:52 24,2 °C 1,7 °C 44 % 89 % 1025,1 hPa 0,0 l/m² 1,0 km/h (0 Bft) NW 320 ° 0 min 0 W/m² 0,1 °C 1,7 °C 1,6 km/h (1 Bft)
16.03.2020 23:53 24,2 °C 1,7 °C 44 % 90 % 1025,1 hPa 0,0 l/m² 0,8 km/h (0 Bft) NW 320 ° 0 min 0 W/m² 0,2 °C 1,7 °C 1,6 km/h (1 Bft)
16.03.2020 23:55 24,2 °C 1,7 °C 44 % 90 % 1025,0 hPa 0,0 l/m² 0,0 km/h (0 Bft) NW 320 ° 0 min 0 W/m² 0,2 °C 1,7 °C 0,0 km/h (0 Bft)
16.03.2020 23:57 24,2 °C 1,8 °C 44 % 90 % 1025,0 hPa 0,0 l/m² 0,0 km/h (0 Bft) NW 320 ° 0 min 0 W/m² 0,3 °C 1,8 °C 0,0 km/h (0 Bft)
16.03.2020 23:59 24,2 °C 1,9 °C 44 % 91 % 1025,0 hPa 0,0 l/m² 0,0 km/h (0 Bft) NW 320 ° 0 min 0 W/m² 0,6 °C 1,9 °C 1,6 km/h (1 Bft)
_ Min-Zeit 06:36 06:10 09:28 12:53 00:24 - 23:59 - - - - 06:01 06:10 23:57
Minimum _ 23,5 °C -1,2 °C 37 % 51 % 1016,1 hPa - 0,0 km/h (0 Bft) - - - - -3,5 °C -1,2 °C 0,0 km/h (0 Bft)
_ Max-Zeit 12:13 14:46 23:59 23:59 23:53 23:59 11:14 - - 17:32 12:09 15:04 16:42 11:43
Maximum _ 25,3 °C 16,4 °C 44 % 91 % 1025,1 hPa 0,0 l/m² 21,6 km/h
SW (4 Bft)
- - 3 min 657 W/m² 8,5 °C 16,0 °C 27,4 km/h
SW (5 Bft)
Durchschnitt _ 24,2 °C 7,1 °C 42 % 73 % 1019,6 hPa #0,0 l/m² 4,7 km/h (1 Bft) O-NO - #10:35 h 168 W/m² 2,3 °C 6,4 °C 6,9 km/h (2 Bft)
© 2009 Mathias Hoßbach